GFSCGP_sfc_dewp_000.txt.gz
Dewpoint
51 47 43 43 35 32 30 27 26 26 28 29 28 28 28 28 26 27 29 32 34 36 38 41 43 45 46 46 45 44 45 46 55 58 58 58 59 59 59 58 57 57 56 55
48 44 45 42 37 31 29 27 26 27 30 27 26 25 28 22 27 31 32 34 36 38 39 41 42 43 43 44 46 45 44 45 51 55 57 58 59 59 60 60 60 59 59 58
43 44 45 38 32 31 30 27 27 29 30 29 29 28 22 27 30 33 34 35 36 38 39 40 42 43 43 43 42 43 44 47 48 54 57 57 58 58 58 59 59 60 60 60
42 39 41 38 32 29 27 29 30 30 28 25 28 23 22 26 29 32 33 34 35 37 39 41 42 43 43 43 42 42 43 43 43 48 49 50 52 52 54 56 57 56 57 59
40 35 37 32 31 30 28 32 30 29 27 27 25 24 23 27 28 31 33 33 34 36 39 41 42 43 43 43 43 43 43 43 43 42 44 45 44 49 51 51 48 49 52 53
34 33 33 32 31 31 32 28 29 28 26 24 25 25 23 26 27 30 33 33 34 37 40 41 42 42 42 43 43 43 43 43 43 42 42 41 41 42 43 43 45 45 48 51
34 24 23 29 25 25 27 27 25 24 24 24 25 23 24 25 29 30 32 33 34 37 39 40 40 41 42 41 41 42 42 42 42 42 42 42 42 42 42 42 43 43 43 44
30 23 22 22 26 25 25 27 26 23 24 25 23 21 21 25 30 32 34 35 34 37 39 40 40 41 41 41 41 41 41 42 42 42 42 43 44 44 44 43 43 44 43 44
26 26 27 27 23 27 25 26 29 27 28 24 25 26 24 31 33 34 35 34 34 36 38 39 40 40 40 40 40 40 41 42 43 43 43 43 44 44 44 44 44 44 43 42
31 25 29 28 26 24 27 27 25 26 23 21 22 22 23 28 32 34 34 34 35 35 38 39 40 40 40 40 40 41 43 43 43 43 43 43 44 43 43 42 41 40 40 40
34 30 32 28 28 27 25 23 22 25 25 21 20 21 25 25 29 33 34 35 35 35 37 38 39 39 40 41 42 43 43 41 40 41 41 41 43 42 40 39 38 37 37 37
39 33 30 31 31 30 28 26 24 22 21 23 21 21 25 27 26 29 33 35 36 37 38 38 38 40 41 41 42 41 39 37 37 38 38 38 40 37 35 33 33 34 33 34
38 35 31 31 32 33 32 29 26 27 27 25 22 23 27 31 28 33 35 35 35 38 38 35 37 41 42 41 40 38 36 34 35 36 35 34 35 31 28 29 29 29 30 30
39 32 31 29 29 32 31 33 30 26 25 23 25 24 26 28 30 32 34 36 36 38 34 34 39 42 40 38 36 33 32 31 32 33 32 33 28 27 27 27 26 26 26 27
32 28 28 28 27 27 29 30 32 30 28 23 24 25 25 27 26 28 30 35 37 34 33 35 41 40 38 35 32 30 28 27 29 27 28 27 26 24 24 24 23 23 24 23
33 28 25 20 22 23 22 22 23 25 29 29 28 26 27 29 30 37 35 35 35 31 34 41 41 37 35 33 29 27 26 25 25 24 24 21 17 17 18 18 19 19 19 19
29 24 20 15 25 25 23 25 24 21 22 21 18 21 28 29 33 35 36 35 33 32 40 40 37 35 33 28 26 25 24 23 20 22 16 14 14 14 15 15 15 16 15 17
28 26 26 22 25 22 27 29 28 26 28 27 27 29 32 34 34 34 35 36 32 38 39 37 34 32 29 25 24 22 21 16 14 15 12 13 13 13 13 13 13 13 13 14
29 27 26 25 25 27 29 30 30 29 30 33 33 34 35 34 33 32 37 36 37 38 37 34 32 30 25 22 19 15 12 9 9 11 12 12 13 12 12 12 12 12 12 13
30 29 27 25 23 23 27 31 32 30 25 35 35 35 36 36 32 33 37 38 38 36 33 31 29 25 21 16 11 8 8 8 8 11 12 13 14 13 12 13 13 13 14 13
27 27 26 28 26 28 31 32 33 25 24 36 36 35 36 35 35 36 38 36 35 33 31 28 25 21 16 9 7 7 8 8 9 12 14 14 14 14 13 14 14 15 15 15
28 27 27 27 25 23 33 35 31 32 36 34 34 34 34 36 38 37 36 35 34 32 27 24 20 15 10 10 8 8 8 9 11 13 14 14 14 14 14 16 17 17 16 15
29 32 31 30 28 33 34 34 34 35 33 33 35 34 34 36 37 37 36 35 34 28 22 17 16 13 10 10 10 9 10 11 13 14 14 14 14 14 14 17 17 17 16 16
32 34 32 32 33 34 33 34 34 35 34 34 34 34 34 33 35 35 35 34 31 24 17 15 12 9 10 11 11 10 11 13 14 14 14 14 14 16 16 15 16 17 16 16
32 34 34 33 34 34 34 34 35 35 35 35 35 35 33 33 34 34 35 35 26 19 16 13 12 12 12 12 11 12 13 14 14 14 14 14 15 15 16 16 16 16 17 20
35 34 32 31 34 34 34 35 36 35 35 35 34 33 34 34 34 35 33 24 19 15 14 12 12 12 12 12 12 13 14 15 15 14 14 15 16 16 16 16 16 22 24 26

GFSCGP_sfc_dewp_003.txt.gz
Dewpoint
51 46 43 43 41 38 33 29 27 27 27 27 28 28 29 29 26 26 30 33 35 37 39 41 42 42 42 43 45 45 46 47 54 57 57 57 58 59 58 59 58 56 56 55
48 43 44 44 39 33 31 29 29 28 30 27 27 27 28 24 25 28 31 34 36 37 39 40 42 42 42 41 42 42 44 47 51 56 57 58 58 58 59 60 60 60 59 58
42 42 47 44 42 35 31 29 29 27 30 29 28 28 28 26 30 32 33 35 37 38 39 40 41 42 42 41 42 42 42 42 46 52 57 57 56 56 55 55 56 56 56 58
44 43 46 43 38 40 38 31 31 29 28 26 30 24 25 24 29 31 33 34 36 38 40 41 41 42 42 42 42 42 42 42 42 44 45 48 49 48 50 52 50 48 49 51
41 41 43 44 40 33 36 30 29 30 27 26 25 24 25 25 27 30 31 32 35 38 39 40 41 41 42 42 42 42 42 42 42 42 42 42 42 43 45 44 43 44 44 47
36 42 43 41 38 31 32 28 28 29 26 24 25 24 24 24 25 29 31 31 35 38 39 40 41 41 41 41 42 42 42 42 42 42 42 42 41 42 42 42 42 43 43 44
31 31 31 29 26 30 28 27 26 24 24 24 25 25 25 25 26 29 31 31 34 38 39 39 40 40 40 40 40 41 42 42 42 42 42 42 42 42 42 42 42 41 41 41
30 29 23 23 27 26 27 28 26 22 23 23 24 22 23 27 28 30 32 32 34 37 38 39 40 40 39 39 40 41 41 42 42 42 42 41 41 42 41 41 41 40 40 40
28 27 26 25 24 27 24 26 29 27 26 25 25 25 25 31 31 32 32 32 33 36 38 38 39 39 38 39 40 41 41 41 41 41 41 41 39 39 39 39 38 38 37 36
28 23 29 26 26 23 26 27 25 27 24 21 22 22 24 28 30 32 32 32 33 36 38 38 39 38 39 41 41 41 39 38 38 39 39 39 38 37 37 35 34 33 33 33
30 27 30 27 26 25 22 21 23 26 25 21 20 21 24 25 31 32 33 32 33 35 38 38 38 39 40 41 39 38 36 35 35 36 36 36 35 33 31 28 28 28 29 29
38 30 27 28 33 29 27 23 22 22 21 22 21 21 25 27 31 33 33 34 35 36 37 38 38 40 40 39 36 34 33 32 33 33 32 32 28 25 24 24 24 23 23 24
37 33 30 29 32 33 31 28 24 26 26 23 20 21 26 28 26 29 32 35 35 37 37 37 40 40 39 37 34 31 29 29 30 29 29 26 23 22 21 22 21 20 20 21
39 32 29 26 29 32 30 30 27 26 24 23 23 24 25 27 29 31 33 35 35 38 35 36 41 40 37 34 30 27 25 26 26 25 24 20 19 20 19 19 19 19 19 18
30 28 28 27 27 30 31 31 28 25 24 22 22 25 24 26 27 26 28 33 37 37 32 38 41 39 35 31 27 25 24 24 22 22 19 19 18 17 17 17 16 16 17 15
31 27 24 19 23 22 21 23 31 30 29 27 28 25 27 28 30 34 36 35 36 33 32 40 40 35 33 29 25 24 23 22 18 19 15 16 15 15 15 14 14 15 15 14
25 23 18 16 24 24 20 23 22 20 21 21 16 20 28 31 34 35 36 35 36 32 37 40 36 34 31 25 24 23 20 15 12 15 13 14 15 14 15 14 14 14 13 13
25 23 23 18 24 19 23 30 28 25 29 25 31 32 33 34 34 33 34 35 34 34 39 36 33 31 26 24 21 17 14 10 11 12 12 14 14 14 14 14 13 13 13 13
28 27 26 26 24 25 29 29 28 29 31 33 33 33 34 33 32 34 36 35 34 38 36 34 31 28 22 19 15 10 8 9 10 11 12 13 14 14 13 13 13 13 14 14
29 29 27 27 25 23 27 31 32 29 30 35 35 35 36 35 32 33 36 38 37 35 33 30 28 24 20 13 8 7 8 8 8 11 12 14 15 14 13 13 13 14 15 15
26 27 27 28 27 28 30 32 33 25 23 35 33 33 34 32 35 36 38 36 35 34 31 27 25 20 14 8 8 8 8 7 10 12 13 15 15 15 14 14 15 15 16 15
26 26 27 28 26 24 33 33 31 32 35 33 33 33 32 35 36 38 37 35 34 30 28 24 20 13 9 10 9 8 7 10 12 13 14 15 15 14 14 17 17 17 16 15
30 31 29 29 28 33 35 33 34 34 33 33 34 35 33 35 36 37 37 35 34 28 22 19 16 12 9 10 10 8 9 12 13 14 14 14 15 14 14 17 17 16 15 15
31 33 32 32 33 34 33 35 35 34 34 35 35 35 34 34 34 35 35 34 30 24 19 15 11 7 9 11 10 10 11 13 14 13 14 14 14 16 16 16 16 16 15 16
32 34 33 33 34 34 34 35 35 35 35 34 34 34 34 33 32 33 34 34 29 20 16 12 10 10 10 11 11 12 13 14 13 13 14 14 14 15 16 16 16 15 16 19
35 33 32 31 34 32 33 35 35 35 34 35 34 33 32 32 33 34 34 32 23 19 14 11 10 11 10 12 12 12 14 14 14 14 13 14 16 17 17 16 15 20 23 25

GFSCGP_sfc_dewp_006.txt.gz
Dewpoint
50 46 43 42 43 39 36 31 32 29 28 27 27 28 28 29 28 26 29 34 36 38 40 41 42 41 41 41 42 43 46 50 55 56 56 56 56 57 58 58 59 58 57 56
48 42 44 43 43 40 32 30 29 31 31 27 28 27 28 29 26 26 30 34 36 38 39 41 41 41 41 41 41 41 42 44 51 56 57 57 57 58 58 56 54 54 56 56
41 44 44 43 39 37 33 32 33 32 30 30 28 27 28 26 29 31 33 35 37 38 39 40 41 41 41 41 41 41 42 42 43 47 52 51 51 50 49 49 46 47 47 45
44 45 44 42 42 41 39 34 33 30 29 26 28 24 27 24 28 31 33 36 37 39 40 40 41 41 41 41 42 42 42 42 42 43 43 44 44 44 45 46 44 44 44 44
42 44 44 42 41 42 40 35 33 32 28 25 28 24 25 24 27 30 32 34 36 39 40 40 41 41 41 42 42 42 42 42 43 42 42 43 42 43 43 43 41 42 41 43
39 43 45 45 43 40 37 32 30 29 26 24 26 25 24 24 25 29 31 32 36 39 40 40 40 40 40 41 41 42 42 42 42 42 42 42 41 40 39 39 39 39 40 41
33 42 38 41 34 33 34 30 29 25 25 24 26 24 25 26 25 28 31 32 35 39 39 40 39 40 40 40 41 41 42 41 42 41 40 40 40 39 38 38 38 36 35 36
34 34 31 29 38 36 33 31 26 23 23 23 25 23 23 27 31 29 32 32 36 38 39 39 39 39 39 40 41 41 40 40 40 40 39 38 37 38 36 36 36 34 35 35
34 32 26 26 27 36 27 28 29 27 25 25 26 24 26 30 30 31 31 32 35 37 38 39 39 38 40 40 40 39 38 38 38 38 37 36 34 33 32 33 32 30 30 28
30 23 28 25 24 24 27 29 26 27 24 22 23 22 24 24 29 31 31 32 34 37 38 39 38 39 40 40 38 36 36 35 35 35 34 32 30 29 28 27 25 25 25 25
28 26 28 26 25 23 23 24 25 27 26 22 20 21 24 24 27 31 31 32 34 37 38 38 38 40 40 38 35 34 33 33 32 32 30 26 24 24 22 22 22 21 22 22
33 29 25 26 32 28 24 23 24 25 22 22 21 22 25 27 28 32 32 34 34 36 38 38 39 40 38 35 32 30 30 29 29 29 25 22 21 20 19 19 20 19 18 19
35 31 29 30 32 33 30 26 24 25 25 22 20 22 26 26 30 32 33 34 34 35 37 38 40 39 37 33 29 27 26 25 25 24 20 17 17 16 16 16 16 16 16 16
39 32 28 27 28 30 30 28 26 25 24 23 23 24 29 27 28 31 34 35 35 36 37 39 40 38 35 30 27 25 23 22 22 18 15 15 15 15 14 16 16 16 16 16
34 29 29 25 30 31 30 30 27 25 25 24 25 24 27 27 28 28 30 32 35 37 35 40 40 36 32 28 25 24 22 18 18 14 14 15 16 15 15 16 16 16 16 15
32 28 24 20 23 22 25 29 28 27 26 25 27 26 27 30 33 35 34 34 36 36 34 40 39 35 31 26 24 23 20 13 13 13 14 15 15 16 16 16 15 15 15 14
26 24 23 21 23 22 18 21 30 28 27 28 26 26 27 33 34 35 36 35 35 35 34 40 36 33 28 25 23 20 14 10 11 13 13 14 15 15 16 15 14 14 13 14
23 22 22 18 24 13 20 31 24 25 27 26 30 31 33 34 34 33 34 36 35 34 38 37 34 29 25 23 20 15 10 9 11 11 12 14 15 15 15 15 14 14 14 14
27 26 26 22 20 22 29 28 30 28 31 33 33 33 33 32 33 33 36 36 35 35 37 34 31 27 23 18 12 8 8 8 9 10 11 13 14 14 14 14 14 14 14 14
29 29 25 25 23 20 25 31 31 32 29 35 35 35 35 34 30 32 36 37 36 36 33 30 27 23 17 10 7 7 7 7 8 11 12 14 15 15 14 14 14 14 15 15
26 27 25 28 26 27 30 32 32 26 27 36 34 33 34 32 33 35 37 35 34 32 30 27 24 18 12 8 8 8 7 7 10 13 14 14 15 15 14 14 15 15 16 16
24 25 26 28 26 24 33 33 29 32 34 33 33 33 32 33 35 37 36 35 32 30 28 24 18 12 9 10 9 8 7 10 12 13 14 14 14 14 14 16 17 17 16 15
27 28 27 29 29 33 34 33 35 34 33 33 33 33 33 34 35 36 36 35 33 28 25 21 17 11 8 10 10 7 9 12 13 13 13 13 14 14 14 16 17 16 16 15
31 33 32 31 33 33 33 34 34 34 34 34 35 35 34 33 33 33 35 35 32 26 21 17 11 7 8 10 10 10 11 12 13 12 13 13 14 15 16 16 17 17 15 15
31 33 32 32 34 34 34 35 34 34 35 35 34 33 33 32 31 32 33 33 30 24 18 14 11 10 9 10 10 11 12 13 12 13 13 13 14 15 16 16 17 16 16 19
34 33 31 30 34 33 33 35 35 35 34 34 33 32 31 31 32 33 33 34 28 21 16 13 10 10 9 11 11 12 13 13 13 13 13 14 15 16 16 16 16 20 22 23

GFSCGP_sfc_dewp_009.txt.gz
Dewpoint
45 45 43 42 43 39 34 33 33 34 31 29 29 28 30 31 30 31 30 36 37 39 40 41 41 41 42 42 43 44 50 54 57 58 58 58 57 55 52 50 49 49 50 51
42 42 44 44 43 38 34 33 32 33 31 29 31 30 30 31 31 29 30 36 37 39 39 41 41 41 41 41 42 42 44 46 54 58 59 58 53 49 47 47 45 45 42 42
38 42 44 43 43 41 36 35 33 34 33 31 29 29 29 29 29 31 33 37 37 38 39 40 40 41 42 42 43 43 43 44 45 47 47 47 47 46 45 44 42 43 42 40
42 44 43 43 41 41 39 35 36 33 34 32 29 26 28 28 27 31 34 37 38 39 40 41 41 41 42 42 44 44 44 44 44 45 44 44 43 41 42 41 41 39 40 40
41 46 42 42 41 41 40 40 38 35 31 26 26 26 26 25 25 30 33 37 38 40 41 40 41 42 42 43 44 44 43 43 43 42 43 41 40 40 39 38 36 37 36 38
43 46 45 43 42 42 34 35 35 31 27 25 26 26 26 25 24 29 32 35 38 39 40 40 41 41 42 44 44 44 42 41 41 40 40 39 38 35 34 34 32 32 31 33
40 43 46 47 37 37 35 38 34 30 26 26 26 25 26 27 26 30 32 33 38 40 40 40 40 40 41 43 43 42 41 40 38 37 36 36 35 33 31 29 27 25 24 28
36 37 37 44 40 37 39 38 32 25 24 24 26 25 24 27 31 30 33 34 38 39 40 40 40 41 41 41 41 40 39 38 37 34 32 30 30 28 26 25 24 22 22 23
33 34 34 34 35 39 35 37 32 27 26 26 27 27 28 30 30 30 32 35 38 39 40 40 39 40 41 40 38 38 36 36 35 32 26 24 22 22 22 21 20 20 19 16
35 26 29 24 30 26 35 33 33 28 25 23 25 23 26 25 27 31 31 34 37 39 39 39 38 40 40 37 36 36 34 33 31 26 22 19 18 18 18 18 17 18 17 18
28 27 28 25 26 25 29 33 29 29 27 24 20 22 25 25 26 31 31 34 36 38 39 39 39 40 38 35 34 32 30 29 27 22 18 16 16 15 14 14 15 16 16 16
29 28 25 25 31 28 27 28 28 26 23 23 22 24 25 27 29 31 32 33 36 38 39 38 40 38 35 32 30 29 27 26 24 19 14 14 14 13 12 12 14 14 14 14
33 30 28 29 31 33 27 24 26 26 25 22 22 24 27 30 33 33 33 33 35 37 38 38 39 37 33 29 27 25 23 23 19 14 12 12 12 12 12 13 13 13 13 13
38 31 30 28 28 30 29 26 25 26 24 23 22 23 25 29 31 33 34 35 35 36 38 39 39 37 32 28 25 23 20 20 16 13 12 12 12 13 13 14 14 14 14 13
34 30 28 25 30 30 29 29 25 25 25 24 25 24 25 27 29 31 31 32 35 36 37 39 39 35 30 26 24 22 18 14 13 11 12 13 14 15 15 15 15 14 15 14
34 29 25 22 26 28 29 30 27 26 26 26 25 25 27 30 31 34 34 34 35 37 37 40 38 34 29 26 24 22 15 10 12 11 12 14 14 15 15 15 14 14 14 13
33 26 25 23 24 22 22 24 29 28 28 26 25 28 28 33 34 34 35 35 36 37 36 40 38 33 28 26 24 18 9 9 10 10 11 13 14 14 15 14 14 14 13 14
30 27 25 20 22 17 24 29 30 29 26 27 27 27 30 34 33 32 34 34 35 36 35 39 35 30 26 24 20 12 9 8 9 10 11 13 14 14 14 14 13 13 13 13
28 26 25 23 19 22 28 28 27 27 28 30 32 33 33 33 33 34 36 36 36 35 38 37 32 26 24 19 13 8 8 7 8 10 11 12 13 13 13 12 13 13 14 14
29 28 27 28 22 18 24 31 31 32 27 35 34 34 33 34 30 32 36 37 36 36 34 31 26 22 17 10 8 7 6 6 7 10 12 13 14 13 12 13 13 14 15 14
26 27 24 28 24 26 29 32 31 26 26 36 35 35 35 32 33 35 37 35 34 32 29 26 23 19 12 8 7 7 6 5 9 12 13 13 13 13 13 14 14 15 15 15
25 25 25 28 25 21 32 33 29 32 34 34 33 33 33 33 36 37 37 35 32 30 28 24 18 12 9 10 8 7 5 9 12 13 13 13 12 12 13 15 16 16 16 15
25 26 27 27 27 34 34 34 35 34 33 33 34 34 33 34 35 37 37 35 32 30 26 22 17 11 9 10 8 6 8 11 12 13 12 12 12 12 14 16 16 16 15 15
31 33 31 30 33 33 34 34 34 34 34 34 35 34 33 34 34 34 36 35 33 28 23 19 14 9 9 10 9 9 11 12 12 11 11 12 12 15 14 15 16 16 16 16
31 32 32 32 34 33 34 34 34 35 35 34 34 34 33 33 33 33 34 35 33 27 22 17 13 11 10 10 10 11 12 13 11 11 11 12 13 14 15 16 16 16 17 19
34 31 31 30 34 34 33 34 35 35 34 34 34 33 33 34 33 34 34 34 30 24 17 14 12 10 9 10 11 12 13 13 12 11 11 12 15 16 16 15 16 21 22 23

GFSCGP_sfc_dewp_012.txt.gz
Dewpoint
43 41 39 43 44 37 33 33 35 35 35 33 35 35 32 34 34 32 31 33 36 37 40 41 42 42 43 45 48 52 55 56 56 57 57 55 52 49 46 45 43 42 41 41
38 38 41 45 42 37 37 35 34 34 33 32 35 36 36 34 32 32 31 33 36 38 38 40 41 41 41 42 43 47 52 56 57 58 55 50 47 45 44 44 42 41 39 39
36 36 40 46 42 38 37 34 32 33 35 36 33 33 33 29 29 30 29 35 36 37 37 38 40 41 42 43 44 44 47 48 48 47 46 46 46 45 43 41 40 39 38 36
34 37 41 45 40 39 37 37 37 37 38 34 34 30 31 29 29 30 32 35 36 38 38 39 40 42 43 45 47 45 45 45 45 46 45 43 42 40 39 38 38 36 35 33
35 33 42 41 42 39 36 40 38 39 37 35 35 30 29 27 26 29 33 35 37 39 39 40 41 43 44 46 46 45 43 42 42 42 41 39 38 38 36 34 33 32 30 29
32 44 40 43 42 41 39 37 37 35 33 31 31 29 27 26 24 27 33 36 38 39 39 40 42 43 44 46 45 44 41 40 40 39 38 38 36 33 31 30 26 24 22 24
34 42 45 44 43 39 38 38 36 34 33 29 26 27 27 27 26 29 32 36 37 39 40 40 41 42 43 44 44 41 39 37 36 35 33 32 32 29 26 23 20 18 16 19
33 36 45 44 41 39 38 36 30 26 27 26 26 26 25 27 29 28 31 36 38 39 39 40 41 42 43 42 41 39 37 36 33 31 28 26 25 23 19 18 16 14 14 14
34 36 43 43 40 39 40 38 33 27 27 25 26 27 28 28 29 30 31 36 39 39 40 40 41 42 41 40 39 38 37 34 30 26 23 20 17 18 17 15 14 14 13 11
34 33 37 36 42 36 40 39 33 30 26 23 24 26 25 25 26 29 31 35 38 39 39 40 40 41 39 38 37 36 34 30 26 22 19 16 13 12 13 12 13 13 11 12
35 32 31 33 38 38 38 39 38 32 28 24 21 23 25 26 27 28 30 34 38 39 39 39 40 40 38 36 35 32 31 28 23 19 15 14 12 11 9 9 10 11 11 11
34 29 33 31 31 34 37 35 35 32 27 26 24 23 25 27 29 29 31 35 37 39 40 39 40 39 36 34 32 30 29 25 21 16 12 11 11 10 8 8 10 9 9 10
32 29 28 32 32 29 35 34 36 32 27 27 25 25 26 31 32 32 32 34 37 38 39 39 40 37 35 32 30 27 26 22 17 13 10 10 10 9 9 10 10 9 10 10
37 31 27 26 28 30 31 32 35 35 30 27 25 26 25 29 32 33 33 34 35 38 39 39 39 37 34 31 28 25 23 20 14 11 10 11 10 11 11 12 11 11 11 11
36 30 30 29 30 30 29 31 29 30 32 28 28 27 27 27 32 33 33 33 34 36 38 39 39 37 34 30 27 24 20 16 11 9 10 12 12 12 12 12 12 12 12 12
35 32 27 26 30 29 28 29 30 31 31 29 28 28 28 28 31 31 32 33 35 35 37 38 39 38 34 29 26 25 18 12 10 9 10 12 11 12 13 13 12 12 13 12
35 31 28 26 25 27 27 28 28 28 28 27 27 29 29 30 30 31 34 35 35 36 37 38 39 38 33 29 27 23 14 9 8 8 9 10 11 11 12 12 11 12 12 12
34 33 30 24 25 26 27 29 30 29 28 28 28 29 30 30 33 34 35 35 36 37 37 39 39 36 31 28 24 16 11 9 7 8 8 10 11 11 11 10 10 11 11 11
38 38 34 27 24 24 23 28 27 30 30 30 30 29 33 33 34 35 36 36 36 35 36 39 38 33 28 25 20 14 9 7 6 7 7 9 9 9 8 9 10 10 11 11
31 39 38 30 27 24 24 30 29 30 24 30 30 32 33 33 31 33 36 36 37 37 37 36 32 28 25 19 13 11 7 4 4 7 9 10 10 10 8 10 11 11 11 10
31 29 31 31 33 25 28 31 33 23 27 34 33 34 34 33 34 36 36 35 35 35 33 29 27 25 21 13 11 8 5 3 7 10 10 10 10 9 9 11 12 13 11 10
27 30 28 31 33 27 33 32 29 34 36 36 36 36 35 36 36 36 36 35 33 32 30 27 25 20 15 12 9 6 4 7 10 11 10 9 9 9 10 15 15 14 10 9
26 30 26 28 27 35 35 34 36 36 35 35 35 35 35 35 35 37 37 35 33 31 28 25 23 18 14 10 7 5 7 10 10 10 9 8 9 9 12 13 14 12 10 9
31 33 30 30 33 33 34 34 35 35 35 35 35 35 35 35 36 36 36 36 34 32 29 25 22 19 14 10 10 8 9 10 10 9 8 8 9 12 12 11 11 11 10 11
31 33 32 32 34 34 34 34 35 35 35 35 35 35 35 35 34 35 35 36 35 32 28 24 22 19 15 10 8 9 11 11 9 8 8 9 10 11 11 10 11 12 14 17
33 32 31 30 34 34 33 35 36 35 36 36 35 35 35 35 34 35 35 35 35 31 26 22 20 16 10 8 9 10 11 11 10 8 9 10 12 12 10 10 11 18 20 22

GFSCGP_sfc_dewp_015.txt.gz
Dewpoint
37 39 36 38 40 38 35 36 34 34 34 35 35 34 34 33 33 33 32 29 33 36 39 41 42 43 45 49 52 54 54 56 56 57 56 53 50 47 45 44 42 41 40 40
35 36 37 35 39 42 42 35 33 33 34 34 33 33 33 34 35 35 31 30 33 37 37 40 41 41 41 44 49 53 55 57 56 53 52 49 47 45 44 43 41 38 36 36
33 35 38 33 38 41 39 36 31 31 34 34 34 34 35 36 36 33 31 31 34 36 36 38 40 41 42 43 46 47 48 48 49 49 48 47 47 46 42 40 39 37 34 30
33 34 36 34 37 41 40 37 33 33 35 32 35 27 29 30 29 30 29 31 35 36 36 38 40 42 44 46 47 46 46 46 46 46 45 44 41 38 38 37 36 34 33 28
35 35 36 36 39 43 41 37 35 37 36 37 36 33 29 30 28 29 30 33 36 37 38 39 41 43 45 47 46 44 43 42 42 42 41 39 37 36 35 34 31 29 27 26
33 33 37 37 42 43 44 37 38 37 35 31 31 31 26 28 27 27 30 34 36 37 38 40 42 44 45 46 45 44 40 39 39 39 37 37 36 34 32 30 26 24 22 23
34 35 39 42 44 46 45 39 35 33 34 26 29 29 28 25 26 27 31 34 36 38 39 40 41 42 44 44 43 40 38 36 35 35 34 33 33 30 27 24 22 19 18 18
31 31 37 40 43 40 41 38 28 24 25 25 27 26 26 27 28 29 32 35 37 38 39 40 41 43 43 43 40 38 36 34 32 31 29 27 27 25 22 20 18 16 15 14
33 33 39 43 45 41 39 36 33 29 27 25 27 28 27 27 29 28 31 35 37 38 39 40 41 42 42 41 39 38 35 32 30 28 25 23 21 20 19 17 16 16 13 9
36 34 39 43 44 43 40 39 32 30 25 23 24 24 25 26 27 28 29 35 37 38 39 40 41 41 40 39 38 37 33 30 27 25 22 20 17 15 15 15 13 12 11 11
39 35 35 41 41 39 41 39 36 31 28 24 22 23 27 25 26 28 30 34 37 38 39 39 40 40 39 38 37 34 31 28 25 23 20 18 15 14 12 11 10 9 9 9
41 39 35 34 35 39 39 39 35 30 27 27 25 23 25 27 29 29 30 34 37 39 39 39 40 40 38 37 35 33 31 27 25 21 17 16 15 14 12 10 9 8 8 8
38 33 35 35 34 37 38 36 36 34 32 28 24 24 26 30 31 30 31 33 37 39 39 38 39 38 37 36 33 31 29 25 21 18 16 15 15 13 11 10 9 9 9 9
40 32 30 27 29 36 37 38 35 33 30 28 27 26 25 29 31 32 32 34 37 38 39 38 39 38 36 35 32 29 27 24 19 16 15 15 14 12 11 11 11 10 10 11
37 31 29 27 29 32 33 34 35 34 33 29 28 27 27 28 30 32 33 34 36 37 38 38 39 38 36 34 31 27 26 21 16 14 14 14 13 12 12 12 12 11 12 13
37 32 30 29 30 29 29 30 32 33 33 32 30 30 30 29 29 31 32 33 34 36 37 38 39 39 36 33 30 27 24 18 15 13 12 12 10 11 12 12 11 12 13 13
36 35 30 26 27 30 28 29 29 30 31 30 28 31 32 29 30 31 32 33 33 34 36 38 39 39 37 33 30 26 21 15 13 11 9 9 10 10 11 11 10 12 12 13
35 35 31 28 27 27 27 29 30 29 30 31 31 32 30 30 30 32 33 34 34 36 36 38 39 40 36 32 29 24 17 14 11 9 7 8 9 9 9 9 10 11 11 12
36 37 34 29 29 31 28 26 28 29 29 30 29 30 30 33 35 34 35 35 36 36 38 39 40 37 33 29 25 19 15 11 9 7 7 7 7 8 8 9 10 11 12 13
39 38 37 35 29 25 26 29 28 31 27 30 32 31 32 34 31 33 36 37 37 38 39 39 37 32 29 26 21 19 14 9 5 6 7 8 9 9 8 9 11 12 12 11
34 38 36 35 32 32 28 30 30 24 29 31 31 32 34 33 35 36 35 35 36 37 35 33 31 29 25 20 19 16 10 5 7 8 8 8 9 8 8 11 13 14 12 11
34 34 35 35 34 31 32 32 28 35 35 33 34 34 35 36 35 35 35 35 34 33 32 30 28 24 20 18 16 11 7 7 8 9 9 9 8 8 11 18 19 16 12 10
32 33 30 31 33 35 34 35 36 36 36 36 36 36 36 35 35 36 35 34 33 31 30 28 26 21 19 15 13 8 8 8 8 9 8 8 8 10 12 16 16 14 10 9
29 31 29 28 32 33 34 35 36 36 36 36 35 35 35 35 36 36 35 34 33 31 29 28 24 21 18 13 10 8 9 9 9 8 7 8 10 12 12 12 12 12 9 11
31 31 32 31 34 34 34 35 35 35 35 35 35 35 35 35 35 35 35 36 35 33 30 28 26 24 19 14 9 9 10 9 9 7 7 9 10 11 12 11 10 9 11 15
33 31 30 28 33 33 34 35 35 35 35 35 35 35 36 36 35 35 35 36 35 33 30 28 26 23 16 10 8 9 10 10 9 8 10 11 12 13 11 10 11 17 20 21

GFSCGP_sfc_dewp_018.txt.gz
Dewpoint
36 36 35 37 38 37 35 35 37 36 38 37 36 35 36 36 35 35 34 32 33 37 40 41 43 45 49 53 53 55 55 56 57 58 54 50 48 46 44 43 40 38 38 39
34 33 34 34 36 37 37 37 37 38 37 36 35 35 35 34 34 34 34 33 33 38 39 41 42 43 47 51 53 55 55 53 52 52 50 49 46 45 44 42 39 35 33 32
31 32 34 32 32 34 33 38 38 39 38 35 34 33 33 33 33 34 36 35 35 37 38 39 41 42 44 47 48 48 49 49 49 48 46 45 46 45 42 41 38 35 30 28
31 31 30 32 31 32 32 36 39 40 40 35 33 28 31 32 34 35 35 31 36 37 38 39 41 43 45 46 47 47 47 47 48 47 46 44 41 39 39 37 36 33 29 25
32 31 31 33 34 36 35 39 40 41 41 39 37 32 32 31 33 33 30 30 36 37 38 40 43 45 46 46 45 44 43 42 42 41 40 40 38 37 36 34 30 27 27 24
31 35 34 33 35 36 37 38 42 42 40 35 34 33 30 29 29 29 30 33 36 36 38 41 44 45 46 46 44 41 39 39 39 38 37 36 34 33 31 27 26 25 25 26
32 36 36 37 36 36 37 37 33 34 34 29 30 30 30 25 27 29 30 34 36 38 39 42 43 44 44 43 42 39 38 36 35 34 33 32 30 27 24 23 22 20 20 21
28 25 35 36 35 37 37 36 33 28 28 26 28 28 29 28 28 31 33 35 37 38 40 41 42 44 44 42 39 37 35 33 31 29 27 26 26 25 23 20 20 17 17 16
32 31 37 33 35 41 38 33 39 33 24 26 27 28 26 28 28 30 33 36 37 38 40 40 42 43 43 40 38 36 33 31 29 27 23 21 20 19 19 17 17 17 14 11
33 31 37 38 40 41 43 41 37 34 25 25 27 26 26 27 28 28 33 35 37 38 39 40 42 42 41 40 38 35 31 29 26 24 21 18 16 15 15 14 12 12 11 12
36 34 36 40 39 37 39 40 40 35 30 27 24 24 28 27 29 29 31 35 37 38 39 40 41 41 39 38 37 32 29 26 25 23 20 17 15 15 13 11 10 9 10 10
36 35 33 35 39 40 40 39 37 30 29 30 27 24 27 28 29 30 30 36 38 38 39 40 40 39 38 37 35 31 29 26 24 20 17 17 16 14 11 10 10 10 9 10
38 34 33 35 38 43 40 40 39 38 34 30 24 24 29 31 29 30 31 36 38 39 39 39 40 38 37 36 33 31 28 24 21 18 17 16 16 13 11 11 11 11 11 11
43 37 34 34 33 39 38 40 40 37 32 30 28 24 29 31 30 31 32 35 38 38 39 39 39 38 37 35 32 30 26 22 19 17 17 16 14 12 12 13 13 13 12 13
39 38 38 37 37 37 37 37 37 34 34 31 28 27 26 31 32 32 33 36 38 38 38 38 39 38 36 34 31 28 25 20 17 16 17 16 14 13 13 14 14 14 15 14
37 36 35 29 33 35 36 37 37 35 33 32 33 32 30 29 32 32 33 35 36 37 38 39 39 38 35 33 29 27 23 18 16 15 15 14 13 12 13 14 14 14 15 15
36 35 33 26 29 30 28 32 34 35 35 34 33 33 33 29 31 32 32 35 36 37 38 38 39 38 36 32 28 25 20 16 14 14 12 12 12 12 13 12 12 13 13 13
36 36 35 28 28 23 28 29 30 30 31 33 32 32 32 31 33 35 34 33 34 36 38 39 40 39 35 31 28 22 17 15 15 12 10 11 11 10 11 11 11 11 12 13
37 36 36 29 29 29 30 27 29 29 29 31 31 32 33 35 35 34 36 37 37 37 38 39 40 35 31 29 20 17 15 13 12 10 9 9 8 9 10 10 10 11 13 13
38 39 38 34 27 25 27 30 29 31 28 32 32 32 34 34 32 34 36 38 38 40 40 37 34 31 28 21 19 16 13 11 8 8 9 9 10 10 9 9 11 13 15 13
37 37 36 35 32 33 31 30 30 26 29 33 32 34 35 35 35 36 36 37 37 36 34 32 30 28 23 21 20 14 10 7 9 9 9 10 10 9 9 11 13 15 15 13
35 35 36 36 34 30 32 31 29 34 34 34 36 36 36 35 35 35 35 35 33 33 32 30 26 21 20 20 15 10 8 9 10 10 10 10 9 9 11 16 18 17 14 11
34 35 34 36 36 35 35 35 36 37 35 36 37 37 36 35 35 35 34 33 32 30 29 26 21 20 18 16 12 9 9 9 10 9 9 9 9 10 13 15 15 15 12 10
32 31 31 30 32 34 35 35 36 37 37 37 37 36 36 36 36 35 34 32 30 30 29 25 22 19 15 11 10 10 10 10 9 8 8 8 10 13 13 13 14 13 10 10
31 31 31 31 34 34 35 35 36 35 36 36 36 36 36 36 36 36 34 34 32 31 29 26 24 21 16 13 10 11 11 10 9 8 8 11 12 13 13 13 13 11 12 15
32 31 31 31 33 33 34 36 36 35 35 36 36 36 36 36 36 36 36 35 33 31 29 28 25 21 15 11 10 11 11 11 10 10 12 13 14 15 14 12 12 18 20 21

GFSCGP_sfc_dewp_021.txt.gz
Dewpoint
37 35 33 35 37 35 35 35 35 37 39 39 38 39 39 39 37 36 33 32 35 38 41 42 44 48 51 53 54 55 56 56 56 51 47 44 44 41 39 37 34 33 34 33
34 33 33 36 37 38 36 35 35 36 38 39 38 38 38 38 37 36 36 35 37 39 40 42 44 48 51 52 52 53 52 52 52 50 48 47 43 42 40 38 32 29 28 29
32 32 34 33 33 34 35 35 34 33 37 39 39 37 36 36 37 36 36 36 38 39 40 40 43 46 47 47 48 49 49 48 47 45 44 43 44 42 40 37 34 28 25 26
33 33 31 33 32 32 30 33 33 32 36 34 40 34 35 35 33 33 33 35 38 39 40 41 43 45 45 46 47 47 48 47 46 45 44 42 40 38 37 37 33 28 23 23
32 31 31 30 31 33 30 34 33 33 34 36 38 37 34 33 32 33 33 34 37 39 39 41 44 45 46 44 42 41 41 42 42 41 40 39 37 36 35 31 27 25 23 22
33 34 33 31 30 32 35 34 33 36 36 32 34 38 31 31 31 32 33 36 37 38 40 43 45 45 44 42 40 39 38 37 37 37 37 35 32 29 26 24 24 24 24 23
34 34 36 38 35 36 36 32 25 26 28 27 34 35 36 30 30 33 30 36 37 39 42 44 44 43 43 40 39 37 36 34 33 31 30 27 24 22 21 22 20 18 18 19
26 22 33 36 34 33 34 30 25 19 24 27 37 35 32 34 30 32 34 36 37 41 43 44 44 43 41 39 37 34 32 31 28 27 26 24 23 23 21 19 18 16 16 15
27 27 35 33 34 32 33 30 30 33 35 31 34 29 26 29 31 34 35 36 38 40 42 43 43 43 41 38 35 33 31 29 26 24 21 19 19 18 17 15 15 16 13 11
32 28 30 33 38 35 35 34 30 32 28 27 28 25 25 27 30 34 35 36 38 40 41 43 43 42 40 37 34 32 29 27 24 21 17 16 15 15 14 13 10 10 11 11
34 33 31 32 35 32 36 35 34 35 32 29 25 26 27 27 29 33 35 36 38 39 40 42 42 41 39 36 33 30 27 24 22 20 16 15 15 13 11 10 9 9 10 10
36 34 29 31 40 37 35 35 34 30 33 33 25 23 28 29 29 33 35 37 38 39 40 42 41 39 37 35 31 27 26 24 21 18 17 16 15 12 10 10 10 11 10 11
37 33 27 33 37 39 37 38 40 38 39 32 23 23 30 29 29 30 35 37 38 39 40 41 39 37 36 33 30 27 25 22 19 18 17 16 14 12 11 11 11 12 11 12
38 36 33 32 35 39 36 37 38 38 35 31 29 27 29 28 29 31 36 37 38 39 40 39 38 37 36 33 31 27 23 20 19 18 17 15 13 12 12 13 13 14 13 13
39 34 36 36 37 39 38 37 37 37 36 32 27 27 29 29 30 31 36 38 38 38 39 39 37 37 36 33 30 25 21 18 18 18 17 15 14 13 13 14 14 14 15 15
38 33 38 35 37 38 38 39 37 37 35 34 33 33 29 32 32 32 36 38 38 38 39 39 37 36 35 32 28 23 20 18 17 17 16 15 14 12 14 13 13 13 14 14
35 36 37 28 37 37 35 36 37 37 36 34 32 33 30 31 32 32 35 37 38 38 38 39 37 36 34 30 25 21 17 16 15 14 14 13 13 12 13 12 11 12 12 13
34 36 36 30 28 23 26 33 37 37 36 36 35 33 32 32 35 35 35 36 37 38 39 39 38 36 32 27 24 17 16 15 15 13 12 12 12 11 11 11 11 10 11 13
37 36 35 29 29 28 27 27 29 30 30 33 35 33 34 35 35 35 37 37 37 38 39 40 38 33 28 24 18 16 14 15 13 11 10 9 9 9 10 10 10 10 12 15
38 39 36 32 25 24 27 29 29 30 27 33 32 33 34 33 31 34 37 39 38 37 36 32 30 26 20 17 15 13 12 11 10 9 10 9 10 10 9 9 9 12 15 15
36 37 32 33 32 31 32 30 31 25 26 34 33 34 34 33 33 36 37 35 34 32 30 29 25 21 19 17 14 13 10 9 10 10 10 10 10 9 9 10 13 15 15 14
35 35 35 35 33 28 32 29 26 32 34 36 36 36 35 36 36 36 34 33 33 31 29 25 22 20 20 16 12 9 8 10 11 11 10 10 9 8 11 15 16 15 15 13
34 36 36 34 34 36 35 34 36 36 35 36 36 36 35 35 34 34 32 31 30 29 24 22 20 18 17 12 10 8 9 11 11 9 9 8 8 10 13 14 15 15 13 11
35 34 33 33 33 33 34 35 36 37 37 37 36 36 35 34 33 32 32 30 29 26 23 21 17 14 12 11 10 10 11 11 9 8 7 8 11 15 13 14 14 14 12 12
31 32 32 31 34 34 34 35 36 36 36 36 37 36 35 34 33 32 31 30 29 28 24 21 18 16 12 10 10 10 11 10 9 8 9 12 13 14 14 14 13 14 14 17
31 30 31 31 33 31 33 36 36 35 36 36 36 36 36 35 35 34 33 31 30 28 26 25 21 17 13 10 11 11 12 11 10 10 12 13 15 15 15 13 14 19 20 21

GFSCGP_sfc_dewp_024.txt.gz
Dewpoint
37 34 32 33 36 36 33 32 33 35 37 38 38 37 38 40 40 39 38 36 33 37 40 41 44 48 52 53 54 55 56 51 48 47 44 43 41 37 34 32 31 31 30 30
36 33 33 34 35 37 36 34 32 34 34 36 37 38 39 39 39 39 39 38 33 39 40 43 47 51 53 54 54 55 56 52 50 47 45 42 40 38 35 31 27 27 27 27
32 31 33 34 34 34 35 35 32 32 34 33 32 31 36 38 40 39 39 38 36 39 40 43 48 49 50 51 51 51 50 48 46 43 41 40 38 38 35 31 28 25 24 26
33 34 32 33 32 34 31 35 35 34 32 28 36 28 32 36 37 38 38 37 37 40 41 43 47 47 48 48 48 48 47 45 44 43 40 37 36 35 36 33 27 23 22 23
33 33 33 31 31 32 31 33 31 33 33 32 30 31 31 35 35 37 37 36 36 40 41 44 46 46 46 45 45 45 45 45 44 43 40 39 36 36 34 29 24 20 20 21
33 35 33 31 31 33 35 33 32 32 32 27 25 30 29 34 35 35 37 34 36 39 41 44 45 44 42 41 40 41 41 40 40 39 37 35 32 29 27 25 25 23 22 22
35 36 36 37 32 33 32 31 24 24 23 20 23 27 27 34 36 34 34 34 37 39 42 44 43 41 39 38 37 37 37 35 34 33 31 28 25 22 21 21 20 18 17 18
29 26 35 36 32 31 32 30 23 15 18 16 31 28 30 35 34 34 35 35 38 40 43 43 42 41 38 36 35 34 32 30 29 27 24 22 22 23 21 18 17 16 15 15
29 28 33 33 34 32 32 30 29 24 27 27 30 33 35 37 31 33 34 36 38 41 43 43 42 40 37 35 33 31 29 27 25 23 21 20 19 19 17 15 15 15 13 11
29 23 31 32 35 35 32 32 28 29 19 18 28 30 29 31 31 34 35 36 40 42 43 42 41 39 37 34 32 29 27 24 22 19 18 17 16 14 13 12 10 10 10 11
32 29 30 34 33 29 34 32 32 27 27 23 22 29 31 29 31 34 37 38 40 42 43 42 41 39 36 33 30 28 25 22 18 17 15 15 14 12 11 10 9 9 10 11
32 34 27 26 31 35 36 32 32 25 22 32 31 27 29 29 33 35 37 38 40 42 43 42 41 38 34 31 29 26 24 21 18 16 15 15 13 11 10 10 10 11 10 11
37 33 27 27 32 35 34 33 36 32 33 26 30 28 31 31 32 36 36 38 40 41 42 42 40 37 34 31 27 25 23 20 18 17 16 14 13 11 11 11 11 12 12 12
39 36 31 27 34 37 33 34 34 35 31 27 29 31 28 29 30 35 37 38 39 41 41 40 39 36 33 29 26 24 21 18 18 17 16 14 12 12 12 13 13 13 13 13
38 33 35 35 34 36 37 34 35 32 34 32 33 32 33 29 29 35 37 38 39 40 40 39 38 36 32 29 26 23 19 18 18 17 16 15 14 13 14 14 13 14 14 14
38 32 33 32 36 37 36 38 36 36 34 35 36 34 30 31 32 36 37 38 38 39 40 39 38 36 32 29 25 21 18 18 18 17 17 16 14 13 14 13 13 12 14 13
37 34 34 34 37 37 36 38 34 34 38 36 35 31 31 32 31 36 37 38 38 39 39 38 37 36 33 29 23 19 17 18 17 16 15 14 13 12 13 11 11 12 11 13
33 33 36 33 36 24 27 34 39 38 37 36 35 32 31 32 34 35 36 38 38 39 39 38 37 36 32 26 21 17 16 16 16 15 13 13 13 11 11 10 10 10 11 13
36 35 34 33 30 28 26 27 31 35 34 32 36 33 34 35 34 35 38 38 39 39 40 38 37 32 27 22 17 15 15 15 14 12 11 10 9 9 9 9 9 9 12 14
37 38 36 30 26 24 27 29 29 30 27 33 32 34 34 34 31 33 38 38 38 38 37 34 30 26 21 17 15 14 13 12 11 11 11 10 10 9 8 9 9 12 14 14
36 35 32 30 32 31 33 31 31 25 25 33 34 34 34 31 33 36 34 32 32 31 28 26 24 20 17 15 14 13 11 10 11 11 10 10 10 9 8 10 13 14 14 14
35 34 34 33 29 24 33 29 26 29 36 36 35 36 36 36 35 34 33 31 29 27 24 22 20 17 15 14 12 10 9 10 11 11 11 10 9 8 12 14 15 15 13 12
33 36 35 34 32 34 35 35 36 35 36 36 36 36 36 35 34 33 32 29 26 24 22 21 19 15 13 11 9 9 9 11 11 9 9 8 9 12 13 14 15 14 13 12
35 36 36 35 34 35 34 36 36 36 36 36 36 36 35 33 33 31 30 27 24 22 20 19 16 13 11 10 10 10 11 11 9 8 7 10 12 16 14 14 14 14 14 14
36 33 32 32 33 34 35 36 36 36 36 36 35 35 34 32 31 30 29 27 24 22 20 17 14 12 11 11 10 11 11 10 8 8 10 12 14 15 14 14 14 16 16 18
31 32 32 33 33 31 32 36 36 36 36 36 35 34 34 33 32 31 29 28 24 22 20 18 16 12 11 11 11 11 12 10 9 10 12 14 16 15 14 14 14 20 20 21

GFSCGP_sfc_dewp_027.txt.gz
Dewpoint
37 33 31 33 36 35 35 32 31 34 36 35 35 36 38 39 39 39 40 40 40 38 37 41 42 45 50 51 51 49 54 49 48 46 44 42 39 35 33 31 30 29 29 29
35 32 33 33 33 34 35 34 32 33 34 33 33 32 33 33 34 39 39 40 40 37 39 41 43 49 52 52 54 55 51 49 48 46 43 40 37 33 30 29 26 26 26 26
32 30 33 33 32 32 33 32 29 30 31 33 32 29 26 28 33 38 40 40 39 38 38 41 45 50 51 52 53 53 50 48 45 42 38 35 32 30 28 26 25 24 24 25
35 35 32 31 31 33 29 33 34 33 33 27 32 23 25 28 30 33 37 40 39 37 38 41 48 49 51 51 51 49 48 44 42 41 38 36 33 30 32 28 24 22 22 22
32 34 33 30 31 33 30 33 34 34 31 29 28 27 25 29 28 32 38 39 39 38 40 43 48 49 50 49 48 47 45 44 42 40 38 36 35 33 30 24 20 19 20 20
32 36 35 33 32 33 34 32 33 33 31 24 24 26 21 19 24 34 37 38 38 38 40 44 47 46 45 45 45 45 44 43 41 39 37 35 32 28 25 24 23 21 20 21
36 36 36 36 32 32 33 32 25 23 23 19 22 23 23 23 31 35 35 36 37 38 42 45 45 44 43 43 42 42 42 39 37 36 34 32 29 26 24 23 22 18 17 17
29 28 35 37 32 31 32 31 25 16 16 17 21 22 21 26 26 25 26 32 36 39 43 45 45 43 42 40 40 40 38 34 32 30 27 24 23 24 22 20 18 16 15 15
29 25 35 36 34 34 34 30 31 26 23 23 26 26 30 25 34 35 34 35 37 39 43 45 43 40 39 37 36 36 33 29 27 24 22 21 20 19 18 15 15 15 14 12
30 23 30 33 35 36 33 31 28 30 18 14 15 21 28 27 25 24 28 35 37 40 43 43 41 38 36 34 31 30 29 26 23 20 19 18 16 15 14 13 11 11 10 11
32 29 26 34 33 30 33 31 31 28 24 15 15 13 16 27 28 28 34 37 39 42 42 41 39 37 34 31 29 26 24 21 19 18 16 15 14 12 10 10 10 10 11 11
33 32 26 26 32 31 31 29 30 24 21 23 22 21 29 30 30 33 37 40 43 43 42 40 38 35 32 30 27 24 21 19 17 16 14 14 13 11 10 10 10 11 10 12
35 32 26 28 31 34 33 34 33 30 29 23 20 17 31 28 34 35 39 41 43 42 41 39 36 34 31 28 25 22 19 17 16 16 14 13 12 11 11 11 12 12 12 13
37 35 31 24 29 34 31 33 34 33 28 25 24 22 21 22 31 37 39 42 43 42 41 39 36 34 30 27 24 21 19 17 17 16 14 13 12 12 12 13 13 13 13 14
37 32 34 34 32 32 34 35 33 32 31 29 25 24 25 29 37 38 39 40 41 41 41 39 36 33 29 26 23 20 18 18 17 16 16 15 14 14 14 14 14 14 14 13
39 32 32 31 33 35 34 35 35 32 32 33 33 32 31 36 35 36 38 39 40 41 40 39 37 33 29 26 23 19 18 18 17 17 17 16 15 14 14 13 13 13 12 13
36 34 33 29 37 35 32 34 36 35 35 35 33 34 36 33 33 36 38 38 39 40 40 39 36 33 29 26 21 18 17 18 17 17 16 15 14 13 13 12 11 11 11 13
37 35 35 32 35 28 36 40 38 38 37 37 37 37 38 34 35 37 38 38 39 40 40 38 37 34 29 24 20 18 18 17 17 16 14 14 14 12 12 10 9 9 11 13
38 35 34 33 31 30 26 34 37 36 37 38 37 39 35 36 35 36 38 39 39 40 39 38 37 32 25 21 18 17 16 16 15 13 13 11 10 10 9 9 8 10 12 14
39 38 35 33 28 24 27 29 29 36 28 33 39 37 35 34 30 33 37 39 39 39 38 35 30 26 22 18 16 15 14 14 12 12 11 11 11 9 8 8 10 12 14 14
34 37 34 32 31 30 33 34 31 24 25 33 34 34 35 32 34 35 33 32 34 34 31 28 26 23 18 16 15 14 12 12 12 12 11 11 10 9 9 12 14 14 13 13
33 33 32 31 28 22 32 29 26 28 35 36 35 35 36 34 33 32 30 29 29 27 24 22 19 16 15 15 14 12 11 11 12 12 11 10 9 11 14 15 15 14 13 12
32 35 33 32 31 34 35 35 37 35 35 35 35 37 35 33 32 30 27 25 24 23 21 19 17 14 13 13 12 10 10 12 11 10 9 9 12 13 14 14 14 14 14 14
34 36 35 35 33 34 35 36 36 36 35 36 36 36 35 32 30 27 25 24 22 21 19 17 15 13 11 11 11 10 11 11 9 7 10 12 15 15 14 14 14 15 15 15
36 35 34 33 33 34 35 36 36 36 36 35 35 35 33 32 30 27 25 23 21 19 18 16 14 12 11 10 11 11 11 9 7 10 11 14 15 15 14 13 14 17 17 18
32 34 33 33 34 32 32 36 36 36 35 34 33 33 33 32 30 27 25 23 20 18 17 15 13 12 11 10 11 11 11 9 10 11 12 16 16 15 14 14 15 19 20 21

GFSCGP_sfc_dewp_030.txt.gz
Dewpoint
37 34 33 35 35 33 33 34 33 33 35 34 33 33 33 33 37 38 39 40 40 41 41 39 39 42 45 48 49 53 56 52 50 47 45 44 40 36 34 32 31 30 29 29
34 32 33 33 33 34 34 33 30 32 33 33 32 31 31 32 33 35 38 39 40 41 39 39 41 45 49 50 50 53 51 50 50 48 43 41 37 33 30 29 27 27 26 26
31 30 34 33 32 31 31 30 29 28 29 31 30 28 24 24 28 30 31 33 38 40 40 39 41 46 50 51 52 52 50 48 46 41 37 32 30 28 27 25 26 25 24 25
34 35 33 32 31 32 29 32 32 31 31 25 31 22 23 25 25 26 28 32 38 40 39 39 41 47 50 51 52 51 48 45 42 40 38 35 34 29 28 25 23 22 22 22
32 33 33 32 31 32 30 33 32 33 32 30 29 27 23 24 23 24 30 35 37 39 40 39 42 46 50 51 50 48 45 43 41 40 38 36 33 29 25 22 19 19 19 20
33 36 35 32 32 32 34 33 33 35 32 25 25 25 20 19 19 19 30 32 37 39 39 39 43 49 49 49 47 45 44 42 40 39 37 35 28 23 21 21 20 20 20 20
35 36 36 36 32 33 35 34 25 23 24 19 23 24 22 20 21 26 27 33 37 39 39 44 46 48 47 47 46 45 43 40 39 37 35 30 26 25 20 20 19 17 17 17
29 22 34 36 32 30 31 31 25 17 16 16 21 20 19 23 24 24 25 29 34 37 40 44 46 48 47 47 45 44 42 38 36 34 30 27 25 25 23 21 18 17 16 15
29 25 34 35 35 31 34 30 31 28 28 24 23 24 26 27 25 30 30 27 26 33 41 44 47 47 46 45 44 42 38 34 31 28 25 23 22 21 19 16 16 16 14 12
31 26 30 33 36 35 34 34 28 29 19 17 18 17 17 20 16 19 24 23 32 37 42 45 46 44 43 41 38 36 34 30 25 23 21 19 17 15 14 14 13 11 11 12
33 31 26 33 32 29 33 32 33 29 27 15 12 12 14 13 15 25 32 27 31 39 43 44 42 39 36 34 34 30 26 24 21 19 17 15 14 12 11 10 11 11 12 12
32 33 27 26 31 32 31 30 29 23 21 23 19 15 21 26 31 34 36 36 38 41 43 41 37 35 33 30 29 26 23 20 18 16 14 13 12 10 10 10 11 11 12 13
33 32 24 25 30 30 32 32 30 29 26 22 18 15 19 20 23 35 38 40 42 41 39 36 35 33 30 27 24 22 19 17 16 15 13 12 12 11 11 11 12 12 13 14
36 34 28 23 26 33 31 31 34 32 27 24 26 21 22 24 25 30 38 41 42 41 39 37 34 31 28 25 22 19 17 16 15 14 13 12 12 12 12 13 13 14 14 13
36 32 33 33 32 33 34 34 33 31 30 28 25 24 24 25 30 35 39 42 43 42 39 36 33 30 26 23 20 17 16 16 15 14 14 14 14 15 15 14 14 14 14 14
39 32 33 31 33 34 32 34 35 34 33 33 30 30 34 35 38 37 38 42 43 42 39 36 32 29 25 22 19 17 17 16 16 16 16 16 16 15 15 14 13 13 14 14
36 33 32 28 33 34 32 34 35 35 36 34 31 31 33 37 39 37 40 42 43 41 39 36 32 29 25 22 19 17 17 17 17 16 16 16 15 14 14 12 12 12 12 13
36 35 34 30 34 28 36 41 39 36 36 34 34 34 37 38 38 37 38 40 40 41 39 36 33 29 25 21 19 18 17 17 17 16 15 15 15 13 12 10 10 10 12 13
38 37 33 32 31 33 32 38 36 35 34 37 36 36 36 38 36 36 38 39 40 41 39 37 33 28 23 20 18 17 17 17 16 14 14 12 12 11 10 10 10 11 13 14
37 37 36 33 29 27 28 32 37 38 29 37 37 37 37 38 36 34 38 39 40 39 38 34 29 25 21 18 18 17 16 15 13 13 12 11 12 10 9 10 12 13 14 13
36 36 34 33 31 30 33 34 32 25 26 33 39 39 39 37 37 36 35 35 36 36 32 29 26 23 19 17 17 15 14 13 13 12 12 12 10 9 11 13 14 13 12 12
32 34 32 32 30 22 33 31 27 29 34 35 35 35 36 34 33 32 31 31 31 30 27 24 20 17 17 17 15 14 13 13 12 12 11 9 11 13 14 15 14 13 13 13
31 33 31 32 31 33 35 35 36 35 35 34 34 36 34 32 30 28 26 25 24 23 21 19 17 15 15 15 14 12 11 12 11 9 9 12 13 13 14 14 14 14 14 15
33 35 34 34 33 34 35 36 36 36 36 36 36 35 33 29 26 25 24 23 21 20 18 17 16 14 12 12 11 11 11 10 9 9 12 15 16 14 14 13 14 16 16 16
35 36 34 34 34 34 34 35 35 35 35 35 34 33 30 28 26 24 22 21 19 18 18 17 14 13 11 11 11 10 10 9 9 11 13 14 15 14 14 14 14 17 18 18
33 35 34 33 35 33 33 36 36 35 34 34 33 32 31 28 26 24 21 20 18 17 16 14 13 11 11 10 10 10 10 11 11 12 15 18 14 14 14 15 15 19 20 21

GFSCGP_sfc_dewp_033.txt.gz
Dewpoint
37 35 33 35 35 33 33 33 31 33 34 34 32 32 33 34 34 34 34 35 36 40 41 42 43 42 42 45 48 51 58 60 57 54 52 50 49 47 39 37 33 32 31 30
35 32 33 34 36 35 34 33 29 29 31 32 31 30 30 31 31 32 32 33 35 36 40 42 42 42 43 46 49 53 58 56 55 55 51 49 49 42 38 33 30 29 29 28
32 31 34 33 32 32 32 31 30 29 30 30 29 26 22 23 26 28 31 32 33 35 38 40 41 42 46 48 51 53 54 53 52 45 42 39 39 37 35 29 28 27 26 25
34 35 33 33 32 32 29 32 31 30 30 25 30 19 19 22 23 24 26 29 31 32 35 38 41 42 46 50 53 53 52 49 46 44 43 42 45 41 37 27 25 24 23 24
30 34 34 32 31 32 30 32 31 31 31 29 28 25 22 24 23 24 25 26 29 33 35 38 41 43 46 51 53 52 50 47 44 44 44 45 45 37 27 23 21 20 21 22
32 35 34 33 34 33 33 32 32 33 31 26 25 26 22 21 20 21 24 24 30 34 36 39 42 44 48 52 52 50 48 44 43 43 41 40 39 24 22 21 20 19 20 20
34 35 36 35 32 33 33 34 25 24 24 21 23 26 23 23 24 24 23 25 26 32 37 40 43 46 49 51 50 48 46 43 41 40 38 33 29 23 21 20 19 18 16 17
28 23 34 36 33 31 32 31 25 18 17 17 21 22 21 24 25 24 24 25 29 33 38 40 43 47 49 51 49 47 44 41 40 38 33 29 25 25 22 20 19 17 16 15
29 25 33 35 35 32 33 30 31 27 26 25 23 21 22 24 25 25 26 29 30 29 33 40 44 47 49 49 48 46 43 40 38 33 28 26 24 23 21 19 18 17 15 13
31 24 28 33 36 35 34 33 28 29 20 17 20 20 18 19 18 17 20 32 33 31 33 40 45 47 48 49 46 43 40 36 33 29 26 23 21 20 18 16 15 15 13 14
32 30 26 34 32 28 32 31 33 30 28 20 14 14 17 16 16 19 32 35 37 36 33 41 46 46 45 42 41 37 33 30 27 24 20 19 17 15 14 12 13 13 13 15
33 32 27 26 30 32 30 29 30 27 22 26 24 19 20 20 25 32 28 38 41 41 41 44 42 39 39 37 35 33 29 25 22 19 17 15 14 13 11 11 12 12 14 15
32 31 25 21 29 30 31 30 30 32 30 26 22 17 20 21 23 26 33 39 42 41 38 37 37 37 36 33 30 27 23 20 17 16 14 13 12 12 11 11 12 13 14 15
35 32 26 21 23 32 30 31 32 32 27 25 26 22 22 23 24 26 32 39 42 40 37 36 35 33 31 28 25 21 18 17 15 14 14 13 12 12 12 13 14 14 14 14
35 32 31 31 30 31 33 32 33 31 30 27 25 29 28 28 28 32 37 39 42 40 37 35 32 29 26 23 21 19 17 15 14 14 15 14 14 14 14 15 15 14 15 15
36 33 33 31 33 33 32 34 34 33 33 32 32 31 31 30 36 37 39 39 42 41 37 33 30 27 24 21 19 18 16 16 16 16 16 16 15 15 15 15 14 15 16 15
37 34 32 28 31 33 32 36 37 35 35 32 31 30 32 32 34 38 38 41 43 43 36 32 29 26 22 20 18 17 16 16 16 16 15 15 14 14 14 13 13 15 14 14
35 34 34 30 33 27 37 41 38 37 37 36 35 35 34 34 37 40 38 40 44 41 36 32 29 25 22 19 18 17 17 17 17 16 15 15 14 13 12 11 12 13 13 14
36 35 33 31 30 30 30 32 36 37 35 37 37 36 35 40 38 36 38 41 42 40 36 32 29 24 21 18 17 17 17 17 16 14 14 12 12 10 10 12 12 13 13 13
38 37 36 32 29 26 30 33 36 37 29 38 38 37 38 39 37 35 37 40 40 38 34 30 26 22 20 18 18 17 17 15 14 13 12 12 11 10 11 13 13 14 13 12
35 35 32 32 32 29 32 34 35 24 28 36 40 39 39 40 37 36 36 36 37 35 31 27 25 22 19 18 17 16 15 14 13 12 11 11 11 11 13 14 13 13 12 12
33 33 34 33 30 25 34 32 29 31 34 35 35 39 41 36 32 32 32 32 32 30 27 23 21 19 18 18 16 15 13 12 12 12 11 12 14 13 15 15 14 13 13 13
31 34 31 31 31 34 36 34 36 36 35 35 35 36 35 33 30 28 27 26 25 24 22 20 18 17 16 16 15 12 12 12 10 10 13 13 13 14 14 14 14 14 15 15
32 35 35 35 34 35 34 35 35 36 36 35 35 33 32 28 27 25 24 23 22 21 19 18 16 14 13 12 12 11 11 10 10 13 15 14 14 14 13 13 14 16 16 16
34 35 35 34 35 35 34 35 35 35 35 33 31 29 28 27 25 23 21 21 20 19 18 17 15 13 12 11 10 10 10 11 11 13 14 15 14 14 14 14 15 17 18 19
34 35 34 33 35 33 33 36 36 35 34 32 30 29 28 26 24 22 20 19 18 16 15 14 13 11 10 9 9 10 12 12 13 15 16 15 14 14 14 15 15 19 19 21

GFSCGP_sfc_dewp_036.txt.gz
Dewpoint
38 36 33 31 32 31 31 30 29 30 31 30 30 29 30 31 31 31 31 32 32 34 36 38 41 42 44 44 44 44 47 51 56 58 60 62 61 60 57 53 49 43 39 35
35 33 32 32 33 33 32 30 30 29 30 29 28 26 25 26 26 27 27 26 26 27 29 32 37 40 42 43 44 46 49 53 57 59 58 58 57 55 51 46 41 40 36 30
32 30 32 33 32 32 32 30 28 28 28 28 26 24 22 20 21 23 25 26 26 26 25 26 30 38 41 43 45 47 51 56 58 57 57 53 47 43 40 36 36 34 30 28
33 32 31 32 31 31 27 28 29 27 27 24 28 20 22 22 22 22 22 23 26 28 29 29 30 33 38 43 48 50 53 56 57 56 52 50 51 48 46 39 37 34 32 30
31 33 34 31 30 31 29 30 29 29 28 27 27 27 21 23 22 22 23 23 24 27 28 29 32 34 37 44 50 52 54 55 54 53 53 53 52 47 42 37 30 27 25 25
30 34 33 31 32 32 32 31 30 30 30 26 23 26 20 18 19 21 21 21 22 23 27 30 32 35 37 44 52 53 53 53 52 53 52 54 50 43 36 27 26 26 26 24
32 32 34 34 31 33 32 33 26 25 25 21 19 20 22 19 21 22 21 21 23 24 25 29 35 38 41 44 52 53 52 51 51 51 52 51 45 42 36 27 24 21 21 21
30 27 32 36 33 29 32 31 26 18 13 15 21 19 17 19 22 22 22 24 25 26 29 29 35 41 43 46 51 52 51 49 49 50 49 45 40 32 26 25 22 23 20 19
30 27 31 34 33 32 32 31 30 28 26 24 19 16 18 19 20 21 21 23 27 29 29 32 32 39 44 47 50 51 50 48 48 47 41 33 30 26 27 22 25 20 19 16
31 30 28 32 35 34 32 30 28 30 19 15 15 15 15 17 18 20 19 23 28 30 31 35 34 37 43 47 50 51 48 46 45 42 37 30 26 25 23 23 20 18 16 16
32 29 27 32 31 29 31 32 33 27 25 20 14 13 14 15 16 17 16 26 28 34 36 38 37 40 46 48 50 48 46 43 40 37 33 27 22 21 25 20 19 17 15 16
31 30 27 26 26 28 27 27 28 27 23 27 25 21 21 19 19 24 25 24 30 37 40 42 41 44 47 48 47 45 42 39 36 31 27 22 19 18 18 18 16 14 14 15
32 31 27 23 30 29 31 28 27 31 30 28 25 20 24 22 21 23 23 25 29 38 41 41 41 42 44 44 43 41 36 31 28 26 20 18 17 18 16 15 14 14 14 14
35 30 27 22 26 32 32 31 32 33 29 26 27 25 23 26 26 25 26 28 34 40 40 40 40 41 42 42 39 33 26 22 21 18 17 17 18 17 15 14 14 14 14 14
33 32 31 30 29 30 32 33 34 32 32 28 26 27 30 30 32 30 30 35 38 41 39 39 38 39 38 34 27 23 20 18 17 17 18 18 17 16 15 15 15 14 15 15
35 33 35 32 31 32 33 35 36 35 35 33 33 32 31 31 32 31 30 33 39 41 40 37 36 36 31 26 22 19 17 16 17 19 19 18 16 15 16 15 15 16 17 16
34 34 33 30 32 32 34 37 37 37 37 34 32 31 30 31 32 34 38 40 40 41 39 36 34 31 27 22 20 18 16 18 18 18 17 16 15 15 15 14 15 17 16 16
35 35 34 31 33 28 34 37 38 37 36 37 33 32 33 36 37 39 40 39 40 42 38 35 31 26 23 21 19 17 18 19 18 17 16 15 14 14 13 13 15 15 15 15
35 34 33 31 30 30 31 32 32 36 37 39 37 36 37 38 39 38 39 42 44 40 36 33 28 25 23 20 18 19 18 18 17 16 14 13 12 11 11 13 14 14 14 14
36 36 34 34 29 26 29 33 35 38 35 40 41 39 39 40 37 36 39 42 38 36 33 30 26 24 22 20 19 19 18 17 15 14 13 11 11 10 12 15 15 14 13 12
36 35 32 33 31 31 31 35 36 26 28 36 40 41 40 40 36 36 39 39 39 34 30 27 25 22 20 19 18 17 17 15 14 13 11 11 11 12 14 15 14 14 13 12
32 32 34 35 32 28 34 36 32 34 36 35 36 39 42 36 34 35 35 34 32 30 27 23 21 19 18 18 18 17 15 13 12 11 11 12 13 13 16 18 17 15 14 12
32 33 32 32 31 35 36 37 36 36 36 36 36 37 39 35 34 31 31 30 29 26 25 23 21 19 19 18 16 14 12 12 11 12 13 14 14 15 16 17 17 14 13 11
35 36 35 35 35 36 35 36 36 36 36 35 36 35 35 31 30 28 27 26 25 24 22 21 19 18 16 15 14 12 12 11 12 12 13 14 14 14 14 14 15 14 12 11
35 37 36 36 36 36 35 36 35 35 33 32 31 31 31 30 28 27 25 23 22 21 21 19 17 16 14 12 11 10 11 12 13 14 15 15 15 14 13 13 14 13 14 17
36 35 34 32 35 35 34 36 36 35 32 31 30 29 29 28 26 25 22 21 20 18 18 17 15 14 12 10 10 11 12 13 13 13 13 14 14 14 13 12 11 17 18 19

GFSCGP_sfc_dewp_039.txt.gz
Dewpoint
37 34 31 31 31 30 28 28 27 27 29 30 29 27 27 28 29 30 31 32 31 32 35 36 38 39 39 40 42 43 44 46 47 52 55 59 60 66 65 64 62 57 52 46
36 34 32 31 31 30 31 29 28 28 28 28 27 25 25 25 26 26 26 27 28 29 29 31 34 37 39 40 42 43 44 46 49 53 57 59 61 61 60 59 56 52 48 42
33 30 31 31 31 31 30 28 27 26 27 27 25 24 22 23 23 24 25 25 25 26 25 25 26 31 38 39 42 44 45 48 52 55 58 60 54 50 47 48 49 47 43 37
32 31 29 30 30 29 27 27 27 26 27 24 27 21 22 21 21 22 22 22 23 25 25 26 26 27 30 39 46 47 47 50 54 58 58 58 53 50 47 46 46 43 38 35
31 31 31 30 29 28 27 30 28 28 27 27 26 25 22 18 19 21 22 23 24 25 25 25 28 32 33 37 46 50 49 51 56 57 58 56 52 52 45 41 39 37 35 34
31 32 32 31 30 30 31 29 29 29 29 26 23 23 19 15 12 14 18 21 22 21 23 24 28 30 33 39 46 52 51 53 56 58 55 54 55 47 41 37 35 35 36 34
32 30 31 32 30 32 31 30 27 26 25 21 17 17 19 18 18 19 20 20 22 21 23 23 24 29 33 39 43 50 51 53 55 54 54 53 54 46 42 37 36 34 29 31
28 29 30 33 32 29 29 30 26 18 12 15 18 18 16 17 17 19 20 21 21 23 23 28 30 32 37 40 42 48 51 52 52 53 53 55 49 46 43 38 35 29 29 26
29 28 30 33 32 30 30 30 29 26 24 22 17 15 18 18 18 18 18 20 22 22 26 28 30 33 32 40 43 49 51 51 51 52 53 51 46 44 40 37 28 26 26 22
31 29 28 31 32 32 30 30 27 31 21 17 14 14 14 16 16 17 18 19 22 26 27 31 34 37 32 39 44 49 49 49 50 51 50 46 39 33 28 26 25 26 21 21
32 29 28 30 31 28 30 30 30 26 25 21 16 16 17 19 21 20 17 17 23 26 31 34 37 40 36 40 46 48 49 48 49 46 39 35 31 27 24 24 23 21 22 19
31 31 28 25 26 27 27 28 27 27 22 25 27 23 24 24 23 23 24 25 24 26 28 38 40 41 40 45 49 49 48 47 46 40 34 30 26 24 23 21 21 24 19 20
31 31 26 26 28 27 29 27 27 29 32 29 26 23 24 24 25 28 28 27 24 27 30 40 40 42 44 48 48 47 45 43 39 35 29 26 25 24 22 22 24 20 17 15
35 30 28 23 29 30 34 29 30 34 30 27 27 26 27 27 29 33 30 30 30 30 36 40 41 41 43 45 45 43 40 36 34 30 25 23 21 20 19 18 20 18 16 16
32 31 29 28 28 29 32 32 33 34 34 30 30 30 32 32 31 34 36 34 32 32 37 40 40 41 42 42 41 35 32 32 28 25 22 21 19 19 19 19 18 17 17 16
35 31 35 31 30 31 34 32 34 37 37 36 35 34 35 32 32 32 33 32 31 37 41 40 39 40 40 34 31 27 25 21 21 21 21 20 20 19 21 18 17 18 19 16
34 34 32 28 30 30 32 37 38 37 37 37 32 32 32 32 33 37 39 40 40 40 41 38 38 37 30 25 23 20 19 20 20 20 20 18 19 20 19 18 18 20 17 17
33 34 33 32 31 28 32 34 35 35 38 39 36 35 35 36 38 40 40 41 40 41 38 37 34 29 24 22 19 19 22 23 20 19 18 18 18 16 17 17 17 16 16 17
34 33 34 29 27 28 29 32 32 34 37 40 39 40 39 40 41 40 42 42 42 39 36 32 27 23 21 20 22 21 21 21 21 19 20 18 15 15 15 16 15 16 16 15
33 34 35 30 28 24 28 32 35 39 33 40 40 40 41 41 37 38 43 39 37 33 29 27 25 23 25 28 25 27 28 27 25 21 16 14 14 14 15 17 17 15 14 13
34 35 32 32 30 29 31 33 35 28 30 36 41 41 41 37 36 38 41 38 37 34 34 33 32 31 32 31 30 25 22 17 16 14 13 13 14 15 16 16 15 15 13 13
32 33 33 34 32 29 34 35 33 35 36 35 38 41 37 36 36 36 35 36 33 29 27 25 23 22 21 20 19 17 15 14 13 13 13 14 15 15 18 22 20 17 14 13
31 31 37 36 33 35 36 37 37 37 36 37 37 42 40 38 35 35 35 32 30 26 24 22 21 21 21 20 18 15 14 13 14 14 14 15 16 17 20 21 21 17 13 11
34 35 34 35 35 35 36 37 36 36 35 35 37 37 38 34 33 31 30 30 28 27 24 22 20 17 15 14 14 12 13 14 14 14 14 15 15 14 14 15 17 15 11 9
35 36 34 35 35 35 36 36 36 34 33 32 33 34 34 32 31 29 27 26 25 24 23 22 19 16 14 12 12 12 14 14 14 14 15 16 15 14 14 14 13 11 12 16
35 34 31 30 36 35 35 36 36 34 32 32 32 32 32 31 29 28 25 24 23 21 21 19 17 14 12 11 12 14 16 16 15 14 14 15 14 14 13 11 10 20 17 17

GFSCGP_sfc_dewp_042.txt.gz
Dewpoint
41 39 36 37 38 36 32 28 27 28 29 28 29 28 29 29 28 29 30 30 32 33 35 35 37 38 38 37 39 44 46 45 45 48 55 59 60 63 64 64 62 61 54 52
36 33 33 33 31 31 29 28 28 29 28 27 26 26 27 27 26 26 27 28 29 31 32 32 34 37 38 39 39 40 44 46 46 47 52 57 61 60 62 63 61 56 54 49
33 31 33 33 31 30 30 29 28 27 27 27 26 24 24 24 25 25 26 25 26 26 27 29 29 31 36 37 39 40 42 44 47 50 57 56 53 51 50 52 52 50 48 47
34 33 29 31 30 30 28 29 28 27 27 24 27 23 23 23 22 22 23 24 25 25 26 26 26 27 29 33 38 40 43 45 48 52 57 56 57 55 50 50 50 47 46 45
32 31 31 30 29 29 28 31 29 29 28 27 26 24 23 21 20 20 22 23 24 25 26 26 27 28 30 31 39 42 43 46 49 53 57 57 54 49 48 44 41 43 43 41
31 32 32 31 30 30 32 29 30 29 28 23 25 24 23 17 17 17 19 22 24 22 23 24 25 28 32 34 36 44 47 47 54 56 58 55 51 46 44 41 40 40 39 39
31 31 31 32 31 32 30 30 21 23 23 19 19 23 21 18 18 19 19 20 21 23 21 25 25 28 32 32 38 40 49 48 55 57 56 53 51 45 42 40 39 36 36 35
27 26 30 32 31 29 29 30 22 17 18 20 22 19 17 20 20 19 20 20 22 22 23 24 29 31 34 36 38 39 49 51 55 56 53 53 45 43 40 39 37 36 33 33
28 29 31 32 32 32 30 28 29 26 23 18 19 14 15 17 17 18 19 20 22 22 23 27 30 33 36 36 40 40 50 51 54 54 53 49 45 41 39 37 37 36 34 29
33 28 29 32 31 31 30 30 27 26 11 15 16 16 16 18 23 25 22 20 21 24 26 29 35 38 40 40 40 42 49 51 52 53 51 46 44 40 38 35 32 28 25 24
31 30 28 31 31 29 29 29 29 27 26 18 18 17 21 24 26 26 27 24 25 25 27 30 38 39 42 41 42 45 50 51 51 51 46 35 30 30 31 28 25 22 25 22
30 32 28 27 29 30 30 29 27 24 20 25 24 22 25 24 24 26 26 26 26 25 27 30 40 40 42 41 45 47 49 49 43 39 33 31 27 24 24 25 24 23 23 26
32 31 21 25 28 27 27 28 29 29 30 26 24 21 24 25 27 29 29 29 29 30 30 37 40 40 42 45 49 49 48 40 35 31 28 26 26 27 28 22 24 22 21 19
35 31 27 23 26 30 27 29 28 31 28 26 26 25 27 30 34 36 36 34 35 32 34 38 40 41 41 48 48 44 38 34 30 27 26 25 26 26 22 21 22 20 18 18
32 29 29 29 28 28 29 30 31 33 34 30 31 32 34 37 37 36 34 35 35 35 35 39 40 41 43 45 40 36 34 29 26 25 25 24 23 21 21 21 20 22 20 17
33 30 31 26 29 29 29 31 32 32 34 36 37 36 36 35 33 37 41 39 39 38 41 40 40 41 40 34 31 30 29 27 24 22 22 21 20 19 19 19 19 20 19 17
33 32 31 27 31 31 29 33 35 37 38 37 34 36 36 36 37 40 42 42 42 41 41 39 39 31 27 26 25 22 21 22 22 22 22 22 23 22 23 23 24 24 18 18
32 34 33 29 30 23 33 38 36 34 35 39 39 39 40 40 41 41 42 41 43 41 39 37 31 26 23 22 20 20 21 21 21 22 21 20 20 20 20 20 19 18 18 17
35 35 32 29 26 26 29 33 33 32 34 40 39 39 41 41 42 39 39 35 35 35 32 28 24 22 20 20 22 21 21 20 22 21 23 22 20 20 20 21 17 17 16 15
34 34 34 31 25 23 28 33 37 39 33 38 40 40 42 37 37 37 38 32 29 25 23 22 21 23 23 23 24 25 26 27 29 29 31 31 32 31 24 17 16 16 15 13
34 35 32 31 30 28 31 35 37 30 31 37 40 41 37 36 39 40 38 36 35 32 29 29 31 33 34 35 35 33 33 33 33 33 32 27 20 17 16 17 17 15 14 13
32 33 32 30 29 25 35 36 34 36 37 36 41 42 38 37 35 37 36 36 37 37 37 37 36 37 38 38 35 32 32 32 27 18 16 16 17 17 20 21 18 15 14 13
30 32 34 33 31 35 37 37 37 36 36 36 38 42 40 38 37 34 33 31 24 21 22 25 27 26 22 19 16 13 13 15 16 15 17 18 19 20 22 21 19 15 13 11
34 35 34 35 36 36 36 37 36 35 34 35 37 42 38 36 35 34 33 32 31 31 29 25 22 19 16 15 14 14 15 16 15 15 15 16 16 15 15 16 18 14 13 12
36 36 35 34 35 36 36 36 35 34 33 33 34 37 34 33 32 29 27 26 24 23 21 18 15 14 13 13 13 14 15 15 15 16 16 16 16 15 15 14 14 12 18 17
36 35 33 31 35 35 35 36 36 33 32 33 33 33 32 30 28 26 25 24 22 20 18 16 14 13 13 14 15 17 17 16 15 15 15 16 15 14 13 11 12 19 16 16

GFSCGP_sfc_dewp_045.txt.gz
Dewpoint
46 39 37 38 39 37 35 32 28 29 30 28 29 30 30 31 31 31 31 31 31 33 35 36 36 36 34 35 38 43 46 57 60 61 62 62 61 62 62 62 59 61 57 53
36 34 37 39 39 38 35 29 28 29 29 27 26 26 26 27 28 28 28 29 30 31 32 33 34 35 37 38 38 38 45 47 53 56 60 62 62 61 62 63 62 59 54 52
33 31 34 34 33 30 30 29 29 28 28 27 26 25 25 26 26 27 27 27 28 29 30 31 31 32 33 36 38 39 40 45 46 47 56 55 56 56 56 58 57 53 51 49
34 34 31 32 32 30 29 30 29 28 27 23 27 22 25 24 22 23 25 26 26 27 27 28 28 29 30 31 37 39 41 43 47 52 55 57 58 59 55 54 50 49 48 48
32 32 31 29 31 31 30 32 29 29 27 26 26 23 24 25 21 21 21 23 25 26 26 26 27 27 28 28 31 37 40 42 46 49 54 56 58 53 51 50 47 48 47 45
32 33 32 32 31 31 32 30 29 29 27 21 24 23 20 20 18 19 19 21 23 24 24 26 27 29 30 31 32 37 41 42 44 49 56 56 53 50 48 46 45 45 45 43
31 31 32 32 31 31 33 28 17 24 24 18 23 24 23 22 21 19 19 19 22 22 22 22 23 28 31 32 32 35 39 43 47 52 57 55 52 51 49 46 46 42 40 40
23 21 31 32 31 30 29 28 20 17 18 20 23 22 20 22 23 22 20 20 21 21 22 24 26 31 35 37 37 36 37 43 51 56 55 52 49 49 48 46 44 43 40 39
26 26 32 31 32 31 29 28 29 26 21 14 19 17 18 19 25 23 21 22 23 22 22 24 35 37 38 39 40 40 39 48 55 55 52 47 47 47 45 44 42 42 38 36
33 28 31 33 33 33 28 30 23 21 7 14 18 17 16 19 23 26 26 26 25 26 26 32 37 38 39 40 42 42 41 49 54 53 48 45 45 44 41 40 38 33 31 29
32 29 30 32 30 29 30 31 29 26 24 16 18 19 20 22 25 24 26 28 29 27 25 28 38 40 40 41 42 41 44 51 53 49 45 43 42 39 38 37 33 30 27 26
32 31 29 27 30 31 30 28 26 18 17 23 19 22 24 25 26 27 30 33 31 29 29 37 40 40 40 41 43 45 49 50 45 40 37 36 35 33 31 31 28 25 24 24
32 31 17 26 27 30 29 29 29 28 29 19 19 21 24 25 27 32 37 38 37 35 31 37 40 40 41 42 48 48 41 36 36 33 31 29 28 27 26 23 24 24 24 24
34 30 24 20 24 29 26 28 28 29 26 25 24 24 26 28 34 37 38 37 37 36 35 36 40 41 41 46 42 37 34 31 30 30 28 28 27 25 25 24 24 24 23 23
32 26 29 30 30 29 28 29 30 29 29 28 26 29 32 35 38 39 39 40 42 40 40 37 40 42 43 40 36 31 31 31 31 31 28 28 28 28 25 23 23 23 25 26
33 24 30 22 28 29 27 30 31 31 31 33 34 34 37 38 40 38 42 42 40 39 41 40 40 38 34 33 30 27 31 30 28 29 26 25 24 23 23 22 22 22 22 21
33 31 21 20 28 30 27 31 31 32 35 35 35 36 40 39 41 40 39 38 40 42 42 40 30 27 26 25 25 27 23 24 24 22 21 21 21 23 25 26 25 28 29 30
33 31 28 23 26 21 31 34 35 34 36 37 38 38 39 40 40 39 34 31 32 42 37 29 25 23 21 21 22 22 22 22 22 23 23 24 25 27 27 28 28 28 27 25
35 32 30 26 24 26 31 33 32 32 32 39 38 39 40 40 42 38 33 28 26 23 22 21 20 21 22 22 22 22 22 24 26 26 29 30 30 30 30 31 32 32 31 25
36 36 33 31 23 23 31 33 36 36 30 37 39 40 40 38 36 37 35 30 24 22 23 23 22 23 22 24 26 27 28 29 29 30 32 31 32 32 31 30 24 19 17 15
33 35 31 30 29 28 30 32 39 29 29 36 39 42 37 37 38 38 35 34 32 31 31 30 32 31 31 32 32 32 33 33 34 34 35 35 34 33 31 26 19 17 16 14
32 32 32 33 29 24 32 35 33 35 37 36 39 40 37 37 36 35 36 36 35 34 34 34 34 34 35 36 35 34 33 34 34 34 32 30 27 23 21 21 19 15 14 11
31 33 32 30 29 31 36 37 36 36 36 36 38 40 39 36 34 30 30 28 35 35 35 35 34 34 34 35 35 33 33 32 27 22 20 20 20 20 20 19 17 14 12 12
34 36 35 35 36 37 36 35 35 34 34 34 40 39 38 37 34 32 29 28 27 27 25 25 23 23 19 15 15 18 18 19 18 17 17 17 17 16 16 16 16 14 13 12
34 35 34 34 35 35 36 36 34 33 33 33 36 38 37 36 34 32 31 29 28 25 21 18 15 14 14 15 15 16 16 16 16 16 17 16 16 15 14 13 14 17 17 16
36 35 34 33 34 35 35 36 35 32 33 33 33 33 33 30 28 27 25 24 21 18 17 16 15 15 14 15 16 17 18 17 15 15 15 16 14 13 11 10 10 19 19 18

GFSCGP_sfc_dewp_048.txt.gz
Dewpoint
46 42 39 41 40 35 33 33 30 29 30 28 27 28 29 30 31 32 32 32 31 32 34 36 35 35 35 35 35 40 53 59 62 64 63 63 62 62 62 60 58 59 57 55
42 36 39 41 40 39 36 33 30 29 30 27 27 26 27 27 27 28 28 29 29 31 31 33 35 36 36 36 36 35 43 53 60 62 63 64 63 62 62 62 60 60 57 55
35 32 36 35 36 35 30 29 29 29 29 27 27 22 22 25 26 26 27 28 29 29 30 30 31 33 34 34 36 38 39 46 57 60 61 58 58 58 58 60 60 60 57 56
34 34 33 34 32 30 28 30 30 29 26 23 27 20 25 25 25 24 23 26 28 28 28 29 30 31 31 32 34 36 39 41 47 51 58 60 59 59 59 61 57 54 53 55
32 33 31 30 31 31 29 31 29 29 27 24 25 23 22 24 22 20 21 20 23 27 27 28 28 29 30 30 31 33 37 40 43 48 54 58 59 60 56 53 52 52 52 52
31 33 32 31 31 31 32 28 29 29 25 16 22 23 20 19 20 19 19 19 21 24 25 26 27 28 28 30 31 31 33 36 42 46 52 56 57 53 53 51 50 49 49 49
31 31 31 33 30 31 30 25 15 15 14 16 24 24 23 24 24 22 22 21 21 22 22 22 24 27 30 33 35 34 35 36 39 44 51 53 56 54 53 51 50 47 46 44
26 22 30 31 30 29 28 25 17 12 18 19 23 20 20 24 24 20 21 24 26 26 23 22 26 31 36 38 38 38 39 38 39 43 53 55 55 54 53 51 49 48 46 44
24 25 32 31 32 30 28 22 27 21 19 14 19 19 15 22 25 26 26 28 28 29 28 27 33 36 37 37 38 39 41 41 41 47 54 51 52 51 49 47 46 45 45 42
30 24 31 32 33 33 28 29 22 17 5 12 17 18 15 17 23 25 27 28 29 31 32 30 33 38 38 38 39 41 42 41 42 52 49 49 49 48 47 46 46 44 43 37
31 26 31 32 29 28 30 29 27 24 21 14 17 17 21 20 24 27 28 31 36 38 35 33 29 38 40 40 41 43 44 43 51 48 46 45 45 45 45 45 43 41 36 32
32 30 26 29 30 31 30 28 26 18 15 20 18 21 24 24 25 27 27 35 38 38 36 33 36 40 40 40 42 47 47 49 48 46 44 43 42 43 43 40 39 34 32 33
31 28 19 25 27 30 28 29 28 26 27 16 20 20 24 25 26 27 35 38 38 38 38 36 36 40 40 41 47 44 42 41 40 39 39 40 39 40 39 37 31 29 27 25
35 28 22 20 21 27 22 28 29 26 22 21 22 23 25 26 29 35 38 39 40 41 41 40 39 38 40 44 39 36 36 40 35 38 38 36 33 30 28 27 26 25 24 26
31 26 28 29 29 29 28 27 28 24 27 25 25 27 29 32 34 38 40 41 42 42 41 40 40 39 41 36 34 33 36 38 39 36 34 30 27 26 26 26 25 26 27 27
31 23 31 22 27 29 26 29 29 29 29 30 29 30 32 34 40 39 39 37 36 37 42 42 33 32 31 29 30 31 34 35 36 34 32 31 27 24 25 26 29 29 29 29
32 30 24 19 27 29 25 29 30 30 31 31 30 32 37 38 40 38 35 31 31 33 40 32 26 23 24 27 28 29 31 29 30 29 29 26 25 25 27 28 29 30 31 32
33 31 24 20 24 18 28 33 33 31 31 34 36 37 38 40 39 35 30 27 27 25 24 22 21 22 23 25 26 28 31 31 31 30 30 30 31 32 32 33 33 33 33 33
33 31 24 25 23 26 30 33 32 32 32 37 36 37 40 39 41 37 33 24 23 23 22 22 23 23 22 22 23 25 26 28 30 30 31 32 33 32 32 33 33 33 32 31
35 34 30 30 23 22 27 31 35 34 29 37 37 38 41 38 38 37 34 27 26 24 24 24 23 24 24 25 27 27 29 30 31 33 34 34 34 34 33 33 32 32 30 26
33 34 30 29 28 28 29 31 39 28 29 36 38 40 37 38 38 37 34 32 32 32 32 31 31 31 31 31 31 32 33 33 34 34 34 35 34 33 33 32 30 27 23 16
29 29 31 31 29 24 30 35 33 35 36 36 38 38 38 37 36 36 36 34 33 33 33 34 33 34 35 36 34 33 32 34 34 34 34 33 33 33 31 27 22 16 13 11
30 31 31 32 29 30 33 36 37 36 35 36 37 38 38 37 33 30 32 35 34 34 35 35 34 33 34 36 35 33 33 34 33 32 32 30 26 22 19 18 16 12 12 12
34 35 34 33 34 33 34 36 35 34 34 34 38 39 37 35 31 29 29 29 32 35 35 35 34 29 29 30 33 32 32 31 27 20 19 18 17 17 15 15 16 13 11 11
34 35 34 35 35 36 36 36 35 33 33 33 40 39 38 35 32 29 27 27 25 24 22 19 16 16 16 18 18 18 18 17 16 17 17 17 15 13 13 14 16 15 15 14
35 35 34 34 35 35 36 36 35 32 32 34 36 36 36 36 33 32 29 27 22 19 17 17 16 16 16 16 17 18 18 17 16 15 15 15 13 12 11 11 13 21 19 17

GFSCGP_sfc_dewp_051.txt.gz
Dewpoint
47 42 39 39 38 35 34 33 31 31 31 28 28 28 28 29 29 30 32 33 34 34 34 34 35 36 36 36 36 38 49 59 62 64 65 64 64 64 63 63 61 59 57 56
42 38 41 44 43 40 37 34 32 31 31 28 27 27 28 28 28 28 28 29 29 30 31 32 34 35 36 36 35 35 40 54 61 63 63 63 63 64 63 63 61 59 58 57
36 35 43 41 40 39 36 30 29 29 29 27 27 23 23 24 26 26 27 28 29 29 29 29 30 32 33 35 36 37 37 42 57 62 63 59 59 58 59 59 60 59 59 58
32 33 37 34 35 32 28 30 30 28 26 23 27 20 23 23 25 26 25 24 26 28 29 29 30 31 32 33 34 35 37 39 45 56 61 61 60 60 60 61 61 58 57 58
32 32 32 32 32 31 30 31 29 29 26 23 25 23 21 22 20 20 20 21 22 23 26 28 29 30 31 32 32 33 34 36 40 48 59 61 61 59 59 60 60 53 54 56
31 34 32 30 32 31 32 28 28 28 24 16 22 22 18 18 19 18 22 22 24 24 25 25 25 27 28 29 30 30 30 31 37 43 51 58 60 55 55 54 57 53 52 53
31 31 31 32 30 31 29 25 15 14 15 16 24 23 22 23 25 25 23 25 27 29 30 30 25 25 30 31 32 33 34 33 35 39 46 53 56 55 56 56 56 53 51 50
28 26 30 31 30 29 28 25 17 11 16 19 23 21 19 24 23 22 26 28 30 33 33 32 30 33 35 37 37 38 37 38 38 38 42 49 54 56 56 55 54 53 53 53
23 25 32 31 32 30 28 22 26 20 18 15 19 19 13 24 25 26 28 29 31 34 35 35 32 34 37 37 37 37 39 39 40 40 43 49 53 53 54 53 51 50 48 47
27 25 31 32 33 33 28 29 22 18 3 10 13 17 13 17 22 26 27 28 31 37 38 38 35 32 35 38 39 40 41 42 42 42 47 50 50 50 49 47 46 46 45 44
30 27 31 31 30 29 29 27 26 23 20 12 15 13 21 19 24 26 27 28 35 38 39 39 38 36 36 40 40 40 44 45 45 47 47 46 45 45 45 45 45 44 42 42
31 28 28 29 30 30 30 27 25 18 15 19 17 19 24 25 25 26 27 29 37 39 39 38 38 36 38 40 40 45 46 47 47 45 43 43 43 43 43 43 42 42 40 39
30 25 18 23 25 29 27 29 27 25 22 17 14 18 24 26 26 28 33 37 40 39 41 42 40 40 40 39 43 40 37 37 38 41 41 41 41 42 43 41 37 37 33 30
34 26 22 19 20 26 23 28 28 24 19 20 21 22 24 26 28 32 38 41 41 41 41 41 41 41 40 38 36 35 37 38 39 39 40 40 40 40 37 36 35 32 26 25
31 26 28 28 28 29 28 27 28 22 26 19 23 25 26 27 29 34 39 38 36 35 34 36 40 38 35 32 33 36 38 38 36 34 34 34 30 30 27 26 26 27 28 28
31 27 30 22 26 29 27 29 29 28 28 28 28 28 29 31 36 40 37 33 32 32 32 37 29 28 28 28 29 31 33 33 33 32 30 29 28 28 29 29 30 31 31 31
31 31 25 19 26 28 23 28 28 28 29 29 28 29 36 36 40 38 34 29 28 27 25 22 22 24 26 29 31 30 29 31 31 32 29 30 32 31 31 32 32 33 33 33
30 31 25 21 23 17 25 32 31 29 30 31 31 32 36 39 39 35 32 25 25 25 21 21 23 23 26 29 32 34 34 34 34 33 34 35 33 33 33 33 33 34 34 33
32 31 27 23 24 24 29 34 33 32 32 34 34 36 37 39 39 37 34 24 24 25 26 25 23 23 23 24 27 30 31 33 33 34 35 34 34 33 33 33 33 33 33 32
33 32 30 30 24 20 26 31 36 34 29 36 36 36 41 39 38 38 33 30 28 29 26 28 28 28 28 27 28 29 31 32 33 34 34 34 34 34 33 33 32 32 32 32
34 34 29 29 26 27 29 31 38 28 29 36 36 37 39 38 38 36 34 32 33 32 32 34 34 34 34 34 33 33 33 32 34 35 35 34 34 33 32 32 32 31 29 19
30 29 29 29 28 24 30 37 33 34 36 37 37 38 39 38 36 36 35 33 34 33 33 33 34 35 35 35 34 33 32 35 35 34 33 33 34 34 33 31 25 17 13 12
29 28 28 29 28 30 31 35 37 36 35 35 37 38 39 37 34 35 35 34 34 33 33 33 34 34 35 35 35 32 34 35 34 33 33 32 30 23 19 16 14 13 12 12
33 34 33 33 34 34 34 35 36 35 34 34 35 39 38 36 32 31 32 35 34 35 34 34 33 33 33 34 34 34 34 32 28 22 19 18 17 15 15 15 14 11 10 11
35 35 34 34 35 35 36 36 36 34 33 33 39 38 37 33 31 30 29 28 31 29 30 23 21 23 26 27 27 26 21 18 17 17 17 16 13 13 14 15 15 15 13 12
34 34 33 33 35 35 35 35 36 34 32 33 38 37 37 35 31 30 28 26 25 20 19 19 19 19 18 17 17 18 18 17 16 14 14 14 13 13 14 15 17 22 22 21

GFSCGP_sfc_dewp_054.txt.gz
Dewpoint
47 41 39 39 38 35 34 32 31 32 31 29 29 28 29 30 29 29 30 30 31 32 35 35 35 36 37 37 36 37 40 57 64 66 65 65 64 65 65 63 63 61 59 57
43 37 41 41 38 38 35 33 32 32 31 28 28 26 27 28 29 29 29 29 30 30 30 32 33 34 35 35 35 36 38 44 58 64 65 64 65 64 64 63 63 62 59 57
38 40 45 42 40 39 36 33 30 29 29 27 26 24 23 24 26 26 26 27 27 27 28 29 30 31 32 34 35 36 36 40 53 61 63 59 59 59 63 61 61 61 59 58
34 40 42 40 38 39 34 32 30 28 27 25 27 21 23 23 22 23 21 21 22 23 25 27 28 29 30 31 33 35 37 38 43 58 61 61 61 61 61 62 62 61 59 58
34 37 36 37 37 39 30 31 29 28 26 23 24 22 19 21 18 19 24 26 28 28 28 30 25 27 29 30 32 33 34 36 40 44 59 61 61 61 58 59 60 60 58 59
31 33 32 30 32 32 31 28 27 27 24 17 21 21 15 17 20 21 24 27 29 32 34 35 33 30 31 33 32 31 30 31 34 39 49 59 61 59 56 56 58 54 55 56
31 31 31 32 30 30 29 27 17 12 14 14 24 22 19 22 23 25 25 28 30 34 36 36 35 34 35 36 37 38 37 35 34 35 40 50 57 57 57 57 58 57 55 56
26 26 30 31 30 29 27 25 17 9 15 17 23 21 19 24 21 25 28 29 31 35 37 38 37 35 35 35 37 37 37 37 38 38 38 42 48 54 56 56 57 57 55 55
24 26 31 31 32 29 27 21 25 18 15 14 18 18 12 25 25 26 27 28 28 33 38 39 38 36 35 35 36 38 39 40 40 41 41 42 45 49 53 53 54 54 52 51
27 25 31 31 33 32 28 28 22 15 3 8 10 15 10 21 24 23 26 27 28 33 39 39 39 38 36 36 38 40 40 42 44 45 44 45 46 49 50 49 48 47 46 47
29 28 31 30 28 28 28 26 25 23 19 13 11 7 19 19 26 25 26 28 31 37 39 39 39 40 38 39 40 40 44 45 46 47 46 45 44 45 45 45 44 44 44 44
31 29 27 28 30 30 29 27 25 17 15 18 18 17 23 24 25 26 27 31 37 41 40 41 42 41 41 41 40 42 38 39 41 43 43 42 45 45 44 43 43 42 43 42
30 25 17 24 26 28 27 28 26 24 22 17 15 15 24 25 26 28 31 40 41 40 39 39 40 41 40 38 37 36 37 38 39 41 41 41 43 44 43 43 41 40 38 35
32 26 22 19 20 26 24 28 27 24 21 20 19 20 23 24 27 29 34 39 37 35 33 34 38 36 34 33 36 37 37 37 37 38 40 41 42 41 38 37 36 35 31 29
30 26 28 27 26 28 27 27 28 20 24 18 21 24 25 26 28 29 38 36 33 32 28 29 28 29 29 31 33 34 35 35 34 32 32 31 32 33 30 29 29 29 30 29
30 26 28 21 27 28 27 29 28 28 27 27 27 27 28 29 32 40 37 33 30 28 25 23 24 26 28 29 29 30 32 31 31 31 30 30 31 33 32 33 32 31 31 31
31 30 23 20 25 27 23 28 28 28 29 29 26 27 29 34 38 39 34 31 27 26 23 22 23 25 28 32 33 32 32 32 32 32 32 33 33 33 33 33 34 33 34 34
30 30 28 24 23 17 23 31 30 28 27 30 29 29 31 37 39 35 34 27 24 25 26 23 23 24 26 31 32 34 35 35 35 34 35 35 35 35 34 34 34 34 34 34
31 31 29 23 22 23 28 33 31 30 31 32 30 31 36 40 38 37 33 25 24 25 25 25 26 25 27 28 30 31 32 33 34 34 35 35 35 34 34 33 33 33 33 32
32 31 29 29 22 20 23 30 36 34 28 34 35 36 37 39 35 39 33 30 29 29 28 29 30 31 31 32 33 33 33 34 34 35 34 35 34 34 33 33 32 33 32 32
32 33 27 28 26 25 28 30 36 30 28 35 36 36 40 38 38 36 33 32 33 33 33 34 34 34 33 34 34 33 33 34 35 35 35 34 34 33 33 32 32 32 30 24
29 28 29 28 27 23 30 36 34 34 36 35 35 37 40 38 36 36 33 33 33 33 33 34 35 35 35 35 35 34 33 35 35 34 33 33 33 35 34 31 25 15 13 14
29 27 26 28 25 29 32 34 36 37 35 34 35 38 39 37 36 35 34 33 33 32 33 32 35 35 35 36 35 33 34 36 34 34 33 32 23 18 16 15 14 12 12 12
33 32 32 33 34 34 35 35 35 36 35 35 35 39 38 37 35 34 34 33 34 33 32 33 34 34 34 35 35 35 34 33 28 21 18 16 15 14 13 12 11 10 10 11
34 33 32 32 35 35 36 36 37 35 34 33 37 39 38 35 33 32 33 34 34 34 33 27 30 32 32 33 32 29 21 19 18 18 16 13 14 14 15 16 16 15 11 13
34 35 35 33 35 35 35 36 36 35 34 33 35 37 36 34 32 31 30 30 28 25 21 23 25 24 23 23 20 18 19 18 16 14 13 14 14 15 17 18 18 23 22 22

GFSCGP_sfc_dewp_057.txt.gz
Dewpoint
45 41 37 39 38 33 33 33 32 33 31 30 31 30 30 31 31 31 31 31 31 31 32 36 37 37 38 38 38 38 41 52 65 66 65 65 65 65 65 65 64 63 61 61
42 38 40 40 37 35 34 33 32 32 30 29 28 27 29 30 30 30 30 30 30 29 26 27 31 34 35 36 37 38 39 41 53 63 64 65 64 65 65 64 64 64 62 61
36 38 43 40 39 37 35 33 31 31 29 27 27 26 24 24 24 24 24 25 26 27 28 29 27 30 33 33 36 37 38 40 44 58 64 64 64 63 64 64 64 63 63 61
37 42 42 41 38 38 36 35 30 28 28 26 27 23 25 22 23 26 27 29 31 33 33 34 32 30 31 34 37 37 38 40 41 50 60 62 61 61 62 63 64 63 63 61
34 40 38 38 38 38 36 32 29 28 26 24 24 23 21 20 19 23 26 29 32 35 36 36 36 34 35 39 39 36 35 37 41 43 56 62 61 62 63 63 63 63 62 62
33 37 37 34 41 38 34 28 28 26 24 21 20 22 15 18 21 22 25 29 31 35 38 38 38 37 38 40 41 42 39 35 35 38 44 58 61 61 61 61 62 62 61 61
34 31 31 32 30 31 30 30 23 18 20 19 24 22 20 21 23 25 28 29 30 34 39 40 39 38 39 40 40 40 40 39 40 39 38 42 52 59 60 60 60 61 58 58
27 28 31 32 31 30 27 29 22 12 14 16 23 21 18 24 23 26 28 29 30 33 38 40 40 39 40 40 40 39 40 41 41 42 41 40 43 49 56 59 60 60 60 59
25 28 31 32 32 31 28 26 24 20 18 18 18 19 16 24 24 27 27 31 33 33 38 40 40 40 41 40 40 40 41 42 45 46 46 45 44 45 49 53 57 59 58 57
28 27 31 31 32 31 29 28 24 21 12 10 8 11 8 21 24 23 27 29 32 37 41 41 41 41 41 41 41 42 43 44 44 46 47 47 48 49 49 51 52 54 53 53
29 29 30 31 29 28 28 27 25 22 19 14 7 5 18 19 23 26 27 29 34 41 41 40 41 42 42 41 41 41 39 39 40 43 45 46 46 47 48 49 49 50 49 49
31 30 28 27 30 30 29 27 24 20 18 19 19 14 21 22 25 26 28 31 41 41 38 36 36 39 36 36 37 37 38 39 40 42 43 44 45 46 47 46 46 46 46 46
29 26 24 26 28 29 29 28 25 23 23 21 18 11 23 25 26 27 29 39 37 34 32 34 35 32 32 35 36 37 37 36 37 40 42 43 44 44 43 43 42 42 42 40
31 26 23 22 22 27 26 28 26 25 21 20 20 18 20 22 26 28 34 37 34 32 29 28 27 28 29 31 33 33 33 33 33 32 35 36 38 38 36 36 35 32 31 29
30 27 29 27 26 28 28 28 27 23 24 21 20 23 23 25 27 29 38 35 32 29 26 24 25 28 29 30 30 32 32 31 32 31 32 33 33 34 34 34 35 34 35 35
30 28 26 22 27 28 27 29 29 28 27 26 26 27 28 29 30 38 36 33 29 27 25 23 24 27 30 32 31 32 32 33 32 33 32 33 33 34 35 36 35 35 35 36
31 28 23 21 26 26 24 28 28 28 29 28 27 28 29 32 34 40 36 32 27 26 25 23 23 25 30 33 34 34 34 34 34 35 34 34 34 33 33 34 35 35 35 36
29 30 27 25 23 16 22 30 29 28 28 30 30 30 30 32 39 36 34 28 25 26 26 23 23 25 27 32 33 34 35 35 35 36 36 36 35 35 34 34 34 34 35 34
31 31 27 22 21 21 28 31 29 29 31 30 29 29 31 39 38 37 32 26 25 25 25 26 27 27 29 29 32 33 34 36 36 35 36 36 35 35 34 33 33 33 33 32
32 31 26 26 22 19 23 30 35 34 30 33 32 33 36 39 35 38 32 30 30 29 30 30 31 31 32 33 33 33 35 35 34 34 35 35 35 34 33 33 32 32 32 32
31 32 26 25 23 23 26 29 35 32 30 35 37 37 38 38 38 36 33 32 33 33 33 34 34 33 33 34 34 34 35 34 35 35 35 35 34 33 33 33 32 31 25 23
27 27 25 26 24 19 30 36 35 36 36 36 36 36 39 38 35 34 33 33 33 32 33 34 34 34 35 36 36 34 33 35 36 35 34 34 34 34 31 24 17 15 14 13
29 28 26 25 24 28 32 35 36 37 36 35 35 36 40 38 36 35 34 33 33 32 32 32 35 35 36 36 34 34 35 35 35 33 28 19 16 14 15 14 14 13 13 12
32 32 31 32 33 32 33 36 35 36 36 35 36 37 39 38 36 35 34 34 33 32 32 32 32 34 34 35 35 35 35 32 24 18 15 14 13 11 10 10 10 10 10 10
33 33 31 32 33 35 36 37 37 36 35 34 35 37 38 37 35 35 34 34 34 33 33 34 34 34 34 35 34 28 24 20 17 16 14 14 13 15 16 16 14 11 11 12
34 34 34 35 35 35 35 36 37 36 35 34 34 38 38 36 34 34 34 35 34 33 26 30 32 32 31 30 25 21 20 18 15 12 13 15 16 18 19 19 20 24 24 24

GFSCGP_sfc_dewp_060.txt.gz
Dewpoint
44 41 38 37 34 29 29 29 26 30 31 31 32 32 33 34 33 32 31 30 30 32 33 33 33 34 35 37 38 39 40 42 49 58 65 66 65 66 66 65 66 64 63 62
40 38 39 37 36 33 31 27 27 33 32 31 30 30 31 32 32 31 30 30 30 29 28 28 28 30 31 33 35 37 39 41 42 49 59 63 63 64 65 65 65 65 64 64
36 36 37 37 36 33 32 28 31 29 30 29 28 27 28 24 24 26 27 30 32 33 31 32 31 32 34 33 35 36 38 40 41 44 50 59 62 64 64 65 65 64 64 65
38 40 39 37 35 33 32 34 33 30 30 26 28 18 24 23 27 29 32 35 36 36 36 36 36 37 37 41 41 37 37 38 40 43 45 53 57 58 60 60 62 63 64 64
35 38 40 38 35 36 35 35 31 29 28 26 24 24 20 22 24 27 30 33 36 39 39 38 39 39 40 43 44 43 39 35 38 40 44 48 55 55 57 59 61 61 64 63
36 41 39 39 42 37 31 29 28 28 27 26 22 23 15 18 21 26 28 31 34 38 41 41 41 41 42 45 44 43 41 40 40 37 41 45 50 54 57 59 61 62 63 63
33 36 37 40 35 38 34 31 29 27 28 23 23 20 17 21 22 25 31 33 34 38 41 42 41 41 43 44 44 42 42 41 42 42 40 39 43 49 56 58 59 59 61 61
33 30 35 37 32 31 30 31 30 16 13 15 23 19 17 23 24 27 28 32 36 39 41 42 42 43 44 44 44 43 42 42 44 45 45 44 43 42 44 48 53 55 56 59
30 30 31 31 31 31 29 31 25 25 22 21 17 20 21 23 23 27 27 31 36 40 42 42 42 42 43 43 43 44 42 43 43 44 46 46 47 48 47 47 48 51 54 57
30 30 31 30 31 30 30 28 27 31 21 15 11 10 13 22 24 26 28 32 36 41 40 39 39 42 42 41 42 42 41 41 42 44 45 46 48 49 50 51 51 50 51 53
30 30 31 31 30 28 28 29 26 23 20 17 3 6 19 25 25 26 28 32 39 40 38 38 39 39 38 39 40 39 40 41 42 43 45 47 48 48 49 49 49 50 51 51
30 31 29 28 30 30 29 27 24 24 21 22 23 11 18 23 26 26 29 35 39 37 35 38 36 35 36 37 38 38 38 38 39 42 44 45 46 47 48 48 47 47 48 48
30 30 27 26 29 30 30 28 26 24 27 28 21 13 23 24 25 26 30 38 38 36 34 33 32 32 33 34 35 36 35 34 35 37 39 40 41 42 41 40 40 41 42 42
32 27 24 21 26 30 31 29 27 32 30 22 23 17 21 24 24 29 33 38 37 34 31 31 31 31 32 33 34 34 33 33 34 35 36 36 36 35 34 36 35 33 32 31
30 29 29 27 27 28 29 29 28 29 30 31 22 22 20 23 27 30 36 37 34 32 29 28 29 31 32 33 34 34 34 33 34 34 35 35 35 35 35 35 35 35 36 35
31 32 30 28 27 28 29 29 29 29 28 28 26 26 27 28 29 33 39 36 32 29 27 26 27 29 33 34 35 35 35 34 34 34 33 33 34 34 35 37 37 36 37 38
30 31 30 24 26 27 27 29 29 29 29 28 28 27 28 28 30 37 38 36 30 28 28 27 26 28 32 34 35 35 35 35 35 35 34 34 34 34 35 35 35 36 36 37
30 30 31 27 26 23 24 30 29 28 28 30 29 29 29 30 36 38 37 34 29 28 28 26 26 28 30 32 33 34 36 36 37 36 36 36 35 34 35 35 35 35 35 34
30 30 29 25 22 22 26 29 29 30 32 30 29 30 31 33 40 39 35 29 28 27 26 27 27 29 30 31 32 34 35 34 36 36 36 36 36 35 35 34 33 32 32 32
31 31 28 28 24 18 27 31 35 32 32 35 32 33 34 39 38 40 34 30 30 29 29 29 30 31 31 32 32 33 34 34 35 35 36 36 35 34 33 33 33 33 33 32
30 31 29 26 25 22 24 28 31 32 32 36 37 37 37 37 40 38 34 32 32 32 31 32 32 32 33 33 35 35 35 35 36 36 36 36 36 34 34 33 34 31 27 25
26 27 26 25 25 21 29 36 35 36 37 36 36 37 37 39 35 34 33 33 33 32 32 33 33 34 35 36 36 35 34 36 36 36 35 35 35 30 26 23 19 17 15 14
27 27 26 26 24 27 31 34 35 36 35 36 36 36 38 39 36 35 34 33 33 33 32 33 34 34 35 36 37 35 35 36 35 32 27 21 16 15 16 17 17 13 12 10
32 32 29 30 31 30 29 32 36 37 37 37 36 36 39 39 38 36 34 34 33 33 32 31 33 34 34 36 36 36 35 33 26 18 14 13 12 11 11 10 10 8 6 6
33 33 31 31 32 34 35 37 38 37 37 35 35 35 37 39 38 36 34 34 33 33 32 32 35 34 35 36 36 34 31 24 17 15 14 13 12 12 14 15 12 10 13 14
35 33 31 28 33 35 36 38 39 38 37 37 35 36 39 39 38 37 35 35 34 33 34 35 34 35 36 35 31 29 25 19 15 13 12 13 14 17 18 19 21 25 25 24

GFSCGP_sfc_dewp_063.txt.gz
Dewpoint
43 41 37 34 32 26 23 25 22 23 33 31 28 28 27 29 31 30 29 27 27 27 29 33 34 34 35 36 38 38 39 40 41 49 55 65 66 66 65 66 65 64 63 61
40 37 38 34 32 29 27 25 25 29 30 29 26 28 29 30 30 30 29 29 29 29 30 29 30 30 31 32 34 37 38 39 40 43 48 62 63 64 65 66 66 66 65 64
37 38 41 40 34 31 27 25 24 26 31 30 28 27 27 28 27 27 26 28 29 30 30 31 32 34 35 35 37 35 37 40 42 44 44 49 61 63 63 65 65 65 64 65
37 40 40 39 35 31 27 27 25 30 28 20 27 10 25 25 26 27 29 32 33 34 34 35 35 37 38 42 45 40 38 38 39 43 43 45 49 56 59 59 61 63 63 64
36 38 38 38 37 32 32 34 32 32 30 28 27 23 22 24 25 28 31 34 36 38 38 37 39 40 42 45 46 44 41 37 38 40 41 43 45 50 56 57 57 58 61 63
36 40 39 41 38 36 36 33 32 31 29 28 25 23 20 21 23 27 29 31 35 38 39 40 41 41 42 46 46 45 42 40 41 40 40 42 46 47 52 54 56 58 60 62
34 34 37 40 36 36 34 33 31 30 29 25 22 21 19 20 23 26 29 31 34 37 39 41 41 42 44 45 46 44 43 41 42 44 43 40 41 44 48 52 55 56 58 60
33 30 34 38 37 36 35 34 32 23 20 21 22 19 17 21 22 29 30 33 36 39 40 42 42 43 44 44 45 44 43 43 43 43 44 44 45 43 42 43 46 50 53 54
33 32 37 37 34 37 35 34 28 25 21 20 16 18 22 23 23 26 28 32 36 39 41 40 40 41 43 42 42 43 43 42 42 43 44 45 46 48 49 49 48 47 47 50
30 31 33 31 31 31 31 30 28 33 23 14 14 12 14 21 24 25 28 32 36 40 40 39 39 41 40 40 41 41 41 41 42 43 44 45 47 48 49 49 50 50 50 51
31 30 31 31 31 29 28 30 26 24 20 19 4 7 19 21 22 27 29 33 38 40 38 38 39 38 39 40 40 40 39 40 41 43 44 45 46 47 48 48 48 48 49 50
31 31 29 29 30 30 29 27 26 25 21 22 24 14 20 25 26 27 30 34 39 38 37 37 37 36 37 37 37 38 37 37 37 40 41 42 43 43 43 42 42 43 44 45
29 31 27 25 28 29 29 28 27 24 28 31 22 17 22 25 26 26 30 36 39 37 35 35 34 34 35 35 36 36 35 35 36 37 38 38 38 38 38 37 36 35 34 33
33 27 26 22 27 30 30 28 28 31 31 22 22 18 21 23 25 26 31 37 38 36 33 34 34 34 34 34 36 36 35 35 36 36 37 37 37 36 36 36 36 35 35 33
30 28 27 26 26 28 30 29 29 31 30 32 23 21 20 23 25 29 33 38 37 34 31 31 32 33 34 35 36 36 36 35 35 35 35 35 36 37 37 37 37 37 36 36
31 32 33 30 27 27 30 28 29 29 29 27 26 26 26 26 28 31 35 38 37 32 30 29 30 31 34 35 36 36 36 36 35 34 34 34 35 35 36 36 37 37 37 36
29 32 32 24 26 26 27 28 28 29 29 29 28 27 28 27 30 32 38 39 36 32 30 30 29 30 33 34 35 35 35 36 36 35 34 34 34 34 35 35 36 36 35 35
29 30 31 26 26 23 28 30 29 28 28 29 28 28 28 29 31 38 39 38 34 30 30 28 28 30 31 32 33 34 36 35 35 35 35 35 35 35 36 35 35 35 35 35
30 27 28 26 23 23 21 28 28 29 31 29 28 29 30 31 38 40 38 33 31 30 29 28 29 30 31 31 32 34 34 35 34 36 35 36 36 35 35 34 34 33 33 33
30 30 29 28 24 19 29 32 33 31 32 35 33 32 34 36 38 41 37 32 31 29 29 30 30 30 31 31 32 33 33 35 35 35 36 36 36 35 34 33 33 34 34 33
29 30 29 26 24 24 26 34 30 31 33 36 37 37 37 37 39 40 36 33 32 32 32 32 31 31 32 33 34 33 35 35 36 36 36 36 36 35 35 34 34 33 28 26
26 26 25 25 24 22 27 33 29 37 37 36 36 37 37 38 37 36 35 34 34 33 33 32 32 33 34 35 34 33 34 36 36 36 35 36 34 31 27 26 21 19 14 13
25 26 25 25 25 28 31 34 34 36 37 38 37 37 37 40 37 36 35 34 33 33 33 33 34 34 35 36 36 35 35 36 35 33 30 22 16 17 18 20 19 14 11 8
29 29 27 28 29 29 28 32 35 37 37 37 37 37 37 39 39 36 35 34 34 33 32 32 33 34 35 36 37 35 35 34 30 22 15 14 14 13 12 10 13 10 5 5
32 32 30 29 30 33 36 36 38 38 38 37 36 36 37 38 39 37 36 35 34 33 32 32 33 34 35 36 35 35 33 29 20 14 14 13 12 11 13 15 14 11 18 19
32 31 31 28 31 31 35 39 39 38 38 37 37 36 38 38 39 38 37 35 34 33 32 32 34 34 35 36 35 33 30 24 16 13 13 13 15 15 17 18 21 26 25 24

GFSCGP_sfc_dewp_066.txt.gz
Dewpoint
44 39 36 37 38 34 30 29 27 27 31 32 32 32 31 29 32 32 30 28 28 29 30 32 33 33 33 35 37 37 39 41 42 44 53 65 66 66 66 66 66 66 63 62
40 36 36 37 37 35 30 27 26 26 33 31 30 29 28 28 31 31 31 29 28 29 30 30 30 30 31 32 34 37 38 40 41 43 45 58 65 65 64 65 65 66 66 64
34 36 38 35 33 33 28 26 24 26 30 30 28 26 28 29 30 28 28 28 29 30 30 31 33 35 38 42 43 40 38 39 40 43 45 46 62 63 63 63 64 64 65 65
36 40 38 39 37 33 31 27 27 29 29 24 28 15 24 27 26 26 26 28 31 33 34 35 37 38 41 44 46 45 39 38 38 40 42 43 45 53 60 63 65 65 64 64
36 38 38 36 36 36 30 32 31 31 29 28 26 24 23 26 25 26 29 34 35 36 36 38 39 41 44 46 46 45 43 40 39 39 41 42 43 45 48 56 58 58 59 63
36 39 40 39 41 43 37 34 32 31 31 27 27 24 22 23 25 28 31 34 36 38 39 40 41 42 44 46 46 46 44 42 42 42 40 40 42 43 45 50 54 56 58 60
36 35 37 40 37 39 38 32 28 26 27 24 23 24 23 24 26 28 29 32 35 38 40 41 42 43 44 45 45 45 44 43 44 44 44 44 42 41 42 45 50 53 56 58
32 28 36 37 38 36 34 33 27 19 22 22 22 21 19 23 27 29 32 34 36 39 41 41 42 42 43 43 43 43 44 43 43 43 44 45 46 48 47 48 47 47 47 50
33 32 37 38 38 39 36 33 29 25 22 22 20 20 22 22 28 28 29 33 37 40 41 40 39 42 41 40 41 41 41 42 43 43 44 46 47 48 48 49 50 50 50 50
33 31 36 38 39 37 38 35 28 28 16 16 16 18 18 21 24 26 29 32 37 40 39 39 40 39 39 40 41 40 40 41 42 43 44 46 47 47 48 48 48 48 49 50
32 32 33 34 35 33 34 33 31 25 22 20 12 12 20 22 24 25 29 33 38 40 38 38 38 38 39 39 39 38 38 38 39 41 43 43 43 44 43 42 42 42 44 45
33 31 29 30 31 31 30 29 28 25 22 22 22 16 21 22 25 29 30 35 40 38 37 37 36 36 37 37 37 36 36 36 37 38 39 39 38 38 38 38 36 35 34 34
31 31 24 25 28 30 29 30 29 28 30 27 23 17 25 26 26 26 30 36 39 38 36 35 35 34 35 35 36 36 35 35 36 37 37 37 37 36 36 36 36 35 34 33
35 28 26 23 28 31 27 29 29 29 24 25 24 18 22 25 26 26 32 37 38 37 34 34 34 34 34 35 36 36 35 35 36 36 36 36 36 36 37 37 36 36 35 35
32 27 27 26 27 30 31 29 29 27 29 22 25 21 20 23 26 27 34 38 37 35 32 32 33 33 34 35 36 36 36 35 36 35 35 35 36 37 36 38 37 36 36 37
32 30 29 25 27 27 27 29 30 30 29 29 28 26 27 27 28 31 35 39 38 35 32 30 30 32 35 36 36 36 36 36 36 34 34 35 35 35 35 35 36 36 35 36
30 30 26 22 27 26 23 27 29 29 30 29 27 27 28 29 30 33 38 39 38 34 31 30 30 32 34 35 35 35 36 36 35 35 34 34 34 34 35 35 36 35 35 35
29 31 29 23 24 16 28 31 30 29 30 30 30 30 29 29 34 38 39 39 35 31 31 29 30 31 33 33 34 35 36 35 35 34 34 34 34 34 35 35 35 34 34 34
30 29 28 23 23 24 27 27 28 29 30 30 29 29 30 35 38 39 38 34 32 31 30 29 30 31 31 32 34 34 34 34 34 34 34 34 33 35 35 33 33 33 33 33
30 30 28 28 22 21 30 30 33 31 32 35 31 30 32 38 36 40 35 32 30 29 29 29 30 31 31 31 33 33 34 35 35 35 35 34 35 34 33 33 33 33 32 30
29 29 27 27 26 25 32 33 31 31 33 37 37 37 37 37 39 39 35 34 32 31 31 31 31 31 32 34 34 33 34 34 36 36 36 35 35 34 34 33 29 27 27 26
25 26 26 27 26 20 32 31 29 36 36 37 37 37 39 39 38 36 36 35 34 33 33 33 32 33 34 35 35 34 34 36 36 35 35 34 34 33 32 27 24 18 15 14
25 26 25 25 26 30 31 34 35 37 38 37 37 38 38 40 37 36 35 35 34 34 33 33 34 34 35 35 35 34 35 36 35 34 31 27 22 21 21 19 16 12 9 7
29 29 27 27 29 29 28 33 37 38 37 37 37 37 37 39 38 37 35 34 34 33 33 33 33 32 34 36 36 36 35 35 33 27 17 15 15 15 13 12 12 9 8 7
31 30 29 29 29 31 36 33 36 38 38 37 37 36 36 37 39 37 35 34 34 33 33 33 33 33 34 36 35 34 35 33 25 15 14 14 13 10 16 22 21 16 22 22
33 32 30 29 33 32 38 39 38 38 37 37 37 37 37 38 38 38 37 35 34 33 33 32 33 33 33 34 34 34 33 28 16 14 14 14 14 15 18 21 23 26 25 24

GFSCGP_sfc_dewp_069.txt.gz
Dewpoint
45 40 36 36 38 36 35 34 30 31 33 33 32 33 33 33 30 30 31 31 29 29 30 31 30 30 31 32 33 35 38 39 43 51 63 64 64 63 64 65 65 65 66 63
41 36 37 38 39 38 33 32 30 28 30 32 32 32 34 33 31 31 31 31 30 30 29 30 30 32 37 41 41 39 38 38 40 43 44 63 65 64 65 65 65 65 64 65
37 36 38 38 38 37 34 32 29 26 31 30 29 29 31 31 30 31 30 30 29 30 31 33 37 40 42 43 44 43 38 38 39 40 43 45 61 62 62 62 62 64 64 64
39 40 37 37 35 34 32 32 30 30 29 26 28 22 24 28 28 27 26 27 29 33 34 37 38 41 43 44 45 44 43 38 38 39 40 41 43 47 57 62 63 63 64 63
36 38 38 37 36 39 34 35 30 31 28 27 26 23 23 27 26 26 26 28 33 33 36 38 40 43 45 46 45 44 43 41 41 39 39 41 41 44 46 48 54 61 63 64
37 39 40 39 40 41 42 35 32 31 31 24 27 25 22 25 26 26 30 35 36 38 38 39 41 44 45 46 46 45 44 43 44 44 44 42 40 41 43 44 47 52 56 58
35 36 38 40 36 39 39 35 28 26 22 21 26 25 24 25 26 28 33 35 37 39 40 41 42 43 44 44 43 44 44 43 43 44 45 46 47 47 46 46 46 46 48 52
26 24 37 38 37 35 35 32 23 18 20 22 22 24 23 23 27 31 33 34 37 40 41 42 41 42 41 41 41 42 41 42 43 44 45 47 47 48 49 49 49 50 50 50
29 29 37 38 38 38 36 33 31 24 22 20 21 21 21 28 30 31 33 35 38 40 41 39 41 40 39 40 41 41 41 42 43 44 45 46 47 48 48 47 48 48 48 49
36 29 36 38 40 39 39 37 29 27 18 17 18 18 19 25 28 29 32 34 38 40 39 39 39 39 39 40 40 39 39 39 40 42 43 42 43 42 41 40 39 41 41 43
36 32 34 37 36 35 36 35 32 27 23 18 13 14 20 23 27 27 30 33 39 39 38 39 37 38 39 38 38 36 36 37 38 39 39 38 39 39 38 37 36 35 34 35
33 31 29 30 37 35 35 34 33 24 22 21 20 19 22 23 27 27 31 36 40 38 38 37 36 37 37 36 36 35 35 36 37 38 38 37 36 36 36 36 35 34 33 33
31 29 22 24 27 30 29 30 33 29 28 24 18 18 23 26 28 30 32 38 39 37 37 36 35 35 35 36 36 35 35 35 37 37 37 36 36 36 36 36 35 35 34 34
35 29 25 21 25 29 27 29 29 28 24 24 23 21 25 26 26 26 31 36 39 37 35 35 34 34 34 36 36 35 35 35 36 36 36 36 36 37 37 37 36 36 37 36
31 26 26 26 28 30 29 28 29 24 27 21 24 22 24 26 26 26 31 37 37 34 33 34 34 34 34 36 36 36 36 35 35 35 35 35 36 36 36 36 36 36 36 36
32 25 25 20 27 27 27 29 30 30 28 28 28 27 27 25 27 34 36 38 37 35 32 31 32 34 35 36 36 36 36 36 35 34 34 35 35 35 35 36 36 36 36 35
31 27 23 21 27 25 20 27 28 29 30 28 26 26 28 28 30 35 37 39 38 36 32 29 30 33 35 35 35 35 35 35 35 34 34 34 35 35 36 36 36 35 35 34
30 29 25 21 23 14 19 30 29 28 30 31 30 29 29 30 32 37 40 39 39 34 31 30 31 33 34 34 35 36 36 35 35 34 34 35 35 34 36 35 34 34 33 31
30 31 24 22 21 20 27 27 28 28 28 31 30 30 30 36 37 37 39 37 35 31 31 29 31 32 32 33 35 35 34 35 34 34 34 33 34 35 35 33 33 33 32 32
30 31 26 27 20 20 28 29 31 31 30 35 31 30 30 37 32 35 35 31 30 30 30 30 30 31 31 32 34 34 33 34 34 33 34 34 35 35 34 33 33 32 26 30
29 29 28 25 23 24 28 34 34 30 30 37 32 32 35 35 36 39 35 32 31 30 30 30 31 31 32 34 33 33 35 35 36 36 36 35 35 34 33 32 26 24 25 23
26 26 27 26 26 21 33 31 31 35 36 36 37 37 39 40 37 35 35 34 33 32 33 32 32 33 34 34 34 34 34 36 36 36 35 33 32 33 32 28 27 26 20 18
24 27 24 25 25 28 32 33 36 37 38 37 37 38 40 39 37 36 35 34 33 33 33 33 33 33 34 35 35 35 35 36 35 34 33 32 31 26 23 19 16 13 11 9
29 29 27 26 28 28 30 34 38 38 37 37 38 38 38 40 38 36 35 35 34 34 33 34 33 32 34 35 34 36 36 35 35 32 28 21 18 17 16 12 12 9 8 8
30 29 28 28 29 30 31 32 36 37 37 37 36 36 36 37 39 37 36 35 34 34 33 33 33 33 34 35 34 35 35 34 32 25 16 15 15 13 17 21 13 18 21 16
33 31 29 29 31 31 36 38 38 38 38 37 38 37 36 37 38 38 36 35 34 33 33 33 33 33 34 35 34 33 34 34 27 15 14 14 13 15 19 23 23 26 25 24

GFSCGP_sfc_dewp_072.txt.gz
Dewpoint
45 40 35 36 36 35 36 34 32 34 34 34 35 34 34 34 32 32 33 32 30 29 30 32 31 31 32 38 37 37 37 38 56 63 63 62 63 63 63 64 65 66 65 64
41 36 37 39 38 37 36 34 32 30 31 33 33 33 33 34 34 31 32 32 31 30 29 30 34 40 41 42 42 39 37 37 39 43 47 63 63 63 64 64 64 64 64 64
37 36 39 38 38 36 35 32 30 29 31 31 31 30 32 34 32 31 32 32 31 30 30 35 39 41 42 43 43 43 42 37 38 39 42 44 60 61 62 61 62 64 64 64
38 38 37 37 37 37 34 33 33 29 29 28 28 24 24 31 32 32 31 29 29 31 34 37 39 41 42 44 44 43 42 39 38 39 39 40 42 48 56 58 60 62 62 63
36 38 36 37 36 36 34 39 32 31 29 27 26 24 25 24 29 30 29 27 29 33 37 38 41 43 45 45 45 44 43 43 44 44 40 40 40 43 45 45 47 52 58 61
38 39 39 38 40 41 41 33 33 32 32 25 25 25 23 22 25 28 26 27 32 34 38 39 43 45 45 45 44 44 44 44 44 45 46 45 42 41 43 44 45 46 51 54
36 36 39 38 34 37 38 31 27 27 27 23 26 25 23 25 26 28 28 33 37 38 39 41 43 44 43 42 43 43 42 43 44 45 46 47 47 47 47 48 48 48 49 50
29 30 37 38 35 32 35 34 24 20 21 21 24 25 24 25 24 28 33 36 38 40 41 42 42 42 41 41 41 41 42 43 43 44 46 47 47 48 48 47 48 47 48 49
29 29 36 37 39 37 35 33 33 21 21 18 21 22 22 29 30 33 34 36 39 41 41 40 41 39 40 40 40 41 41 41 43 45 45 44 45 44 43 42 43 44 44 45
32 30 35 37 39 39 37 38 30 23 14 16 19 19 20 27 29 32 34 37 40 41 39 40 39 39 40 40 38 38 38 39 40 40 40 40 39 38 37 36 35 35 35 36
36 29 32 37 35 33 36 35 33 27 23 18 14 16 20 25 29 32 34 37 40 39 39 39 38 39 39 38 36 36 36 38 39 38 37 37 37 37 36 36 35 34 34 34
33 30 29 32 37 38 36 35 31 25 24 20 18 15 21 23 29 31 32 36 40 39 39 38 37 38 37 36 35 35 36 37 37 37 36 36 36 36 36 35 35 34 34 34
31 26 27 28 29 35 35 36 36 30 25 17 16 16 24 26 27 29 32 37 39 38 38 37 36 36 36 36 35 35 35 36 37 37 36 37 37 37 36 36 36 36 36 35
35 29 23 22 22 28 26 29 35 35 27 23 23 21 23 26 27 30 34 39 38 37 37 36 35 35 35 36 35 35 35 35 36 36 36 36 36 37 37 36 36 37 36 36
29 25 26 25 29 29 28 28 29 27 30 26 27 23 23 26 27 29 32 35 39 37 35 35 34 34 35 35 36 35 35 35 35 35 35 35 36 36 36 36 36 36 36 36
31 23 24 20 27 26 26 28 29 28 27 28 26 27 29 26 27 27 28 37 38 36 34 34 34 34 35 36 36 36 36 35 35 34 34 35 35 35 36 36 37 36 35 35
30 26 21 18 26 24 21 25 27 29 29 28 26 26 28 27 26 30 34 37 37 36 33 32 33 34 36 36 36 35 35 35 34 34 34 35 36 35 36 36 35 35 34 34
30 26 24 20 22 12 22 29 28 27 29 30 29 28 28 29 30 34 37 38 38 38 34 30 31 35 36 35 35 35 35 35 35 35 35 36 35 36 36 35 34 33 32 32
31 30 23 21 21 22 23 28 28 27 26 31 30 30 30 32 35 35 39 40 39 37 33 31 32 34 34 35 35 35 35 35 34 34 35 34 35 35 34 33 33 33 32 25
30 31 25 26 19 19 22 29 30 31 28 32 32 31 30 35 30 32 38 34 33 32 30 30 32 32 33 35 35 34 34 34 34 34 34 34 35 35 34 33 33 32 31 28
30 31 28 26 26 23 26 31 34 27 27 37 33 32 32 34 32 36 34 32 31 30 30 31 31 31 32 34 34 33 33 35 35 35 35 35 35 34 33 32 26 22 23 25
28 29 28 29 27 21 31 31 30 33 36 37 35 36 35 38 37 35 34 32 32 31 32 32 31 32 34 34 33 33 34 36 36 36 35 35 35 34 32 28 28 25 21 20
24 25 26 27 26 27 31 30 32 37 37 37 37 38 40 39 36 35 35 33 32 32 32 32 32 32 33 34 34 34 36 36 36 35 34 32 32 31 29 26 24 18 15 13
27 28 27 26 27 27 29 33 36 38 37 37 38 38 40 39 38 36 35 34 33 33 32 33 33 32 32 33 35 36 36 35 34 34 31 30 28 24 21 17 16 11 8 8
28 29 27 27 28 30 30 32 37 38 37 36 36 36 36 39 39 38 36 35 34 33 33 33 33 32 33 34 34 36 36 35 33 32 29 22 19 20 13 11 11 12 15 10
32 30 28 27 29 29 30 36 35 37 37 37 37 37 36 37 37 39 37 36 34 34 33 33 33 33 33 34 34 35 35 35 32 28 20 16 15 14 19 24 23 24 26 26

GFSCGP_sfc_dewp_075.txt.gz
Dewpoint
45 39 34 35 35 35 35 32 32 34 35 36 34 33 34 35 34 32 32 33 34 32 31 32 32 32 38 37 36 37 42 43 59 63 62 62 62 63 63 64 65 65 64 61
40 36 36 39 37 36 35 33 31 32 32 34 33 34 34 35 34 34 32 32 33 30 29 30 36 39 40 41 40 37 37 37 39 49 57 63 63 63 63 63 63 64 64 63
36 37 39 38 37 36 34 31 30 30 31 31 31 30 32 34 34 33 33 32 32 30 29 34 38 40 42 42 42 42 40 37 38 38 42 45 59 61 62 62 62 62 63 63
38 39 38 37 37 36 32 34 33 29 29 26 30 26 27 30 32 33 33 32 31 30 31 36 39 41 42 43 43 43 41 40 40 39 39 40 43 56 56 54 55 53 59 61
36 37 37 36 36 36 33 39 33 32 29 28 26 26 27 24 29 31 33 32 30 30 34 37 40 43 45 45 44 43 44 44 45 44 40 40 40 43 44 44 45 48 53 55
38 39 39 38 40 39 40 33 33 34 30 22 27 26 25 24 24 25 30 30 29 33 36 39 43 45 44 44 44 43 43 44 45 47 47 44 42 43 45 47 46 47 50 51
37 37 39 38 34 37 36 33 29 26 26 22 26 25 26 25 25 26 27 28 30 35 38 41 44 44 43 42 42 42 43 43 44 46 47 47 47 46 46 47 47 48 49 49
29 30 37 38 34 33 34 30 25 19 21 21 26 24 25 27 27 27 28 29 35 37 40 42 44 43 41 41 41 41 42 43 44 46 46 46 47 46 46 45 46 45 46 47
26 28 37 38 39 36 34 33 30 22 19 17 21 22 21 24 26 29 32 36 37 39 41 42 42 40 40 40 40 41 41 43 44 43 42 40 40 39 38 37 38 38 37 40
30 27 35 37 39 39 36 36 30 25 19 15 18 20 19 22 26 31 35 36 39 41 41 41 40 39 40 39 39 38 39 40 40 39 39 38 37 37 36 35 34 34 34 35
33 29 32 35 36 34 36 35 35 32 23 17 16 16 21 21 25 31 34 38 40 40 40 40 39 39 39 37 36 36 38 39 38 37 37 36 36 36 36 35 34 34 34 34
35 30 28 31 36 36 35 33 34 24 22 19 17 18 21 22 25 32 35 39 40 40 39 39 38 39 37 36 35 35 37 37 37 37 36 36 37 36 35 35 35 35 34 35
33 31 27 29 32 37 35 35 36 33 24 16 17 19 24 26 29 32 34 38 40 39 39 37 38 37 36 36 35 35 36 37 37 37 36 37 36 36 35 35 36 36 35 35
35 28 26 23 24 30 32 33 35 35 24 22 21 21 22 25 27 30 33 37 39 38 38 37 36 36 36 36 35 35 35 36 36 36 36 36 37 36 36 37 36 36 36 36
30 26 27 26 25 29 28 28 32 32 32 27 27 25 25 24 27 29 33 38 38 37 37 36 35 35 35 35 35 35 35 35 36 35 35 35 36 36 36 36 36 35 36 36
31 23 24 21 26 28 26 28 29 33 33 33 31 26 28 26 27 29 32 37 38 38 37 36 35 34 35 35 35 35 35 35 35 35 35 35 36 36 36 36 36 35 35 36
29 26 21 19 26 24 21 25 26 29 29 29 27 29 27 27 27 28 30 34 36 38 37 35 34 34 35 36 36 36 35 34 34 34 34 35 36 35 36 35 35 35 34 35
29 25 23 19 22 14 23 26 27 26 26 30 29 28 28 29 29 30 31 31 35 37 36 34 34 35 36 36 36 35 35 34 34 34 35 36 35 36 35 34 34 33 33 31
30 29 25 21 21 21 22 27 28 26 26 28 30 30 29 30 34 33 35 37 36 38 37 33 32 35 36 35 35 35 35 35 35 35 36 35 36 35 34 33 33 32 27 23
30 30 26 22 20 18 18 30 29 31 24 33 30 30 30 33 29 31 37 39 39 37 33 32 33 34 35 35 35 34 34 34 34 34 35 35 36 35 34 33 32 31 25 21
30 30 27 25 25 24 25 26 32 24 23 36 33 32 32 33 31 34 37 33 34 32 31 32 33 33 34 35 34 33 33 33 35 35 35 36 35 35 33 32 30 30 29 29
27 29 28 28 26 21 28 32 28 30 35 36 34 33 33 35 37 36 34 32 32 32 32 32 32 32 33 34 34 32 32 35 36 35 35 35 34 34 32 31 27 25 24 22
25 28 27 27 26 27 29 33 33 36 36 37 37 38 35 37 36 35 34 33 31 31 32 32 32 32 33 34 34 33 35 36 36 35 35 34 33 32 31 27 26 23 20 18
28 28 26 26 27 28 28 31 34 37 38 38 38 39 40 39 37 35 34 33 32 32 32 32 32 32 32 33 34 34 36 36 35 34 33 32 32 29 27 25 22 19 15 13
27 28 27 26 28 30 30 30 33 37 38 37 36 37 38 39 39 38 36 34 33 33 32 32 32 32 32 33 33 34 36 35 34 33 32 30 29 28 21 17 14 12 9 10
30 28 27 26 28 28 28 33 33 37 37 36 36 36 37 38 38 39 38 37 35 34 33 33 33 33 33 34 33 35 36 35 33 32 31 27 22 20 16 15 20 22 21 26

GFSCGP_sfc_dewp_078.txt.gz
Dewpoint
42 38 34 34 35 34 34 32 32 34 36 36 38 34 40 42 45 45 43 39 33 34 32 32 34 34 37 37 39 44 60 60 63 62 62 62 62 62 63 64 64 64 61 60
39 35 35 38 36 36 35 32 30 33 34 35 35 34 35 36 39 40 38 34 33 33 30 30 33 34 38 39 38 37 38 39 44 57 61 62 62 62 62 62 63 63 64 63
36 36 39 38 36 35 33 31 30 30 31 33 33 31 33 35 35 35 35 34 33 33 31 30 36 38 40 41 41 40 38 37 38 39 42 46 57 60 60 62 61 61 62 63
38 39 38 37 36 35 31 35 33 31 29 28 30 27 29 32 33 34 34 34 33 32 30 32 37 40 41 42 42 41 41 41 40 39 39 39 44 53 55 52 50 50 55 58
36 37 36 35 36 36 33 37 33 31 29 27 27 26 27 27 27 31 32 33 34 32 31 34 39 41 43 43 43 43 44 45 45 44 40 40 40 42 43 43 44 46 52 53
38 40 38 37 39 37 39 34 33 32 28 26 26 27 27 26 25 26 29 32 34 31 32 36 41 45 44 44 43 43 44 45 47 47 47 43 41 44 45 47 47 48 49 50
37 37 39 38 35 37 35 33 24 21 26 23 26 25 26 27 26 26 26 27 31 31 34 39 44 44 43 43 42 42 43 44 46 46 47 47 46 46 46 47 47 47 47 47
31 30 37 38 34 34 33 32 23 17 20 20 25 24 24 27 28 28 28 28 29 33 37 42 44 43 42 41 41 42 43 43 45 45 45 45 45 45 44 43 44 42 44 44
27 30 37 38 39 36 34 30 27 25 19 16 21 23 23 24 24 25 27 30 31 35 39 42 43 41 40 40 41 42 42 43 43 42 40 38 38 37 36 36 36 36 36 38
30 26 35 37 39 38 36 35 29 28 19 17 18 18 20 20 21 25 30 33 35 38 41 42 41 40 40 40 40 40 41 41 39 39 38 37 37 36 35 35 35 34 34 35
31 27 32 36 35 34 36 34 32 29 23 17 16 17 21 22 21 21 29 35 38 40 41 41 39 40 39 38 37 38 39 38 37 37 37 36 36 36 35 35 35 35 35 35
33 28 25 30 36 36 35 33 34 29 23 20 16 19 21 22 23 24 32 38 40 40 40 40 39 39 37 36 36 36 38 38 37 36 36 36 36 36 35 35 35 35 35 35
33 28 25 30 32 36 35 35 34 33 27 17 23 23 22 25 26 31 35 39 40 39 40 38 39 38 37 36 35 36 37 37 36 36 36 36 35 35 34 35 35 35 35 34
38 30 25 20 22 29 32 32 34 34 29 26 24 23 23 23 25 29 34 38 40 39 39 38 38 37 37 35 35 35 36 36 36 36 35 35 35 36 36 36 35 36 36 35
33 28 28 27 25 30 30 31 33 33 33 30 26 25 26 27 25 27 31 37 39 38 38 37 37 37 36 35 35 35 36 36 36 36 35 35 36 37 36 36 36 36 36 37
31 28 26 22 26 28 28 28 30 32 33 33 32 31 32 29 26 27 31 36 38 38 38 37 36 36 36 35 35 35 35 35 36 35 35 36 36 36 36 36 36 35 36 36
29 27 23 20 25 24 21 25 27 28 32 32 30 32 30 29 29 28 31 36 37 38 38 37 36 35 35 35 35 35 35 35 35 34 35 35 36 36 36 35 35 34 35 35
28 25 24 20 22 15 21 25 27 27 27 31 31 31 30 30 29 30 30 32 35 38 39 37 36 35 35 36 36 35 35 34 34 34 35 36 36 36 35 34 34 33 32 31
29 28 28 25 21 21 22 24 27 26 25 28 28 29 30 30 31 31 32 31 32 35 37 37 35 35 36 36 36 35 34 34 34 34 35 36 36 35 35 34 33 32 30 22
30 30 29 25 22 18 18 30 29 30 25 30 31 29 29 31 28 30 34 36 36 37 37 33 34 35 36 35 35 35 34 34 34 35 36 35 36 35 34 33 32 31 25 23
29 32 28 27 25 23 25 26 31 22 22 34 34 33 31 31 30 32 37 37 37 35 33 33 34 35 35 35 35 34 33 33 35 35 36 36 36 35 34 33 31 25 26 26
27 27 28 28 27 21 28 32 27 29 34 35 35 33 32 34 34 35 35 33 33 32 33 33 33 33 34 35 34 33 33 34 35 35 35 35 35 34 33 31 29 28 27 23
25 28 27 27 25 27 30 33 34 34 36 36 36 36 34 35 35 35 33 32 32 32 32 33 33 32 32 33 33 32 32 34 34 35 35 34 34 33 32 29 27 23 22 21
27 28 26 27 26 28 29 29 32 36 36 37 38 40 38 36 37 35 33 32 32 32 32 32 32 32 32 32 33 33 34 35 35 34 34 34 33 32 30 28 27 23 20 17
28 27 26 26 27 28 29 30 30 34 37 36 36 38 39 39 38 36 35 34 32 32 32 32 31 32 32 33 33 34 35 36 35 34 33 33 33 33 27 26 23 21 17 16
29 27 26 25 27 27 27 32 31 35 37 36 36 35 36 38 39 38 38 37 34 33 33 32 32 32 32 33 33 34 35 35 35 33 32 32 31 28 24 20 16 23 22 22

GFSCGP_sfc_dewp_081.txt.gz
Dewpoint
43 38 35 36 35 34 34 34 32 34 38 41 41 39 40 44 44 45 44 43 43 43 38 33 34 38 42 45 54 61 63 64 65 64 64 64 64 65 65 66 65 64 62 62
37 35 35 37 37 36 34 33 33 33 36 38 38 39 38 43 43 44 44 42 42 38 34 33 33 35 38 39 42 45 58 57 62 63 64 64 64 64 64 65 65 65 65 65
35 37 38 37 36 35 34 32 32 31 32 34 35 34 35 37 41 43 44 43 42 38 34 33 32 36 40 40 40 39 40 42 43 48 50 51 60 62 64 64 64 63 63 64
38 39 37 36 34 34 32 34 33 31 31 31 30 29 31 35 38 38 39 39 38 36 34 34 34 38 40 42 44 41 41 41 41 41 42 44 49 55 58 55 51 51 55 57
36 37 37 36 36 34 33 36 33 31 29 29 28 28 28 30 33 34 35 36 36 36 35 33 35 40 42 44 44 45 46 46 46 43 42 42 42 44 45 45 45 47 52 52
38 40 38 37 39 37 37 34 33 32 29 26 27 27 27 27 27 28 32 35 35 35 35 34 38 43 44 45 45 46 46 47 48 48 47 44 44 45 46 48 48 49 50 50
37 37 39 38 35 38 36 31 27 24 25 23 26 26 27 28 29 27 28 28 32 34 34 34 40 44 44 44 44 45 45 46 47 47 47 48 48 48 48 48 47 47 48 48
32 29 37 38 35 34 34 32 25 19 21 22 25 24 25 28 28 29 28 29 30 31 33 37 42 44 44 43 43 44 44 45 46 46 46 46 46 45 44 44 43 41 42 43
30 30 37 38 38 36 34 32 29 25 21 20 21 23 23 24 24 25 26 29 30 31 35 39 43 43 42 42 43 43 44 45 44 43 41 39 39 39 38 37 37 37 37 37
31 28 35 37 39 38 36 33 29 30 20 19 20 19 20 21 22 23 23 27 32 34 38 42 42 41 41 41 42 43 44 43 41 40 39 38 37 37 36 36 36 36 35 36
30 28 32 37 36 35 36 34 32 29 24 20 16 17 22 23 23 21 23 25 34 37 41 42 41 40 40 40 40 41 41 40 39 39 38 37 37 36 36 36 35 36 36 36
32 29 28 31 36 36 35 33 33 29 24 21 19 21 22 21 23 25 25 32 38 40 42 41 40 39 38 38 38 39 39 38 38 37 37 37 36 36 36 36 36 36 36 36
33 31 26 29 32 35 34 34 34 31 29 20 23 22 22 25 26 28 32 36 40 40 41 40 39 39 37 37 36 37 38 37 37 37 37 36 36 36 36 36 36 35 35 35
37 32 26 22 23 29 31 33 34 34 29 25 25 25 26 27 26 27 32 37 40 40 40 39 39 38 37 36 36 36 37 37 37 37 37 36 36 36 36 36 36 36 36 35
38 32 31 29 26 31 30 31 32 31 31 28 26 26 26 27 27 27 28 34 39 39 39 39 39 38 37 36 35 36 37 37 37 37 36 37 37 37 37 36 36 37 37 36
32 31 28 25 27 26 27 29 32 31 31 31 30 30 32 31 30 32 32 31 37 39 39 39 38 38 37 36 35 35 36 36 37 36 36 36 37 37 37 36 36 36 37 37
30 30 28 26 26 24 22 27 29 30 32 32 30 31 32 32 33 34 35 33 34 38 39 39 38 38 37 36 36 35 35 36 35 35 36 36 36 36 36 35 35 35 35 35
30 27 28 26 23 17 22 25 28 28 28 31 32 31 32 33 34 33 31 31 34 38 39 39 39 37 37 36 36 35 35 35 35 35 35 36 36 36 35 35 34 34 33 32
30 29 28 25 22 21 22 23 25 24 23 28 28 30 31 32 31 31 31 31 32 36 38 39 38 37 36 36 36 35 34 34 34 35 35 36 36 35 35 35 34 33 32 30
29 32 32 25 20 18 19 28 29 29 25 29 29 29 29 30 28 30 32 33 32 33 37 37 36 36 36 36 36 35 34 34 34 35 36 36 36 35 35 34 33 32 29 28
29 32 28 27 24 24 24 28 30 25 22 33 36 35 33 30 31 33 37 38 37 37 36 35 35 36 36 36 36 35 35 35 35 36 37 36 36 35 35 33 32 29 28 27
28 27 27 29 26 22 29 30 26 28 33 36 36 35 33 33 33 35 35 36 35 34 35 34 35 35 36 36 36 35 35 36 36 36 36 36 36 35 34 32 30 28 28 26
28 27 27 27 25 28 30 30 32 34 34 36 37 37 34 35 35 35 34 33 33 33 33 34 34 34 35 35 35 34 34 35 35 35 35 35 35 34 33 31 30 28 27 25
32 28 27 28 27 29 28 29 31 33 35 37 38 40 35 35 36 35 33 32 32 32 32 32 33 33 33 34 34 34 34 35 35 34 35 34 34 32 32 30 30 27 25 23
29 29 27 26 27 28 29 29 29 30 35 37 37 38 39 39 37 36 35 33 32 33 33 32 32 32 33 33 34 33 35 35 35 34 34 34 33 33 31 30 28 26 23 21
30 28 26 26 27 27 27 28 31 31 36 37 36 36 37 38 39 38 37 36 34 33 33 32 32 32 32 33 33 34 35 35 35 34 34 33 33 33 31 30 27 30 28 27

GFSCGP_sfc_dewp_084.txt.gz
Dewpoint
41 39 33 32 35 32 32 32 31 33 38 37 36 36 36 37 40 40 39 38 39 41 42 43 37 37 53 61 64 65 65 65 65 65 65 66 65 66 66 66 66 65 65 64
37 35 33 37 36 33 32 29 29 33 35 38 35 35 36 36 38 39 38 39 38 40 42 42 36 35 42 54 57 62 64 65 65 65 65 65 65 65 65 66 66 66 66 66
36 37 36 34 35 33 31 28 30 29 33 37 35 32 34 36 38 39 39 42 41 40 41 41 38 35 39 43 48 51 57 62 64 64 64 63 64 65 65 65 65 65 65 66
36 38 36 34 32 33 31 34 33 32 31 28 34 24 30 32 34 37 37 39 40 42 42 42 37 35 37 41 45 44 44 48 49 50 56 60 61 62 62 62 60 58 57 58
36 36 35 34 33 33 30 35 33 33 31 30 30 29 25 30 30 33 36 37 38 41 41 38 37 38 40 44 46 44 43 44 43 42 43 44 44 46 47 47 48 49 53 53
38 40 36 32 38 36 36 34 33 32 29 26 23 27 22 25 25 28 33 35 38 38 40 38 39 39 41 46 46 47 46 46 47 46 43 43 44 43 44 46 47 48 50 51
37 38 39 39 36 37 35 32 29 28 28 22 26 26 21 23 28 28 28 30 34 37 38 37 37 39 42 45 46 46 46 46 47 48 48 48 48 48 47 48 48 48 48 49
33 30 37 38 35 34 31 29 25 18 17 17 26 22 19 26 28 29 30 30 30 31 34 37 37 39 42 44 45 45 45 46 46 47 47 47 48 47 47 47 46 44 45 45
31 31 37 38 37 36 34 34 30 28 23 24 21 24 26 25 26 27 27 29 30 31 32 34 36 40 42 44 44 44 45 46 46 45 44 43 43 43 42 41 42 41 40 39
31 30 36 38 38 38 35 32 30 33 24 19 19 20 16 19 21 22 22 23 25 31 32 34 38 42 43 43 44 45 45 45 44 43 42 41 41 40 40 40 40 39 38 39
31 30 33 38 37 36 34 32 32 28 26 22 15 15 21 22 22 23 24 26 30 33 35 36 40 42 42 43 44 44 44 43 42 42 41 40 40 39 39 38 38 38 38 38
31 30 30 31 35 36 34 30 30 27 24 25 24 19 22 22 22 25 27 33 37 38 38 40 41 42 41 41 41 42 42 41 41 41 40 39 39 39 38 38 38 37 37 37
33 34 29 29 32 35 35 33 33 31 30 31 24 20 22 24 25 27 30 33 37 39 40 41 41 41 40 40 40 40 40 40 39 39 39 38 38 38 38 38 37 37 36 36
36 34 28 23 24 29 31 30 32 34 32 26 27 23 22 24 27 28 28 29 35 39 39 41 41 41 40 39 38 38 39 38 38 38 38 38 38 38 38 38 38 37 36 36
37 33 32 29 28 30 30 30 31 33 33 30 26 25 25 25 25 26 29 30 33 38 39 40 41 40 40 38 38 38 38 38 38 38 38 38 38 38 38 38 38 38 37 36
39 33 34 32 34 30 30 29 30 30 31 30 29 28 28 28 29 30 30 31 32 33 38 40 41 41 40 39 38 37 38 38 38 38 38 38 38 38 38 38 38 37 37 37
34 33 31 28 31 31 29 28 28 29 30 30 30 30 30 30 31 32 32 32 34 35 34 39 40 41 40 39 39 37 37 37 37 37 37 37 37 37 37 37 36 37 37 36
35 33 33 27 25 22 22 26 28 27 27 29 30 30 30 30 31 33 33 33 33 32 33 37 40 41 41 40 38 37 37 37 38 37 37 37 37 37 37 36 36 36 35 35
36 34 32 27 23 22 23 24 25 25 23 27 28 28 29 30 31 33 33 33 34 33 33 37 40 41 41 39 38 37 36 36 36 36 37 37 37 37 36 36 36 35 33 33
33 34 31 30 23 18 18 28 27 28 23 30 29 30 32 33 30 32 33 33 33 32 34 38 41 40 39 38 38 37 36 35 35 36 36 37 37 37 37 37 35 34 33 33
31 34 30 28 26 24 25 29 30 21 22 33 36 37 36 33 32 34 36 37 38 35 35 38 39 38 38 38 37 37 37 36 36 37 37 37 37 38 37 35 34 32 30 29
29 29 28 27 26 21 28 30 25 26 34 35 37 38 36 35 34 35 36 37 37 37 36 37 38 38 38 38 38 37 38 38 37 37 37 37 37 36 35 34 32 29 27 26
29 29 26 27 24 28 29 28 29 33 33 35 38 38 35 35 35 36 36 35 35 36 36 36 38 38 38 38 38 38 38 37 37 36 36 36 36 35 34 33 31 29 28 25
35 35 30 29 26 30 29 29 33 33 34 36 38 39 35 35 36 36 35 34 34 34 34 35 35 35 36 36 37 37 36 36 36 35 35 35 35 34 33 32 30 30 28 26
26 29 33 28 28 28 29 30 30 30 31 34 38 39 39 39 38 37 36 34 34 34 33 33 34 34 35 35 35 35 35 35 35 35 35 35 34 34 32 31 30 30 28 26
18 22 27 27 29 28 28 32 31 31 32 35 38 37 38 39 39 38 38 36 34 33 33 34 36 34 35 35 35 34 35 35 35 34 34 34 34 34 32 31 30 34 30 29

GFSCGP_sfc_dewp_087.txt.gz
Dewpoint
41 39 33 30 30 29 25 26 23 25 33 36 35 34 34 34 38 39 37 35 34 36 41 43 41 37 51 62 63 64 64 65 65 66 65 66 66 67 66 65 65 64 64 64
38 35 33 31 30 32 31 26 27 30 33 33 30 30 31 33 34 36 36 35 35 35 38 43 40 36 37 55 61 63 64 65 65 66 65 66 68 68 67 68 67 67 66 66
37 34 35 33 33 30 29 26 30 28 31 33 31 30 30 31 33 34 36 36 37 39 36 41 41 40 38 46 54 59 63 64 65 66 66 66 66 67 65 65 65 65 65 66
36 37 35 33 30 29 27 29 27 28 30 26 31 19 20 25 30 33 34 36 36 40 40 40 42 41 39 43 51 50 56 62 64 62 64 63 63 63 64 64 64 63 59 60
35 35 34 32 29 30 28 33 31 31 29 29 29 27 23 25 27 29 32 34 35 38 42 41 43 42 42 47 49 47 47 50 51 53 56 59 60 58 56 52 53 52 54 54
37 40 34 31 33 34 35 32 31 31 30 30 26 26 22 22 25 26 28 31 33 35 39 42 42 41 40 47 48 49 46 45 45 45 45 46 47 45 46 47 46 47 49 51
37 37 36 38 35 35 33 29 29 26 28 23 22 20 22 21 23 25 26 27 32 34 36 39 40 40 41 46 47 48 47 46 47 46 45 45 47 47 47 48 48 47 47 49
32 31 35 35 33 30 29 29 26 18 16 17 24 19 19 21 23 22 27 29 30 31 36 39 42 41 41 46 47 46 45 45 46 47 47 48 48 48 47 47 46 45 46 46
34 34 36 37 35 36 31 32 28 27 24 21 18 20 20 21 24 27 27 29 31 31 31 35 39 39 40 44 45 44 45 46 46 46 46 45 45 45 44 44 43 43 42 40
36 32 36 37 37 37 37 32 29 33 22 15 11 17 15 17 19 21 22 23 25 26 30 32 35 40 40 43 44 45 45 45 45 45 43 43 42 42 42 42 41 41 40 40
30 32 34 38 36 30 33 32 31 28 21 18 11 14 19 20 21 23 25 29 31 32 31 32 34 40 43 43 44 44 44 44 44 43 42 42 41 41 40 40 39 39 39 39
31 32 34 32 36 36 33 29 28 27 23 24 23 20 20 22 22 25 29 33 36 37 36 36 37 41 42 43 44 44 44 43 43 42 41 41 41 40 40 39 39 38 38 38
32 34 29 31 35 36 36 36 34 29 28 32 24 20 23 24 25 26 29 28 30 37 38 38 39 40 41 42 42 43 42 42 41 41 40 40 40 39 39 39 38 37 37 37
39 33 28 24 27 29 31 30 31 33 33 27 28 23 23 23 25 26 28 28 28 31 37 38 40 40 40 41 41 41 40 40 40 39 39 39 39 39 39 39 38 38 37 36
38 33 33 30 27 29 31 29 29 33 33 31 27 25 25 25 25 25 26 27 29 30 35 38 40 40 40 40 40 40 40 39 39 39 39 39 39 39 39 39 38 38 38 37
39 34 35 33 35 29 29 28 29 29 29 31 30 29 28 28 27 27 27 28 29 31 32 37 40 40 40 40 39 39 39 39 39 39 39 39 39 39 39 39 38 38 38 37
34 34 33 30 34 34 30 31 30 29 29 29 29 29 29 28 28 29 29 30 30 30 33 33 38 40 41 40 40 38 38 38 38 38 38 38 38 38 38 38 38 38 38 37
33 32 34 30 31 24 23 27 30 28 28 28 28 28 28 28 28 29 29 30 31 31 32 34 35 39 41 41 40 39 39 38 39 38 38 38 38 38 38 37 37 37 37 37
35 33 32 28 23 20 21 24 24 24 23 25 26 25 25 26 29 32 33 33 32 32 32 33 34 37 41 41 40 39 38 38 38 38 38 38 38 38 37 37 38 37 34 34
34 35 33 32 26 16 20 25 26 26 21 28 28 29 32 34 31 32 35 35 35 33 34 34 36 37 40 41 40 39 37 37 37 37 38 38 38 38 37 37 37 36 35 33
31 32 29 28 25 22 24 28 29 19 24 34 35 36 36 34 33 36 36 36 38 37 34 35 39 40 41 41 40 39 39 39 38 38 39 38 38 39 39 37 36 34 32 32
29 29 30 30 27 21 27 29 24 28 33 32 35 38 37 35 34 34 36 37 38 37 36 38 40 41 41 41 40 40 40 41 39 38 38 38 38 37 37 36 34 31 30 29
26 31 31 27 25 29 29 27 30 29 30 32 37 39 38 35 34 35 36 36 36 36 37 38 40 40 40 40 39 40 40 39 38 37 37 37 37 37 36 34 32 29 28 28
31 35 32 29 26 27 29 29 29 32 32 34 35 38 38 35 36 36 36 35 35 36 36 37 37 38 38 38 38 38 38 37 37 36 36 36 36 35 35 33 32 30 29 28
20 27 32 32 31 30 28 30 31 31 30 32 33 37 39 40 39 38 37 36 35 35 35 35 35 35 36 36 36 36 37 36 36 36 35 35 35 35 33 32 31 31 31 30
19 18 18 20 32 32 30 32 33 33 32 32 33 38 39 39 39 39 38 37 35 35 34 34 34 34 35 35 35 36 36 36 35 35 35 35 34 34 33 32 31 34 34 34

GFSCGP_sfc_dewp_090.txt.gz
Dewpoint
41 39 35 32 33 28 28 28 26 30 39 39 35 35 35 35 40 39 38 38 36 36 43 44 40 39 51 61 63 64 64 65 65 66 65 65 64 65 65 65 64 63 64 64
39 35 33 32 31 30 32 25 25 33 37 38 33 33 33 33 34 38 38 37 36 36 39 42 39 37 51 60 62 64 64 65 65 66 66 66 66 65 66 66 66 66 66 66
35 38 36 34 32 31 31 29 29 31 32 32 31 30 29 30 31 33 35 36 36 36 37 42 38 37 38 52 59 61 64 64 65 65 65 64 65 66 65 65 65 66 65 66
36 37 35 34 32 31 29 30 34 33 30 27 30 24 27 29 30 31 32 34 36 36 38 41 41 39 38 41 56 58 61 64 64 65 64 63 63 62 63 64 65 61 60 60
35 36 34 33 30 30 30 32 33 34 29 28 30 28 25 25 28 29 31 33 36 36 38 41 41 41 42 48 50 50 52 58 60 59 62 63 62 61 58 58 57 56 55 54
36 39 38 34 34 32 35 34 31 30 30 26 29 27 25 23 23 27 30 32 34 36 38 42 43 42 43 49 49 49 49 50 48 53 53 56 58 48 47 49 49 49 52 52
35 36 37 38 36 37 35 31 28 25 26 22 23 25 24 24 23 25 27 28 31 34 38 40 42 41 43 47 48 48 46 47 47 45 44 45 45 44 45 47 47 47 48 50
27 29 36 37 36 33 32 31 28 19 19 19 22 21 20 21 24 26 28 29 30 29 33 39 42 41 43 47 47 46 47 47 47 47 47 48 48 48 48 47 47 45 46 46
30 28 35 36 35 35 31 28 30 31 26 21 23 22 22 21 23 26 27 29 30 29 31 42 40 42 44 46 46 46 46 46 47 47 47 46 46 46 45 44 43 43 42 39
36 30 36 36 38 37 38 35 29 29 17 16 12 13 17 18 20 25 24 26 29 28 29 33 36 41 42 45 47 46 46 47 46 45 44 43 43 43 42 42 41 40 40 40
37 35 35 37 35 33 35 36 36 30 25 17 15 17 19 20 24 25 29 32 33 33 31 32 35 38 42 44 45 45 46 46 44 43 42 42 41 41 41 40 40 39 39 39
32 36 30 33 37 36 33 33 34 31 25 25 23 22 21 23 23 25 32 35 36 37 37 35 38 41 42 44 45 46 47 45 44 42 42 41 41 40 40 39 39 39 38 38
34 33 29 32 35 37 36 34 32 32 32 26 23 20 23 24 24 26 30 28 35 37 37 38 39 41 42 43 43 44 44 43 42 42 41 41 40 40 39 39 38 38 37 37
40 34 26 22 28 32 32 33 33 33 31 27 28 26 24 25 25 26 30 29 28 31 37 38 39 40 41 42 43 43 42 42 41 40 40 40 39 39 39 38 38 37 37 36
36 31 34 30 29 33 34 31 32 33 34 28 27 28 27 26 26 26 27 28 28 29 32 38 39 40 40 41 41 41 40 40 40 39 39 39 40 39 39 39 39 38 38 37
36 32 32 32 35 35 32 31 31 31 32 33 31 29 30 31 31 29 28 29 30 30 31 32 39 40 40 40 40 40 40 39 39 39 39 39 39 39 39 39 38 38 38 37
31 31 30 28 33 32 29 32 30 30 30 31 30 30 30 30 30 29 30 30 30 31 31 32 36 40 40 40 40 39 39 39 39 39 39 39 39 39 39 38 38 38 36 36
29 26 29 30 31 22 26 29 31 30 30 30 30 30 30 30 30 31 30 29 30 31 32 32 35 39 41 41 40 39 39 39 39 39 39 39 39 38 38 37 37 38 36 36
31 28 28 28 26 23 22 25 28 29 27 29 28 28 27 28 31 31 34 34 34 34 32 33 34 35 41 41 40 39 39 38 39 39 39 39 39 38 37 36 38 36 34 34
31 31 30 30 24 22 23 25 26 26 22 31 28 29 33 34 31 33 36 36 35 37 36 34 36 36 41 41 40 39 38 38 38 38 38 38 39 38 37 37 37 35 34 33
30 30 25 28 27 25 27 27 29 20 27 35 35 36 36 35 35 35 36 37 38 38 37 37 38 39 40 41 40 39 38 38 38 39 39 38 38 37 36 36 35 34 33 33
27 27 27 28 25 24 30 29 24 30 32 33 35 38 38 36 35 35 36 37 37 38 37 39 40 41 41 41 40 39 38 39 39 39 38 38 38 38 38 36 35 33 31 31
25 31 30 34 30 30 30 30 30 31 30 32 37 39 39 36 35 36 36 36 36 36 37 40 39 39 39 40 40 39 39 38 38 38 37 37 37 37 36 35 33 31 30 30
29 33 31 30 29 32 32 30 32 31 32 32 35 36 38 35 37 37 36 35 35 36 36 38 38 38 38 38 39 39 39 38 37 37 37 36 36 36 35 34 33 31 29 29
23 22 26 28 28 31 32 32 33 33 34 31 33 33 39 40 39 38 36 35 35 35 35 35 36 37 37 37 37 38 37 37 36 36 36 35 36 35 34 33 32 31 30 30
21 19 18 19 24 30 32 26 34 36 36 35 33 37 39 39 39 39 38 36 35 35 35 34 34 35 35 35 35 36 36 37 36 35 35 35 34 35 33 32 32 35 34 35

GFSCGP_sfc_dewp_093.txt.gz
Dewpoint
40 35 32 34 35 33 31 29 29 35 41 39 40 40 39 37 39 38 38 39 38 39 45 45 44 46 57 62 65 66 65 65 66 65 65 65 65 66 65 65 64 63 63 63
35 32 36 37 34 32 31 27 29 37 41 40 39 38 38 37 38 39 39 39 38 37 42 43 40 40 51 60 64 65 65 66 66 66 65 65 65 64 64 65 66 66 66 66
32 37 39 36 34 31 31 29 29 34 37 40 38 34 32 34 33 39 39 39 38 38 38 42 38 38 48 60 62 63 64 65 65 65 65 64 63 64 64 65 65 65 65 65
35 38 36 35 34 32 30 34 34 34 33 29 31 24 27 30 30 31 35 38 37 37 39 42 37 36 39 57 60 62 64 64 64 65 64 62 62 62 63 64 64 63 62 61
31 36 35 34 33 32 31 35 34 36 30 29 29 27 28 27 27 29 30 33 35 36 37 42 39 37 38 44 55 57 60 62 62 64 64 63 61 62 60 61 61 58 57 56
35 39 38 35 37 35 35 34 32 31 30 23 28 29 27 24 24 29 30 31 34 36 37 38 42 40 40 48 49 49 53 55 57 59 60 62 61 57 56 56 55 54 53 52
31 33 38 38 34 36 34 32 27 20 20 20 26 27 27 27 26 25 28 30 32 35 36 40 41 40 43 46 47 47 49 49 49 53 55 54 55 52 51 51 50 49 51 50
22 17 35 37 35 32 33 32 25 18 20 19 23 22 21 24 25 27 28 29 29 29 33 40 41 40 43 45 46 46 46 45 45 45 46 51 49 49 49 50 47 47 48 46
27 26 36 36 36 34 30 28 30 28 27 19 22 23 23 23 24 26 27 29 29 29 33 39 41 40 43 45 46 45 46 46 47 47 48 48 48 47 47 44 43 43 42 41
33 26 35 35 37 38 36 35 27 30 23 18 15 18 18 18 20 25 27 28 29 28 30 36 39 41 44 46 46 46 46 47 47 46 45 45 44 43 43 42 41 40 40 40
36 35 34 36 34 33 35 34 34 30 25 17 14 15 19 20 25 28 31 34 34 34 33 33 35 40 43 45 46 45 46 47 45 44 43 42 42 41 41 40 40 39 39 40
37 36 31 35 37 36 35 34 34 25 24 23 21 20 23 23 27 32 34 35 35 36 36 35 37 41 43 44 45 45 46 46 45 44 43 43 41 40 40 39 39 39 38 38
37 33 27 30 35 37 35 36 36 35 31 20 20 20 23 24 24 30 33 35 36 36 37 37 40 41 42 43 44 45 45 44 43 43 42 42 42 41 39 39 39 38 38 37
38 32 30 26 30 33 33 32 34 35 30 24 24 25 23 24 24 26 29 29 34 37 37 38 38 40 42 43 43 44 44 43 42 42 41 41 40 39 39 38 38 37 37 37
36 29 33 33 32 35 35 33 34 33 32 27 26 27 28 29 28 26 27 28 29 30 37 38 39 40 40 42 43 43 42 41 41 40 40 40 40 39 39 38 38 38 38 37
34 30 32 29 33 35 31 33 34 34 34 33 32 30 30 30 32 31 30 30 29 29 30 37 39 40 40 41 42 41 40 40 40 40 39 40 39 39 39 39 38 38 37 37
27 28 22 25 34 32 28 31 33 30 33 34 31 32 32 32 31 31 30 30 30 30 31 31 36 40 40 41 41 41 40 39 39 39 39 39 39 39 39 38 38 37 36 36
25 24 23 23 31 21 26 31 32 31 30 32 33 32 32 32 32 33 30 29 29 30 31 31 32 39 40 41 41 40 40 39 39 39 39 39 39 39 38 38 37 36 35 34
28 25 21 23 27 26 22 24 31 30 29 31 31 31 31 30 30 29 35 35 34 35 35 35 33 36 41 41 40 39 39 39 39 39 39 39 39 38 37 36 35 34 33 32
30 29 26 26 24 21 23 24 26 25 21 33 29 29 29 33 26 30 35 36 36 38 38 37 36 35 40 41 40 39 38 38 38 39 39 39 39 38 36 35 35 36 35 34
28 29 24 24 25 26 27 26 29 18 19 35 36 36 37 35 35 35 35 36 38 38 37 37 37 39 39 41 39 39 38 38 39 39 39 39 38 37 35 35 35 35 34 33
26 26 26 26 23 21 29 28 23 29 31 32 35 38 38 37 34 34 36 36 37 37 37 40 39 39 40 40 40 38 38 39 39 39 38 38 37 37 36 34 35 34 33 33
22 30 29 33 30 35 36 32 32 31 30 32 38 40 38 36 35 36 36 35 36 36 38 39 38 38 39 40 39 38 38 38 38 38 37 36 36 36 35 35 34 33 32 31
27 30 28 27 30 31 35 31 31 34 33 33 34 36 38 35 37 36 35 35 35 36 37 38 38 37 37 39 39 39 38 38 37 37 36 36 35 35 36 35 34 33 31 31
23 22 23 25 23 30 32 27 31 35 37 37 35 32 39 40 38 37 39 36 35 35 35 36 37 37 37 37 38 38 38 37 37 36 36 35 36 36 35 34 33 32 31 31
22 20 19 19 24 25 27 26 33 32 35 37 37 35 39 39 38 39 36 35 35 35 35 34 35 36 35 36 36 36 37 37 36 36 36 36 36 35 34 33 33 36 35 35

GFSCGP_sfc_dewp_096.txt.gz
Dewpoint
39 32 30 32 34 34 32 35 35 35 40 40 39 41 43 45 43 38 40 40 39 43 46 47 52 60 62 64 64 64 65 65 65 66 65 65 64 66 65 64 63 63 63 62
32 28 37 38 36 33 32 30 30 36 39 39 37 35 39 43 41 38 38 39 39 38 40 45 45 50 59 63 64 64 64 65 65 65 65 66 65 65 66 66 66 66 65 65
29 34 38 36 35 32 30 27 31 34 40 40 37 35 37 38 38 37 39 39 39 39 38 43 43 42 48 60 63 64 65 65 65 65 64 63 64 64 64 64 64 65 66 66
34 37 36 35 33 32 30 33 31 36 36 33 37 27 28 31 33 35 35 39 39 38 38 41 43 40 40 56 61 64 65 65 65 65 64 64 63 63 63 63 63 63 64 64
30 35 36 34 33 33 31 35 35 36 31 29 30 28 28 29 28 30 31 35 39 38 38 40 42 41 39 45 57 59 61 62 63 64 64 63 61 61 61 62 62 60 58 59
34 38 37 36 36 36 34 34 33 36 33 27 27 29 27 27 26 27 29 31 34 38 37 40 42 40 38 41 52 55 58 60 61 61 61 61 61 59 58 58 58 56 55 54
29 32 37 37 33 35 35 36 29 27 27 25 26 29 27 28 28 25 26 29 32 34 37 37 42 41 40 45 49 50 55 56 57 58 58 59 59 57 58 58 57 55 53 53
21 16 34 37 33 31 32 34 26 18 21 21 27 25 24 27 28 29 27 30 31 33 35 37 41 42 41 45 48 48 49 50 49 52 53 52 55 55 55 55 54 54 53 50
26 25 34 36 37 34 31 30 31 26 24 20 21 22 23 24 23 26 28 29 29 30 35 35 41 41 41 44 46 46 46 46 45 45 48 50 51 52 52 50 52 51 49 46
31 30 33 35 38 38 33 34 30 30 23 19 17 21 19 19 22 25 27 28 28 29 33 40 41 40 42 44 45 45 46 46 46 47 47 46 46 46 45 45 43 41 40 41
32 33 30 36 34 32 34 32 32 29 25 20 14 15 18 19 21 26 28 31 32 32 32 33 39 41 43 45 46 45 46 47 46 45 44 43 42 42 41 41 40 40 40 40
35 35 30 30 38 39 36 33 32 26 23 22 20 18 24 26 29 32 33 34 35 35 34 34 37 40 43 45 45 45 46 46 45 44 43 43 42 41 40 40 39 39 39 39
36 33 27 29 34 37 36 35 34 32 30 21 19 18 24 25 31 33 33 34 34 35 36 37 39 40 41 43 44 44 45 46 44 43 43 43 42 41 41 41 40 39 39 38
38 32 29 23 28 34 32 35 35 33 28 24 22 21 22 23 25 30 32 33 36 37 36 37 38 40 41 43 44 44 44 44 43 43 42 42 42 42 42 41 40 39 38 37
34 25 30 31 32 34 34 34 35 33 32 26 26 26 27 24 26 25 27 29 30 31 36 37 37 39 41 42 43 44 44 43 43 42 42 42 41 40 39 38 38 37 37 37
32 27 22 23 30 32 30 34 36 36 35 32 32 31 29 29 29 32 31 31 30 29 33 37 38 38 40 41 43 43 43 42 42 41 41 40 40 39 38 38 38 38 37 37
25 23 15 15 26 31 25 29 33 33 35 35 32 32 33 34 33 32 32 31 30 30 30 31 36 39 39 40 42 42 41 41 40 40 40 39 39 38 38 38 38 37 36 36
23 21 22 15 28 21 28 30 33 33 32 33 34 34 34 33 34 34 33 30 29 29 30 31 32 33 40 41 42 42 41 40 40 39 39 39 39 38 38 37 36 35 35 34
26 23 19 20 23 27 24 24 31 30 29 32 31 32 34 32 32 30 34 34 35 34 35 36 36 35 36 41 41 41 40 39 39 39 39 39 39 38 37 36 35 33 33 32
29 29 24 24 22 19 24 25 26 28 22 34 32 31 31 30 27 28 36 35 36 37 38 37 37 37 36 41 41 40 39 39 39 39 39 39 39 38 36 35 34 35 35 33
24 24 19 18 18 25 31 30 28 19 18 34 36 36 36 34 32 35 35 36 37 37 37 38 40 40 39 41 40 40 39 39 39 39 39 39 38 37 36 35 35 32 35 34
25 22 21 25 21 20 36 32 26 30 31 31 35 38 37 36 34 34 36 36 36 36 37 39 38 38 39 40 40 39 39 39 39 39 39 38 38 37 36 35 33 34 35 34
26 28 28 28 25 35 36 35 32 35 33 34 34 39 38 35 35 35 36 36 36 36 38 38 37 37 38 39 39 38 37 39 38 38 38 37 36 35 34 33 32 34 34 33
23 28 27 28 28 27 35 37 37 35 35 36 37 34 38 35 36 36 35 35 35 35 37 38 37 36 37 38 38 38 38 38 38 37 36 36 35 35 34 34 35 34 33 32
22 23 21 24 22 29 30 27 31 36 34 36 37 38 35 39 38 36 38 38 35 35 35 37 37 37 36 37 37 37 37 38 37 36 35 35 35 35 34 35 34 34 33 33
22 21 19 19 23 24 24 25 26 31 35 37 38 37 38 40 40 41 38 35 35 35 35 35 35 36 35 36 36 36 37 37 36 35 35 36 36 36 35 34 34 36 36 36

GFSCGP_sfc_dewp_099.txt.gz
Dewpoint
37 33 33 32 35 33 34 35 34 37 41 41 39 40 43 44 44 42 41 39 41 43 46 50 56 61 62 64 64 64 65 65 66 65 65 65 65 65 64 63 62 62 61 62
30 28 37 38 36 33 31 33 31 36 41 39 41 39 41 44 43 42 41 39 40 40 41 45 47 53 60 62 63 64 65 64 65 66 65 65 65 65 65 65 65 64 64 64
26 32 38 35 33 31 30 29 30 33 39 39 38 36 38 40 43 43 42 39 39 40 40 40 45 45 54 60 62 64 64 64 64 64 64 63 63 63 63 64 64 65 65 65
33 36 35 34 33 32 29 32 30 38 36 31 36 26 29 36 39 40 40 38 39 39 39 39 42 44 44 55 61 63 64 64 64 64 63 62 62 62 64 63 63 64 64 64
27 34 34 33 33 34 30 35 33 38 32 30 35 28 28 30 34 35 38 36 37 39 39 39 40 44 43 44 57 60 61 62 62 63 63 63 62 62 61 61 62 62 62 62
32 36 37 34 36 36 34 34 35 36 33 28 28 29 27 28 28 29 32 32 33 35 38 39 40 42 43 41 53 57 60 60 61 61 62 62 61 59 59 58 59 58 58 59
28 31 36 37 33 34 35 32 29 26 28 22 27 29 29 29 28 27 28 29 30 32 35 38 39 41 41 40 45 53 57 58 59 60 60 60 59 59 58 58 57 56 55 56
22 16 32 36 32 30 32 34 25 19 21 24 28 27 27 27 27 29 28 28 30 31 34 37 38 41 41 41 43 49 52 55 56 57 58 57 58 57 56 56 56 56 55 53
26 24 31 36 37 34 32 27 33 30 22 19 25 22 22 24 24 26 27 29 29 31 32 35 37 40 42 42 44 47 50 51 50 50 51 51 52 52 52 52 52 53 53 52
29 24 31 34 38 38 33 34 29 30 22 19 19 19 18 19 21 25 28 28 29 29 35 39 39 40 41 42 45 46 47 47 46 46 48 48 49 49 49 49 49 48 47 46
31 31 28 36 33 31 34 30 31 30 29 19 15 15 21 22 20 24 27 29 29 30 32 36 40 41 42 44 45 45 45 46 46 46 46 45 45 44 44 43 42 41 41 41
32 31 27 28 36 39 37 33 32 27 24 21 17 18 24 25 26 26 29 33 33 34 33 34 39 41 43 43 44 44 45 46 46 45 44 43 42 41 41 40 40 40 39 39
33 31 24 23 34 37 36 35 34 31 29 22 19 19 23 25 31 33 32 33 34 35 36 35 37 38 40 42 44 44 44 45 45 43 43 42 41 40 40 40 39 39 39 39
35 30 26 19 27 32 31 35 34 32 28 24 23 21 21 23 28 32 32 34 34 35 35 36 37 38 40 42 43 43 43 44 44 43 42 42 41 41 41 41 41 41 40 38
33 24 28 29 31 32 32 33 35 33 31 25 24 24 24 23 24 26 29 29 30 31 34 36 36 36 39 41 42 43 43 43 43 43 42 42 42 41 41 40 39 38 37 37
30 17 26 17 25 29 29 30 33 35 35 34 31 30 31 29 27 28 30 31 31 30 29 32 37 37 37 40 41 43 43 43 42 42 42 42 41 40 39 38 37 37 36 36
24 23 22 12 21 24 20 27 28 31 34 35 32 32 33 36 35 33 32 32 31 31 30 30 31 37 38 39 41 42 43 42 41 41 41 41 40 39 38 37 37 36 35 35
22 21 25 14 25 16 22 30 30 30 33 35 35 34 34 34 34 35 34 32 32 31 30 30 31 32 33 39 41 42 42 41 41 41 40 40 39 38 37 37 36 35 34 34
24 22 19 19 20 21 23 25 29 31 30 32 32 33 34 35 33 31 33 33 33 35 35 35 36 36 36 35 40 42 41 41 40 40 40 39 39 38 36 36 35 33 33 32
28 27 24 23 17 17 25 31 30 30 23 31 32 33 32 31 28 30 35 35 36 37 37 37 37 37 37 37 40 41 40 40 40 40 40 39 39 38 37 35 34 35 35 33
23 23 18 16 15 21 33 34 31 19 20 32 32 36 34 31 30 34 35 37 37 37 36 39 39 39 40 40 41 40 40 40 40 40 39 39 39 38 36 35 35 34 34 34
22 22 21 22 20 16 34 32 26 31 33 34 36 37 38 37 35 34 36 36 36 36 37 39 38 37 38 39 40 39 39 39 39 39 39 38 37 37 36 36 34 33 33 34
23 26 25 23 22 32 34 33 32 34 34 34 36 37 36 36 35 35 36 35 36 36 37 38 37 36 37 37 39 38 37 39 39 38 37 37 37 36 36 34 33 32 34 34
21 26 27 27 27 26 32 35 37 37 37 36 36 37 37 35 37 36 35 35 35 35 36 37 36 36 36 36 37 37 38 39 38 37 36 35 35 35 34 33 33 33 34 34
21 22 21 22 22 29 30 27 26 26 34 36 37 37 37 37 39 37 37 36 35 34 35 36 36 35 35 36 36 37 38 38 37 37 36 36 36 34 33 33 34 34 34 34
22 21 19 18 22 23 24 24 29 28 29 35 37 36 38 38 40 39 37 37 35 35 35 35 35 35 35 36 36 36 37 37 37 36 35 34 34 35 36 35 35 37 36 37

GFSCGP_sfc_dewp_102.txt.gz
Dewpoint
37 36 34 35 34 33 35 35 34 37 42 38 38 37 39 42 42 42 41 40 39 41 48 56 61 63 63 64 65 65 66 66 67 65 64 64 64 64 63 62 62 62 61 61
30 32 37 38 36 32 34 34 33 38 42 39 38 35 39 41 42 41 42 41 40 40 41 43 51 59 62 63 64 64 64 65 65 66 66 65 65 65 65 64 63 63 62 62
26 32 37 35 32 30 30 29 30 35 40 40 39 36 38 41 42 42 42 42 40 40 39 40 43 48 58 61 62 63 64 65 65 65 65 63 64 64 64 64 64 64 63 63
31 35 35 33 32 31 28 32 31 38 35 30 36 25 35 38 39 40 40 41 41 39 40 40 40 44 46 55 61 63 64 64 64 64 64 62 63 62 63 63 63 64 64 63
27 33 33 32 32 33 30 35 33 37 32 31 33 29 28 36 36 37 38 39 40 39 39 40 40 41 45 46 55 60 62 63 63 63 63 62 62 62 61 61 62 62 62 62
30 35 36 34 35 35 34 35 35 35 32 27 29 30 27 29 31 34 36 36 38 37 38 39 40 40 42 43 50 58 61 61 62 62 62 62 62 61 59 59 60 60 60 60
27 28 33 37 33 34 34 30 27 26 27 22 27 30 29 30 30 28 30 31 34 34 34 37 39 40 41 41 43 54 57 59 60 61 62 62 61 61 59 58 58 58 57 57
21 16 29 35 33 29 31 29 22 18 20 20 29 27 29 29 28 29 29 28 28 29 30 32 38 39 40 41 41 45 52 56 58 60 60 61 61 60 60 58 56 58 56 55
25 23 30 33 36 34 32 28 32 24 21 17 24 26 22 24 24 24 26 28 28 30 33 33 36 38 40 40 41 44 48 51 54 56 58 56 57 56 56 55 54 54 53 52
27 22 29 34 37 37 34 34 29 32 23 19 19 18 19 18 20 24 27 28 29 30 35 39 38 37 40 41 43 46 48 50 50 50 51 51 51 51 51 51 51 51 49 49
31 31 24 33 31 30 35 35 32 31 27 19 16 15 20 22 22 22 26 29 29 30 33 38 40 40 41 43 44 45 47 47 46 46 47 47 48 48 48 48 48 48 47 46
31 31 24 24 33 39 36 35 34 27 24 21 17 19 22 25 29 27 26 31 32 33 32 35 39 41 42 43 43 44 45 46 46 46 45 44 44 44 43 42 41 41 40 40
33 26 21 16 30 35 35 36 36 34 28 19 18 20 22 26 31 31 32 34 34 34 34 35 36 37 40 41 42 43 44 44 45 44 43 42 42 41 41 40 39 39 39 39
33 27 18 15 18 29 26 31 33 34 29 23 23 21 23 23 29 31 32 33 35 35 34 35 35 37 38 40 41 42 43 44 43 43 42 42 41 40 40 40 39 39 39 38
30 14 23 25 27 30 30 29 30 31 33 26 23 24 24 24 24 26 32 30 30 31 32 35 35 35 37 39 40 41 42 43 42 42 42 41 41 41 40 40 40 40 38 37
28 13 22 16 23 25 25 28 30 31 32 34 33 30 31 30 28 28 28 31 31 31 31 30 31 36 36 38 40 42 43 42 42 42 42 41 41 41 40 39 38 37 36 36
24 23 16 15 20 26 18 26 29 29 34 33 30 33 36 36 35 35 32 32 32 32 32 31 31 31 35 37 39 41 42 42 41 41 41 41 40 39 38 37 37 36 35 35
22 19 23 17 23 10 21 29 30 29 30 33 35 35 36 38 37 36 35 34 33 33 32 31 31 33 34 35 39 40 42 42 41 41 40 40 40 38 37 36 36 35 34 34
23 21 16 18 18 19 24 29 25 32 32 32 31 32 34 34 34 33 34 34 33 33 34 35 37 37 37 36 36 40 40 40 40 40 40 40 39 38 36 36 35 33 33 32
27 26 19 17 16 15 24 32 33 30 27 33 34 34 35 32 31 33 33 35 35 36 37 37 37 37 37 37 37 39 39 39 40 40 40 39 39 38 37 35 34 35 35 34
20 21 17 16 14 18 27 34 33 23 22 34 35 36 36 35 32 34 36 36 37 36 36 38 37 38 39 39 39 39 38 39 40 40 39 39 38 37 36 34 36 35 35 35
20 20 20 20 18 13 32 31 25 30 33 34 35 36 37 37 37 34 35 36 36 36 37 38 37 37 38 39 40 39 38 39 40 40 39 39 38 37 36 36 35 35 34 33
21 23 21 22 21 27 35 31 32 34 34 34 35 36 37 37 36 37 36 35 35 36 37 37 36 36 36 37 39 38 38 39 39 38 38 37 37 36 36 36 34 33 32 32
19 26 27 26 26 27 29 34 33 29 32 35 37 36 37 37 37 38 35 35 36 35 36 36 36 36 36 36 36 36 37 38 38 38 37 36 35 34 35 34 34 33 32 32
20 23 22 22 22 27 30 26 27 29 29 30 35 36 37 37 37 38 36 35 35 35 36 36 36 35 35 35 35 36 37 38 37 37 37 36 36 35 35 34 34 33 34 35
22 21 20 18 21 22 24 25 30 31 30 29 32 35 36 38 38 38 38 36 35 35 35 35 35 35 35 35 35 35 37 38 37 36 36 36 36 35 35 34 35 37 37 37

GFSCGP_sfc_dewp_105.txt.gz
Dewpoint
37 37 34 35 35 34 35 34 33 36 38 39 38 37 36 39 40 40 42 42 44 49 54 60 62 62 61 61 61 61 62 66 66 65 64 64 64 64 63 63 64 64 64 63
32 33 36 38 37 33 35 35 35 38 40 38 37 35 35 40 39 40 40 41 43 41 46 52 60 62 62 62 63 65 63 66 66 66 66 66 65 65 65 65 64 65 64 64
29 32 37 35 33 30 32 32 34 33 39 40 37 34 35 38 41 40 40 42 42 42 40 42 50 59 62 62 63 64 64 65 64 65 64 64 65 65 65 65 64 64 64 64
32 35 35 34 32 31 29 32 32 38 36 31 37 26 32 35 36 37 36 40 41 42 41 41 46 47 54 61 63 63 63 64 65 65 64 61 61 62 64 64 65 65 65 64
29 34 33 33 32 33 30 35 36 37 33 33 34 30 32 34 34 35 36 39 41 42 41 41 41 43 47 52 60 63 63 63 64 65 64 64 62 62 63 63 64 63 64 64
31 35 36 34 36 35 36 35 35 35 33 28 29 30 27 32 34 34 35 38 39 40 41 41 42 42 43 48 51 58 62 63 64 64 64 63 63 63 62 62 62 63 62 62
25 28 33 37 34 34 35 31 26 27 27 23 27 30 28 30 31 30 32 34 37 39 39 40 40 41 42 45 47 55 59 61 62 63 63 63 63 62 62 61 61 61 60 59
23 15 28 36 33 31 33 31 24 18 21 23 30 28 29 32 32 32 31 31 30 34 35 36 38 41 41 44 44 50 57 59 61 62 62 63 63 63 62 61 60 60 59 59
25 23 30 33 36 36 32 32 32 24 22 21 24 26 23 24 26 26 26 28 30 32 35 33 34 37 40 42 43 43 49 54 58 60 61 61 61 61 60 60 59 59 58 56
27 23 30 34 37 38 35 36 31 32 21 19 20 20 20 20 21 23 26 29 30 32 37 40 37 37 39 41 42 44 47 51 55 58 59 58 57 57 57 57 57 56 54 53
31 30 24 29 31 30 35 34 33 32 28 21 16 16 20 22 23 25 23 30 31 32 35 40 41 40 41 43 44 45 47 49 51 52 52 52 52 52 52 53 53 52 51 50
31 30 24 24 35 38 35 34 34 29 26 21 19 18 22 24 29 31 27 31 33 33 34 37 41 42 42 43 44 46 47 48 48 48 47 48 49 49 49 49 48 48 46 44
33 25 13 15 25 30 30 31 31 32 30 20 22 21 22 28 31 32 31 33 34 34 35 35 36 38 42 43 43 44 45 46 46 46 46 45 45 45 45 44 43 43 41 40
32 25 18 13 14 28 26 28 31 29 29 26 23 22 22 23 29 32 32 33 34 35 35 35 35 36 39 41 43 43 44 45 45 44 44 43 43 43 42 41 40 40 40 39
27 15 23 24 24 26 25 27 29 25 28 29 26 25 26 26 24 28 31 31 31 31 31 31 34 35 36 38 41 43 44 44 44 44 43 43 42 41 40 40 40 39 39 39
26 13 17 13 21 23 24 25 26 29 28 29 31 30 33 34 30 28 29 32 32 33 33 33 32 32 35 37 39 41 43 44 43 43 43 42 41 41 40 40 40 39 38 38
23 20 15 13 20 23 17 25 27 29 31 32 28 32 35 35 35 37 36 32 32 33 34 34 32 32 33 36 38 39 42 43 43 43 42 42 41 40 40 39 38 38 37 37
21 19 22 18 17 8 27 29 31 31 33 33 34 33 34 35 36 38 37 35 35 35 34 34 32 34 35 35 37 39 41 43 43 42 42 42 41 40 39 38 38 37 37 37
22 22 17 17 17 17 26 30 28 29 32 35 34 34 36 36 34 35 34 35 34 33 35 36 37 37 37 37 37 38 40 42 42 42 42 42 41 40 38 38 37 37 35 34
27 25 17 16 14 15 23 31 33 31 27 35 35 35 36 35 33 34 35 36 36 36 37 37 38 38 38 39 39 37 38 40 41 42 42 41 41 40 39 38 37 37 37 35
20 20 16 17 15 16 21 32 33 25 24 34 35 36 36 35 36 37 37 36 36 36 37 39 38 38 38 39 39 39 39 39 41 41 41 41 40 39 38 36 37 36 36 36
18 16 17 19 17 11 31 30 26 28 33 33 34 36 36 37 37 37 38 36 36 36 37 38 38 37 38 38 39 39 39 39 41 41 40 40 39 38 37 37 37 37 36 36
20 21 20 21 20 23 34 31 33 34 35 34 35 36 36 37 37 37 38 36 36 36 37 37 37 37 37 37 38 39 39 39 40 40 39 39 38 37 37 36 36 35 36 35
20 26 27 26 25 28 28 34 32 28 28 30 33 35 36 36 37 37 38 37 35 35 36 37 36 36 36 36 36 37 38 39 39 39 38 38 37 36 37 36 36 35 35 34
21 25 24 23 23 24 30 27 27 29 31 31 30 31 35 36 35 38 37 38 35 35 36 36 36 36 36 36 36 36 38 38 38 38 37 37 37 36 35 35 35 35 35 35
22 22 21 18 21 20 23 26 31 31 30 30 30 30 32 35 36 39 38 36 35 35 35 35 35 35 35 35 36 37 38 38 37 37 37 37 37 36 36 35 35 37 37 38

GFSCGP_sfc_dewp_108.txt.gz
Dewpoint
35 39 33 33 35 34 33 30 23 34 36 37 37 37 38 38 43 43 46 49 53 54 58 60 61 62 62 63 62 63 65 66 66 67 66 65 63 62 61 61 61 62 63 64
35 33 35 37 36 34 34 31 32 35 37 38 36 35 37 36 40 41 42 44 49 51 56 60 61 61 61 61 61 60 62 65 66 66 66 66 66 66 65 64 63 64 63 64
33 32 36 35 32 31 34 31 32 31 36 38 36 34 34 37 39 40 40 43 43 48 53 57 58 60 61 61 61 61 62 65 65 66 65 64 64 64 65 66 66 66 65 66
31 34 34 33 31 31 28 32 33 35 34 31 34 25 34 33 37 38 40 41 43 43 44 50 55 59 59 61 62 62 62 64 65 65 63 61 60 60 63 64 66 65 65 65
30 33 32 31 30 33 30 35 32 35 32 30 32 28 29 32 32 35 39 40 42 43 44 44 45 51 60 60 61 62 62 63 64 63 63 63 61 61 62 63 62 61 62 65
32 33 36 33 35 35 37 35 35 35 32 27 24 28 18 29 32 33 36 38 41 42 43 43 46 47 49 58 61 63 62 61 63 62 63 63 62 61 61 62 62 62 62 64
27 27 32 37 34 35 35 32 29 26 29 22 27 30 22 27 31 31 32 34 36 40 41 41 42 42 43 48 52 59 62 62 62 63 63 63 63 62 62 61 62 62 62 62
26 23 28 33 34 32 31 32 26 16 18 21 29 26 22 31 31 32 32 32 33 33 39 39 40 43 43 46 47 50 54 59 62 63 63 64 63 63 63 63 63 63 62 62
24 20 29 31 34 35 36 33 32 27 23 24 23 25 25 22 25 28 28 27 30 31 36 37 37 40 42 43 45 46 50 53 59 62 62 63 64 63 63 63 63 62 62 61
27 26 29 33 35 35 34 36 32 34 25 17 18 20 18 21 22 23 26 28 30 34 37 38 39 35 36 38 43 45 46 51 56 60 61 61 61 62 62 61 61 60 60 58
30 30 25 29 28 26 30 31 33 33 31 20 13 15 19 23 27 28 26 29 31 35 39 40 40 40 38 40 42 43 45 49 54 59 59 59 59 59 58 59 57 56 55 54
32 30 25 21 29 32 31 32 34 29 26 28 22 17 23 28 31 29 27 31 32 35 38 40 42 42 41 42 43 45 46 48 51 55 57 57 55 55 55 55 54 53 52 51
31 29 22 15 28 28 27 28 30 32 33 29 23 20 25 28 30 31 32 33 33 33 34 35 39 42 42 43 44 45 47 48 50 50 51 51 51 52 52 53 51 50 48 45
31 32 25 16 22 26 25 24 27 29 27 28 26 23 23 27 28 31 32 33 33 33 34 34 35 37 41 43 43 45 46 47 47 47 47 48 48 49 49 49 49 46 44 42
27 23 23 21 20 21 23 22 22 27 26 28 29 32 29 30 31 27 30 31 32 33 33 32 34 35 37 39 42 44 45 45 45 45 45 45 46 46 45 45 45 44 42 41
27 25 24 21 21 25 21 20 23 25 25 27 26 28 30 30 33 33 31 31 32 34 34 34 33 32 36 37 39 42 44 45 45 45 44 44 43 43 43 43 42 41 41 41
24 25 23 20 22 26 24 26 27 29 30 30 28 30 34 34 34 35 35 36 36 36 35 35 33 32 33 34 38 39 42 44 45 45 44 43 43 42 42 41 41 41 41 41
23 24 24 23 23 17 27 30 32 31 32 34 34 35 36 36 35 35 36 37 36 36 35 34 33 36 36 36 36 38 41 43 45 44 44 44 43 42 42 41 41 41 41 41
27 25 23 21 17 19 25 30 29 28 32 35 34 35 36 37 35 35 36 36 34 35 36 37 37 37 37 37 37 37 38 41 43 44 44 44 43 42 41 42 42 42 40 41
27 26 25 23 14 10 26 30 33 32 26 35 36 35 35 36 33 35 38 37 37 37 37 37 38 38 38 39 39 39 37 38 40 42 44 44 43 42 42 43 42 41 39 38
23 23 20 19 18 14 20 29 33 26 25 34 35 36 36 35 36 37 39 38 38 38 38 38 38 38 39 39 39 39 40 40 40 42 44 44 44 43 42 41 40 39 38 38
18 19 20 19 20 13 25 30 26 30 34 34 35 35 35 36 37 38 38 39 37 37 38 38 38 39 39 40 39 40 41 42 41 41 43 44 43 41 41 40 39 38 37 37
20 20 21 21 18 24 34 32 33 35 34 32 31 31 33 34 33 36 38 38 38 36 37 37 38 38 39 38 39 39 41 40 41 41 42 42 42 40 40 39 38 37 37 37
25 26 25 27 26 26 29 34 34 30 28 29 29 30 29 31 33 33 38 38 38 36 36 37 37 37 37 37 37 38 39 40 40 41 41 41 40 39 39 38 38 38 37 37
22 27 26 27 27 26 27 30 30 28 30 30 30 30 29 29 32 33 35 38 39 36 36 36 36 37 37 37 37 38 39 40 40 40 39 39 39 38 38 38 37 37 37 37
22 24 23 17 23 21 27 27 29 29 29 29 30 30 31 31 30 32 35 38 37 36 35 36 36 36 36 36 36 37 38 39 39 38 38 38 38 37 37 36 36 37 38 38

GFSCGP_sfc_dewp_111.txt.gz
Dewpoint
38 38 35 32 33 33 31 29 25 24 35 34 34 36 38 39 43 43 46 52 52 53 57 58 60 61 61 62 64 66 65 64 65 65 64 62 59 60 61 63 65 64 63 62
34 33 34 36 34 33 32 28 26 32 34 35 34 34 39 38 40 43 45 51 52 55 56 58 60 61 61 61 62 62 64 64 65 66 66 65 64 64 63 63 62 62 63 64
32 33 34 33 32 30 30 29 28 29 34 35 36 34 37 37 40 41 44 49 52 54 56 57 59 61 61 61 61 61 62 63 65 66 65 65 66 66 65 66 65 65 63 65
29 31 32 32 30 29 27 31 31 31 31 26 31 30 36 36 39 40 41 45 48 52 55 57 58 60 60 59 60 62 61 62 65 65 64 63 62 61 64 65 66 66 65 65
31 31 32 29 28 32 30 34 31 31 29 27 26 26 32 36 36 38 40 42 45 50 54 55 57 59 59 58 59 62 61 62 62 63 62 63 62 62 64 64 63 63 63 65
29 32 33 33 34 33 34 33 30 30 30 27 23 24 27 32 35 37 39 41 43 45 47 50 55 59 58 60 62 61 61 61 62 62 62 62 62 61 62 62 62 62 62 63
27 25 28 34 32 32 32 31 29 26 29 22 26 25 22 26 30 36 38 39 41 44 45 46 47 49 55 59 60 59 61 60 61 61 60 61 62 61 61 60 60 60 61 61
24 24 26 29 31 31 31 30 28 22 19 18 27 22 26 27 30 31 32 34 36 39 42 44 45 46 49 54 57 58 59 59 60 60 60 62 62 62 60 61 60 60 61 61
21 19 25 29 32 32 33 32 32 29 22 19 19 22 21 24 26 29 29 30 33 31 34 42 43 44 44 47 51 55 58 59 58 60 60 61 62 61 61 61 61 61 62 62
25 24 26 27 30 33 31 34 29 32 22 15 15 16 19 23 25 25 26 28 30 33 36 39 38 38 42 44 47 48 50 53 58 61 62 62 62 61 62 63 62 62 62 61
27 25 24 24 26 25 27 29 30 32 31 26 17 18 24 27 29 28 26 30 32 37 39 40 41 39 37 40 44 45 47 50 53 59 61 61 62 62 63 62 61 61 59 58
30 26 24 17 25 29 28 27 30 26 28 27 26 24 27 29 28 27 30 32 33 36 38 41 42 40 40 40 41 43 45 47 52 57 59 59 60 60 59 59 58 57 56 55
28 28 23 20 27 28 25 25 25 31 32 29 24 26 27 28 29 31 31 32 32 32 33 37 40 41 41 42 42 43 46 48 52 56 57 57 56 56 56 56 55 54 53 51
30 33 26 17 22 24 23 22 20 27 28 24 26 28 28 30 30 30 31 31 31 32 33 34 35 40 42 43 44 45 47 49 50 51 52 52 53 53 53 53 53 51 49 45
24 25 22 20 20 21 20 21 20 27 26 27 24 25 29 29 30 32 30 32 33 33 33 33 33 34 37 41 43 45 46 47 48 48 48 49 49 50 50 51 49 47 45 43
27 27 26 23 22 22 18 17 18 22 24 25 26 26 29 32 33 34 33 32 34 35 35 35 33 33 35 37 40 43 45 45 45 45 45 46 46 46 47 47 47 45 43 42
24 27 26 20 22 27 25 24 26 28 28 30 27 28 33 33 33 34 35 35 35 35 35 35 33 33 34 35 37 39 42 44 45 45 44 44 44 44 44 44 43 43 43 42
22 26 27 24 25 19 26 30 31 28 31 33 33 34 37 35 35 35 35 35 34 35 35 35 36 36 37 37 36 37 40 42 45 45 45 44 44 43 43 43 43 43 42 43
26 25 25 23 15 18 23 27 28 27 29 36 35 35 35 36 35 36 37 37 36 36 36 36 37 37 37 38 38 38 37 39 42 44 45 45 44 43 43 43 43 44 42 42
25 24 26 24 16 8 23 30 32 32 25 35 36 34 35 35 32 35 38 39 38 39 38 38 38 37 37 38 39 39 38 37 38 40 44 45 45 44 43 44 44 43 41 40
24 24 22 18 18 12 25 28 32 24 28 34 35 35 35 35 36 38 39 39 39 38 40 40 38 38 39 39 40 39 40 40 40 41 43 45 45 45 45 44 43 42 39 39
18 19 19 18 19 14 27 30 27 30 33 33 34 34 34 34 34 36 37 39 40 38 38 39 39 39 40 40 40 40 41 43 42 42 42 44 45 44 44 43 41 40 38 38
18 17 20 19 19 26 28 31 32 33 32 33 31 30 29 30 30 31 32 37 39 37 37 38 38 39 40 39 39 39 40 40 41 41 41 43 44 43 42 42 40 39 38 37
24 24 22 25 23 24 30 33 33 34 30 29 29 28 28 28 28 29 30 33 38 39 36 37 37 37 38 38 38 38 39 40 40 40 41 42 42 41 41 40 39 39 38 37
20 25 23 23 24 27 28 28 32 30 29 29 29 29 29 29 29 28 29 31 37 38 36 37 36 36 37 37 37 37 38 39 40 41 41 41 41 40 40 39 39 38 38 38
20 20 21 14 22 23 26 29 29 28 28 28 28 28 29 30 31 30 29 31 38 37 36 36 36 36 36 36 36 36 37 38 39 39 40 39 39 38 38 37 37 38 39 40

GFSCGP_sfc_dewp_114.txt.gz
Dewpoint
41 38 36 38 35 32 33 30 29 27 36 35 34 32 36 40 39 41 41 44 53 55 56 56 58 58 59 60 60 60 61 63 60 62 62 63 63 64 64 65 64 62 61 60
35 33 34 36 33 32 31 30 30 32 35 35 33 33 36 39 39 42 43 47 52 55 56 57 58 59 60 61 60 63 63 62 61 61 61 61 61 63 65 65 65 65 63 63
30 31 32 32 31 29 30 32 30 29 33 35 34 33 34 39 39 41 44 47 51 54 56 57 58 59 60 60 60 62 62 63 63 64 64 64 64 64 63 62 62 63 63 64
31 31 30 31 30 30 29 34 31 28 29 31 33 25 34 37 37 42 42 49 53 55 56 57 57 59 60 60 60 61 61 62 63 64 63 63 62 62 63 64 64 64 64 64
30 32 32 31 30 32 30 33 31 30 28 28 27 25 37 37 36 39 42 46 51 54 56 55 56 59 59 60 59 60 61 61 62 62 62 61 61 61 64 64 63 62 62 64
28 28 31 32 32 32 32 31 31 30 30 24 24 24 33 33 37 40 41 44 48 52 55 55 55 59 58 58 57 60 59 59 62 62 62 61 60 61 61 61 61 61 61 62
28 27 29 33 31 32 32 30 24 21 20 20 25 23 26 28 31 40 42 44 45 50 50 52 55 59 58 56 57 59 59 59 61 61 61 61 60 61 60 60 60 60 60 60
23 20 26 27 29 29 30 32 28 23 24 27 25 27 22 27 30 38 42 39 42 46 47 49 50 54 57 57 58 60 59 57 58 60 61 61 61 61 60 60 60 59 59 59
25 20 26 28 27 31 30 28 32 31 25 22 21 21 23 26 27 28 33 34 32 33 42 45 47 48 51 55 58 59 58 58 59 60 61 60 60 61 60 60 60 60 60 60
26 23 27 25 29 33 32 33 28 30 17 16 18 20 23 27 27 28 29 31 33 37 38 39 41 42 45 47 52 58 58 59 59 60 60 60 60 61 61 61 59 60 60 60
28 26 25 26 26 25 30 28 29 31 28 25 24 27 27 27 27 28 31 33 36 38 40 41 41 38 37 39 47 51 55 56 57 59 60 60 60 60 61 61 59 60 61 60
29 26 22 23 28 28 27 26 30 24 21 27 29 28 28 29 31 31 31 33 34 36 40 41 41 40 39 39 42 44 45 49 53 60 60 60 60 60 60 60 60 60 59 58
29 25 16 21 28 26 24 24 23 29 30 22 24 28 33 30 29 30 31 31 32 33 34 39 41 42 43 43 42 43 45 50 56 58 58 59 59 59 58 57 56 56 55 53
30 28 21 15 18 22 21 22 21 26 23 19 26 28 34 30 31 30 32 33 34 34 33 34 36 42 43 44 45 46 49 51 53 54 55 55 55 56 56 55 55 53 49 47
27 17 23 22 21 22 22 21 21 19 23 18 23 23 28 31 32 33 31 33 35 35 35 34 33 35 39 43 44 45 47 48 49 51 52 52 51 52 52 51 49 48 46 44
28 20 21 17 22 24 20 19 19 21 24 26 26 27 33 33 33 33 35 35 35 35 35 34 33 34 35 37 41 45 45 45 46 46 48 49 48 48 49 49 46 45 44 42
24 22 19 16 22 24 17 25 25 27 27 29 26 30 35 34 33 34 35 35 34 35 35 36 36 36 36 36 37 39 44 45 45 45 45 45 45 46 46 46 45 43 42 42
22 22 24 19 20 11 26 31 31 28 30 32 33 34 34 34 36 37 38 36 36 36 36 36 37 37 37 38 38 37 41 44 45 45 44 44 44 44 44 43 43 42 42 42
26 25 21 17 17 17 23 25 29 28 28 34 33 34 34 35 37 36 38 39 38 38 38 38 38 38 38 38 39 39 38 38 43 44 45 44 44 43 43 42 42 42 40 39
25 24 21 21 16 12 26 30 32 31 25 35 35 34 35 35 34 36 38 39 39 38 40 40 39 38 39 39 40 39 39 39 38 39 43 45 44 43 42 42 42 41 41 39
19 21 18 20 16 17 28 31 32 22 25 35 36 34 34 33 34 37 39 39 40 38 38 39 39 39 40 40 40 40 41 41 43 43 42 45 45 44 43 41 40 39 39 39
20 19 18 18 16 13 29 31 28 30 33 34 34 33 34 34 32 33 34 36 38 38 37 38 38 39 40 40 39 39 40 41 41 42 42 42 44 44 43 41 39 38 38 37
18 18 21 19 21 25 31 31 33 33 32 33 32 32 30 29 29 30 31 32 37 38 36 37 37 38 39 38 38 38 39 40 40 41 41 41 44 43 42 39 38 37 37 37
23 23 21 22 23 26 29 33 32 34 31 29 29 29 29 28 29 29 29 30 35 39 36 37 37 37 37 37 38 37 38 39 40 40 40 41 43 42 42 40 39 38 37 37
20 24 23 22 23 28 27 29 32 30 30 30 30 29 29 29 29 30 29 30 33 38 37 37 36 36 36 36 37 37 37 38 39 40 41 41 41 41 41 40 39 38 38 38
23 23 22 20 23 25 27 28 30 30 29 29 28 28 29 30 31 30 31 30 34 37 37 36 37 37 36 36 36 36 36 37 39 39 39 39 39 38 39 38 38 39 40 40

GFSCGP_sfc_dewp_117.txt.gz
Dewpoint
39 38 34 36 37 38 36 32 33 35 38 38 37 36 36 35 40 40 43 45 49 54 58 58 58 58 59 59 59 59 61 62 64 61 60 58 57 58 57 56 57 57 57 58
37 33 35 36 37 37 31 30 35 39 37 36 34 34 34 36 39 40 41 43 52 55 56 57 58 59 59 58 59 60 61 63 63 63 62 59 59 60 60 59 60 59 60 60
31 30 32 32 32 30 29 31 33 31 31 35 35 31 34 36 39 40 40 49 52 53 55 57 58 58 59 60 60 61 60 63 63 64 63 63 63 64 63 63 62 62 61 62
31 34 33 32 31 32 29 33 31 31 30 27 34 26 33 38 38 39 42 51 52 53 55 57 58 59 59 60 61 60 62 62 63 63 63 61 60 60 62 62 64 64 63 64
27 30 30 30 32 31 31 33 30 32 30 28 27 29 35 40 39 41 44 50 52 54 56 56 58 59 59 59 59 60 61 62 62 61 62 61 60 61 62 63 63 63 64 64
29 30 30 32 31 33 33 31 31 30 30 21 27 29 29 28 38 42 42 45 52 54 55 55 57 58 59 59 59 59 59 60 61 61 60 58 59 62 61 61 60 61 61 63
26 26 28 30 29 32 31 29 18 19 16 19 26 25 24 27 40 42 42 42 49 53 55 55 57 57 56 57 58 59 58 59 61 61 60 60 60 60 60 61 61 60 59 60
19 16 25 28 28 29 30 31 27 21 23 24 28 21 25 27 31 44 45 43 43 48 52 54 55 57 57 56 57 58 57 58 60 61 60 60 60 60 60 59 60 59 59 60
22 20 27 27 29 32 28 27 32 30 31 26 24 26 26 28 28 33 41 43 41 40 42 48 52 55 57 57 57 59 58 57 59 59 60 60 60 60 60 60 59 59 59 59
26 20 26 27 29 29 31 32 23 25 18 22 25 25 27 28 29 31 34 37 38 42 41 41 41 44 51 55 57 59 59 58 57 59 59 60 60 61 61 60 59 59 59 59
27 25 22 26 27 26 28 26 28 24 27 25 21 27 30 28 30 31 32 33 36 39 41 41 40 39 38 42 52 57 59 58 58 59 60 60 60 60 61 60 59 59 60 60
28 26 17 26 27 27 27 25 26 19 19 29 24 29 35 35 30 31 31 32 33 35 40 41 42 43 42 40 44 49 54 58 59 59 59 59 60 60 60 61 61 60 59 60
28 22 7 16 18 21 23 23 26 27 26 18 24 29 35 33 33 31 32 34 34 33 33 39 42 43 44 46 44 46 49 53 57 59 59 59 59 59 59 59 60 59 58 57
31 24 15 11 15 21 20 21 23 22 13 23 22 22 30 31 32 34 35 35 35 35 33 34 36 41 43 45 46 48 49 52 54 56 57 56 56 57 57 57 56 55 54 54
26 13 22 21 22 22 22 20 21 15 21 17 22 29 32 33 32 34 34 35 34 34 34 34 34 35 36 41 44 45 46 48 51 52 53 53 53 53 53 53 52 49 48 48
26 17 17 15 23 25 20 19 20 20 23 25 26 30 35 35 34 35 36 35 35 35 36 36 36 36 36 36 39 44 45 45 47 48 49 49 51 52 50 49 47 46 45 43
23 18 16 15 23 20 13 22 24 28 27 27 23 30 34 33 35 36 37 36 36 35 36 37 37 37 37 37 38 39 43 45 45 45 45 46 47 48 48 46 45 44 43 42
21 19 21 15 16 3 19 30 31 28 29 31 32 33 34 35 37 37 38 37 37 38 37 37 38 37 38 39 39 39 39 43 45 44 44 44 45 45 45 45 44 43 42 42
25 23 18 14 13 16 25 27 29 28 26 32 32 34 34 35 37 35 38 38 38 37 39 39 39 38 39 39 40 40 39 39 40 44 44 44 44 44 43 43 42 41 40 39
26 24 19 17 14 11 20 30 31 30 22 34 34 34 33 34 32 35 37 38 39 39 38 39 39 39 39 40 40 40 41 41 42 42 41 45 44 43 43 42 41 41 41 39
16 17 15 16 14 17 27 31 32 18 13 35 36 34 33 31 33 36 37 37 38 39 37 38 38 39 39 39 39 39 40 40 41 41 42 42 44 43 42 41 40 39 40 39
18 16 16 17 14 7 30 31 24 25 34 35 36 34 33 34 32 31 32 33 36 38 37 37 37 38 39 38 38 38 37 39 40 41 41 41 42 43 42 40 39 38 38 38
15 19 19 18 17 20 31 28 32 32 31 33 34 33 33 29 28 29 29 30 36 37 37 37 37 37 37 38 37 36 37 38 39 40 40 40 41 41 40 39 37 37 37 36
22 23 20 19 16 25 30 32 33 34 31 30 29 28 28 28 29 29 29 29 30 37 37 37 37 36 36 36 37 36 37 38 38 39 39 39 41 43 42 40 39 37 36 36
19 23 21 22 23 24 26 31 32 30 30 29 29 29 28 29 29 29 30 30 30 36 38 36 36 36 35 36 36 35 36 37 38 39 39 40 41 42 42 41 40 39 38 38
22 22 20 16 22 21 24 28 32 30 30 30 28 28 28 29 30 31 29 31 30 35 36 36 37 37 37 36 35 35 35 36 37 37 38 39 39 39 40 39 39 40 40 41